<?xml version="1.0" encoding="UTF-8" standalone="no" ?>
<gpx xmlns="http://www.topografix.com/GPX/1/1" xmlns:xsi="http://www.w3.org/2001/XMLSchema-instance" xsi:schemaLocation="http://www.topografix.com/GPX/1/1 http://www.topografix.com/GPX/1/1/gpx.xsd" version="1.1" creator="VisuGPX - https://www.visugpx.com">
  <metadata>
    <name>mrt 08/01/2016 coetmieux</name>
    <desc><![CDATA[depart des ponts neufs]]></desc>
  </metadata>
  <trk>
    <name><![CDATA[mrt 08/01/2016 coetmieux_1]]></name>
    <trkseg>
      <trkpt lat="48.5061" lon="-2.60999">
        <ele>40</ele>
        <time>2016-01-08T08:20:06Z</time>
      </trkpt>
      <trkpt lat="48.50607" lon="-2.6104">
        <ele>34</ele>
        <time>2016-01-08T08:20:42Z</time>
      </trkpt>
      <trkpt lat="48.50606" lon="-2.61045">
        <ele>34</ele>
        <time>2016-01-08T08:20:46Z</time>
      </trkpt>
      <trkpt lat="48.50605" lon="-2.61049">
        <ele>34</ele>
        <time>2016-01-08T08:20:50Z</time>
      </trkpt>
      <trkpt lat="48.50603" lon="-2.61049">
        <ele>34</ele>
        <time>2016-01-08T08:20:54Z</time>
      </trkpt>
      <trkpt lat="48.50604" lon="-2.61048">
        <ele>34</ele>
        <time>2016-01-08T08:20:58Z</time>
      </trkpt>
      <trkpt lat="48.50603" lon="-2.61043">
        <ele>32</ele>
        <time>2016-01-08T08:21:02Z</time>
      </trkpt>
      <trkpt lat="48.50603" lon="-2.61039">
        <ele>32</ele>
        <time>2016-01-08T08:21:07Z</time>
      </trkpt>
      <trkpt lat="48.50603" lon="-2.61037">
        <ele>32</ele>
        <time>2016-01-08T08:21:10Z</time>
      </trkpt>
      <trkpt lat="48.50603" lon="-2.61032">
        <ele>32</ele>
        <time>2016-01-08T08:21:14Z</time>
      </trkpt>
      <trkpt lat="48.50604" lon="-2.61027">
        <ele>32</ele>
        <time>2016-01-08T08:21:17Z</time>
      </trkpt>
      <trkpt lat="48.50605" lon="-2.61022">
        <ele>32</ele>
        <time>2016-01-08T08:21:20Z</time>
      </trkpt>
      <trkpt lat="48.50605" lon="-2.61017">
        <ele>32</ele>
        <time>2016-01-08T08:21:23Z</time>
      </trkpt>
      <trkpt lat="48.50606" lon="-2.61011">
        <ele>32</ele>
        <time>2016-01-08T08:21:26Z</time>
      </trkpt>
      <trkpt lat="48.50607" lon="-2.61005">
        <ele>32</ele>
        <time>2016-01-08T08:21:29Z</time>
      </trkpt>
      <trkpt lat="48.50608" lon="-2.61">
        <ele>32</ele>
        <time>2016-01-08T08:21:32Z</time>
      </trkpt>
      <trkpt lat="48.50609" lon="-2.60995">
        <ele>32</ele>
        <time>2016-01-08T08:21:35Z</time>
      </trkpt>
      <trkpt lat="48.5061" lon="-2.60989">
        <ele>31</ele>
        <time>2016-01-08T08:21:38Z</time>
      </trkpt>
      <trkpt lat="48.50611" lon="-2.60984">
        <ele>30</ele>
        <time>2016-01-08T08:21:41Z</time>
      </trkpt>
      <trkpt lat="48.50612" lon="-2.60978">
        <ele>28</ele>
        <time>2016-01-08T08:21:44Z</time>
      </trkpt>
      <trkpt lat="48.50614" lon="-2.60972">
        <ele>27</ele>
        <time>2016-01-08T08:21:47Z</time>
      </trkpt>
      <trkpt lat="48.50615" lon="-2.60966">
        <ele>25</ele>
        <time>2016-01-08T08:21:50Z</time>
      </trkpt>
      <trkpt lat="48.50615" lon="-2.60961">
        <ele>25</ele>
        <time>2016-01-08T08:21:53Z</time>
      </trkpt>
      <trkpt lat="48.50616" lon="-2.60956">
        <ele>25</ele>
        <time>2016-01-08T08:21:57Z</time>
      </trkpt>
      <trkpt lat="48.50618" lon="-2.6095">
        <ele>25</ele>
        <time>2016-01-08T08:22:01Z</time>
      </trkpt>
      <trkpt lat="48.50619" lon="-2.60942">
        <ele>25</ele>
        <time>2016-01-08T08:22:05Z</time>
      </trkpt>
      <trkpt lat="48.50619" lon="-2.60937">
        <ele>25</ele>
        <time>2016-01-08T08:22:08Z</time>
      </trkpt>
      <trkpt lat="48.50621" lon="-2.60931">
        <ele>23</ele>
        <time>2016-01-08T08:22:11Z</time>
      </trkpt>
      <trkpt lat="48.50621" lon="-2.60925">
        <ele>23</ele>
        <time>2016-01-08T08:22:15Z</time>
      </trkpt>
      <trkpt lat="48.50622" lon="-2.60918">
        <ele>22</ele>
        <time>2016-01-08T08:22:18Z</time>
      </trkpt>
      <trkpt lat="48.50623" lon="-2.6091">
        <ele>21</ele>
        <time>2016-01-08T08:22:21Z</time>
      </trkpt>
      <trkpt lat="48.50624" lon="-2.60904">
        <ele>20</ele>
        <time>2016-01-08T08:22:24Z</time>
      </trkpt>
      <trkpt lat="48.50625" lon="-2.60899">
        <ele>20</ele>
        <time>2016-01-08T08:22:27Z</time>
      </trkpt>
      <trkpt lat="48.50627" lon="-2.60893">
        <ele>20</ele>
        <time>2016-01-08T08:22:31Z</time>
      </trkpt>
      <trkpt lat="48.50628" lon="-2.60887">
        <ele>20</ele>
        <time>2016-01-08T08:22:34Z</time>
      </trkpt>
      <trkpt lat="48.50629" lon="-2.60882">
        <ele>20</ele>
        <time>2016-01-08T08:22:37Z</time>
      </trkpt>
      <trkpt lat="48.5063" lon="-2.60876">
        <ele>20</ele>
        <time>2016-01-08T08:22:40Z</time>
      </trkpt>
      <trkpt lat="48.50632" lon="-2.60869">
        <ele>20</ele>
        <time>2016-01-08T08:22:44Z</time>
      </trkpt>
      <trkpt lat="48.50634" lon="-2.60864">
        <ele>20</ele>
        <time>2016-01-08T08:22:47Z</time>
      </trkpt>
      <trkpt lat="48.50635" lon="-2.60858">
        <ele>20</ele>
        <time>2016-01-08T08:22:50Z</time>
      </trkpt>
      <trkpt lat="48.50637" lon="-2.60853">
        <ele>20</ele>
        <time>2016-01-08T08:22:54Z</time>
      </trkpt>
      <trkpt lat="48.50639" lon="-2.60847">
        <ele>20</ele>
        <time>2016-01-08T08:22:57Z</time>
      </trkpt>
      <trkpt lat="48.50639" lon="-2.6084">
        <ele>20</ele>
        <time>2016-01-08T08:23:01Z</time>
      </trkpt>
      <trkpt lat="48.5064" lon="-2.60833">
        <ele>20</ele>
        <time>2016-01-08T08:23:04Z</time>
      </trkpt>
      <trkpt lat="48.50641" lon="-2.60827">
        <ele>20</ele>
        <time>2016-01-08T08:23:07Z</time>
      </trkpt>
      <trkpt lat="48.50642" lon="-2.60822">
        <ele>20</ele>
        <time>2016-01-08T08:23:10Z</time>
      </trkpt>
      <trkpt lat="48.50642" lon="-2.60818">
        <ele>20</ele>
        <time>2016-01-08T08:23:13Z</time>
      </trkpt>
      <trkpt lat="48.50639" lon="-2.6081">
        <ele>20</ele>
        <time>2016-01-08T08:23:17Z</time>
      </trkpt>
      <trkpt lat="48.50635" lon="-2.60803">
        <ele>22</ele>
        <time>2016-01-08T08:23:21Z</time>
      </trkpt>
      <trkpt lat="48.50634" lon="-2.60795">
        <ele>25</ele>
        <time>2016-01-08T08:23:24Z</time>
      </trkpt>
      <trkpt lat="48.50634" lon="-2.60788">
        <ele>26</ele>
        <time>2016-01-08T08:23:27Z</time>
      </trkpt>
      <trkpt lat="48.50634" lon="-2.60782">
        <ele>26</ele>
        <time>2016-01-08T08:23:30Z</time>
      </trkpt>
      <trkpt lat="48.50634" lon="-2.60777">
        <ele>26</ele>
        <time>2016-01-08T08:23:33Z</time>
      </trkpt>
      <trkpt lat="48.50632" lon="-2.6077">
        <ele>26</ele>
        <time>2016-01-08T08:23:36Z</time>
      </trkpt>
      <trkpt lat="48.50632" lon="-2.60764">
        <ele>26</ele>
        <time>2016-01-08T08:23:39Z</time>
      </trkpt>
      <trkpt lat="48.50632" lon="-2.60758">
        <ele>26</ele>
        <time>2016-01-08T08:23:42Z</time>
      </trkpt>
      <trkpt lat="48.50632" lon="-2.60753">
        <ele>26</ele>
        <time>2016-01-08T08:23:45Z</time>
      </trkpt>
      <trkpt lat="48.50629" lon="-2.60745">
        <ele>26</ele>
        <time>2016-01-08T08:23:48Z</time>
      </trkpt>
      <trkpt lat="48.50626" lon="-2.60738">
        <ele>29</ele>
        <time>2016-01-08T08:23:52Z</time>
      </trkpt>
      <trkpt lat="48.50621" lon="-2.60735">
        <ele>31</ele>
        <time>2016-01-08T08:23:55Z</time>
      </trkpt>
      <trkpt lat="48.5062" lon="-2.6073">
        <ele>34</ele>
        <time>2016-01-08T08:23:58Z</time>
      </trkpt>
      <trkpt lat="48.5062" lon="-2.60725">
        <ele>34</ele>
        <time>2016-01-08T08:24:02Z</time>
      </trkpt>
      <trkpt lat="48.50619" lon="-2.60724">
        <ele>34</ele>
        <time>2016-01-08T08:24:05Z</time>
      </trkpt>
      <trkpt lat="48.50618" lon="-2.60718">
        <ele>34</ele>
        <time>2016-01-08T08:24:09Z</time>
      </trkpt>
      <trkpt lat="48.50616" lon="-2.60713">
        <ele>34</ele>
        <time>2016-01-08T08:24:13Z</time>
      </trkpt>
      <trkpt lat="48.50615" lon="-2.60706">
        <ele>34</ele>
        <time>2016-01-08T08:24:16Z</time>
      </trkpt>
      <trkpt lat="48.50612" lon="-2.607">
        <ele>34</ele>
        <time>2016-01-08T08:24:19Z</time>
      </trkpt>
      <trkpt lat="48.5061" lon="-2.60695">
        <ele>34</ele>
        <time>2016-01-08T08:24:22Z</time>
      </trkpt>
      <trkpt lat="48.50607" lon="-2.60691">
        <ele>34</ele>
        <time>2016-01-08T08:24:25Z</time>
      </trkpt>
      <trkpt lat="48.50604" lon="-2.60687">
        <ele>34</ele>
        <time>2016-01-08T08:24:28Z</time>
      </trkpt>
      <trkpt lat="48.50601" lon="-2.60683">
        <ele>35</ele>
        <time>2016-01-08T08:24:31Z</time>
      </trkpt>
      <trkpt lat="48.50599" lon="-2.60677">
        <ele>35</ele>
        <time>2016-01-08T08:24:34Z</time>
      </trkpt>
      <trkpt lat="48.50597" lon="-2.60672">
        <ele>35</ele>
        <time>2016-01-08T08:24:37Z</time>
      </trkpt>
      <trkpt lat="48.50593" lon="-2.60667">
        <ele>35</ele>
        <time>2016-01-08T08:24:40Z</time>
      </trkpt>
      <trkpt lat="48.50589" lon="-2.60665">
        <ele>35</ele>
        <time>2016-01-08T08:24:43Z</time>
      </trkpt>
      <trkpt lat="48.50584" lon="-2.60664">
        <ele>35</ele>
        <time>2016-01-08T08:24:46Z</time>
      </trkpt>
      <trkpt lat="48.50579" lon="-2.60665">
        <ele>35</ele>
        <time>2016-01-08T08:24:49Z</time>
      </trkpt>
      <trkpt lat="48.50574" lon="-2.60666">
        <ele>35</ele>
        <time>2016-01-08T08:24:52Z</time>
      </trkpt>
      <trkpt lat="48.50569" lon="-2.60666">
        <ele>36</ele>
        <time>2016-01-08T08:24:55Z</time>
      </trkpt>
      <trkpt lat="48.50565" lon="-2.60666">
        <ele>36</ele>
        <time>2016-01-08T08:24:58Z</time>
      </trkpt>
      <trkpt lat="48.5056" lon="-2.60665">
        <ele>36</ele>
        <time>2016-01-08T08:25:01Z</time>
      </trkpt>
      <trkpt lat="48.50556" lon="-2.60662">
        <ele>36</ele>
        <time>2016-01-08T08:25:04Z</time>
      </trkpt>
      <trkpt lat="48.50553" lon="-2.60656">
        <ele>36</ele>
        <time>2016-01-08T08:25:08Z</time>
      </trkpt>
      <trkpt lat="48.50552" lon="-2.60652">
        <ele>36</ele>
        <time>2016-01-08T08:25:21Z</time>
      </trkpt>
      <trkpt lat="48.50551" lon="-2.60649">
        <ele>36</ele>
        <time>2016-01-08T08:25:24Z</time>
      </trkpt>
      <trkpt lat="48.5055" lon="-2.60644">
        <ele>36</ele>
        <time>2016-01-08T08:25:27Z</time>
      </trkpt>
      <trkpt lat="48.5055" lon="-2.60637">
        <ele>36</ele>
        <time>2016-01-08T08:25:30Z</time>
      </trkpt>
      <trkpt lat="48.50548" lon="-2.6063">
        <ele>36</ele>
        <time>2016-01-08T08:25:34Z</time>
      </trkpt>
      <trkpt lat="48.50547" lon="-2.60625">
        <ele>36</ele>
        <time>2016-01-08T08:25:37Z</time>
      </trkpt>
      <trkpt lat="48.50547" lon="-2.60617">
        <ele>35</ele>
        <time>2016-01-08T08:25:40Z</time>
      </trkpt>
      <trkpt lat="48.50548" lon="-2.6061">
        <ele>33</ele>
        <time>2016-01-08T08:25:43Z</time>
      </trkpt>
      <trkpt lat="48.50548" lon="-2.60604">
        <ele>32</ele>
        <time>2016-01-08T08:25:46Z</time>
      </trkpt>
      <trkpt lat="48.50549" lon="-2.60597">
        <ele>31</ele>
        <time>2016-01-08T08:25:50Z</time>
      </trkpt>
      <trkpt lat="48.50549" lon="-2.6059">
        <ele>29</ele>
        <time>2016-01-08T08:25:54Z</time>
      </trkpt>
      <trkpt lat="48.50545" lon="-2.60583">
        <ele>29</ele>
        <time>2016-01-08T08:25:57Z</time>
      </trkpt>
      <trkpt lat="48.50544" lon="-2.60578">
        <ele>29</ele>
        <time>2016-01-08T08:26:00Z</time>
      </trkpt>
      <trkpt lat="48.50544" lon="-2.60572">
        <ele>29</ele>
        <time>2016-01-08T08:26:03Z</time>
      </trkpt>
      <trkpt lat="48.50544" lon="-2.60566">
        <ele>29</ele>
        <time>2016-01-08T08:26:06Z</time>
      </trkpt>
      <trkpt lat="48.50544" lon="-2.6056">
        <ele>29</ele>
        <time>2016-01-08T08:26:09Z</time>
      </trkpt>
      <trkpt lat="48.50544" lon="-2.60553">
        <ele>29</ele>
        <time>2016-01-08T08:26:12Z</time>
      </trkpt>
      <trkpt lat="48.50545" lon="-2.60546">
        <ele>29</ele>
        <time>2016-01-08T08:26:15Z</time>
      </trkpt>
      <trkpt lat="48.50544" lon="-2.60541">
        <ele>26</ele>
        <time>2016-01-08T08:26:18Z</time>
      </trkpt>
      <trkpt lat="48.50544" lon="-2.60535">
        <ele>25</ele>
        <time>2016-01-08T08:26:21Z</time>
      </trkpt>
      <trkpt lat="48.50542" lon="-2.60527">
        <ele>24</ele>
        <time>2016-01-08T08:26:24Z</time>
      </trkpt>
      <trkpt lat="48.50538" lon="-2.6052">
        <ele>24</ele>
        <time>2016-01-08T08:26:27Z</time>
      </trkpt>
      <trkpt lat="48.50534" lon="-2.60514">
        <ele>24</ele>
        <time>2016-01-08T08:26:30Z</time>
      </trkpt>
      <trkpt lat="48.50527" lon="-2.60509">
        <ele>24</ele>
        <time>2016-01-08T08:26:33Z</time>
      </trkpt>
      <trkpt lat="48.5052" lon="-2.60507">
        <ele>27</ele>
        <time>2016-01-08T08:26:36Z</time>
      </trkpt>
      <trkpt lat="48.50516" lon="-2.60506">
        <ele>30</ele>
        <time>2016-01-08T08:26:39Z</time>
      </trkpt>
      <trkpt lat="48.50511" lon="-2.60504">
        <ele>33</ele>
        <time>2016-01-08T08:26:42Z</time>
      </trkpt>
      <trkpt lat="48.50508" lon="-2.60501">
        <ele>35</ele>
        <time>2016-01-08T08:26:45Z</time>
      </trkpt>
      <trkpt lat="48.50503" lon="-2.60499">
        <ele>35</ele>
        <time>2016-01-08T08:26:48Z</time>
      </trkpt>
      <trkpt lat="48.505" lon="-2.60496">
        <ele>36</ele>
        <time>2016-01-08T08:26:51Z</time>
      </trkpt>
      <trkpt lat="48.50496" lon="-2.60493">
        <ele>37</ele>
        <time>2016-01-08T08:26:54Z</time>
      </trkpt>
      <trkpt lat="48.50491" lon="-2.60491">
        <ele>39</ele>
        <time>2016-01-08T08:26:57Z</time>
      </trkpt>
      <trkpt lat="48.50489" lon="-2.60487">
        <ele>40</ele>
        <time>2016-01-08T08:27:00Z</time>
      </trkpt>
      <trkpt lat="48.50485" lon="-2.60485">
        <ele>41</ele>
        <time>2016-01-08T08:27:03Z</time>
      </trkpt>
      <trkpt lat="48.50483" lon="-2.60481">
        <ele>41</ele>
        <time>2016-01-08T08:27:06Z</time>
      </trkpt>
      <trkpt lat="48.5048" lon="-2.60477">
        <ele>41</ele>
        <time>2016-01-08T08:27:09Z</time>
      </trkpt>
      <trkpt lat="48.50477" lon="-2.60473">
        <ele>41</ele>
        <time>2016-01-08T08:27:12Z</time>
      </trkpt>
      <trkpt lat="48.50474" lon="-2.60472">
        <ele>41</ele>
        <time>2016-01-08T08:27:15Z</time>
      </trkpt>
      <trkpt lat="48.50471" lon="-2.60471">
        <ele>41</ele>
        <time>2016-01-08T08:27:18Z</time>
      </trkpt>
      <trkpt lat="48.50468" lon="-2.60467">
        <ele>41</ele>
        <time>2016-01-08T08:27:21Z</time>
      </trkpt>
      <trkpt lat="48.50466" lon="-2.60464">
        <ele>41</ele>
        <time>2016-01-08T08:27:24Z</time>
      </trkpt>
      <trkpt lat="48.50464" lon="-2.60459">
        <ele>40</ele>
        <time>2016-01-08T08:27:27Z</time>
      </trkpt>
      <trkpt lat="48.50461" lon="-2.60455">
        <ele>38</ele>
        <time>2016-01-08T08:27:30Z</time>
      </trkpt>
      <trkpt lat="48.5046" lon="-2.6045">
        <ele>36</ele>
        <time>2016-01-08T08:27:33Z</time>
      </trkpt>
      <trkpt lat="48.5046" lon="-2.60445">
        <ele>34</ele>
        <time>2016-01-08T08:27:36Z</time>
      </trkpt>
      <trkpt lat="48.50459" lon="-2.60439">
        <ele>33</ele>
        <time>2016-01-08T08:27:39Z</time>
      </trkpt>
      <trkpt lat="48.50456" lon="-2.60433">
        <ele>33</ele>
        <time>2016-01-08T08:27:42Z</time>
      </trkpt>
      <trkpt lat="48.50453" lon="-2.60427">
        <ele>33</ele>
        <time>2016-01-08T08:27:45Z</time>
      </trkpt>
      <trkpt lat="48.50451" lon="-2.60421">
        <ele>33</ele>
        <time>2016-01-08T08:27:48Z</time>
      </trkpt>
      <trkpt lat="48.50448" lon="-2.60417">
        <ele>33</ele>
        <time>2016-01-08T08:27:51Z</time>
      </trkpt>
      <trkpt lat="48.50443" lon="-2.60416">
        <ele>33</ele>
        <time>2016-01-08T08:27:55Z</time>
      </trkpt>
      <trkpt lat="48.50439" lon="-2.60416">
        <ele>33</ele>
        <time>2016-01-08T08:27:59Z</time>
      </trkpt>
      <trkpt lat="48.50435" lon="-2.60415">
        <ele>33</ele>
        <time>2016-01-08T08:28:02Z</time>
      </trkpt>
      <trkpt lat="48.50431" lon="-2.60412">
        <ele>33</ele>
        <time>2016-01-08T08:28:05Z</time>
      </trkpt>
      <trkpt lat="48.50427" lon="-2.60409">
        <ele>33</ele>
        <time>2016-01-08T08:28:08Z</time>
      </trkpt>
      <trkpt lat="48.50424" lon="-2.60407">
        <ele>33</ele>
        <time>2016-01-08T08:28:12Z</time>
      </trkpt>
      <trkpt lat="48.5042" lon="-2.60407">
        <ele>34</ele>
        <time>2016-01-08T08:28:15Z</time>
      </trkpt>
      <trkpt lat="48.5042" lon="-2.60402">
        <ele>34</ele>
        <time>2016-01-08T08:28:26Z</time>
      </trkpt>
      <trkpt lat="48.50422" lon="-2.60401">
        <ele>34</ele>
        <time>2016-01-08T08:28:30Z</time>
      </trkpt>
      <trkpt lat="48.50423" lon="-2.60399">
        <ele>34</ele>
        <time>2016-01-08T08:28:33Z</time>
      </trkpt>
      <trkpt lat="48.50424" lon="-2.60397">
        <ele>32</ele>
        <time>2016-01-08T08:28:37Z</time>
      </trkpt>
      <trkpt lat="48.50423" lon="-2.60398">
        <ele>30</ele>
        <time>2016-01-08T08:28:41Z</time>
      </trkpt>
      <trkpt lat="48.50419" lon="-2.60402">
        <ele>29</ele>
        <time>2016-01-08T08:28:45Z</time>
      </trkpt>
      <trkpt lat="48.50416" lon="-2.60405">
        <ele>29</ele>
        <time>2016-01-08T08:28:49Z</time>
      </trkpt>
      <trkpt lat="48.50412" lon="-2.6041">
        <ele>29</ele>
        <time>2016-01-08T08:28:52Z</time>
      </trkpt>
      <trkpt lat="48.50407" lon="-2.60417">
        <ele>29</ele>
        <time>2016-01-08T08:28:56Z</time>
      </trkpt>
      <trkpt lat="48.50403" lon="-2.60421">
        <ele>29</ele>
        <time>2016-01-08T08:28:59Z</time>
      </trkpt>
      <trkpt lat="48.50399" lon="-2.60424">
        <ele>29</ele>
        <time>2016-01-08T08:29:02Z</time>
      </trkpt>
      <trkpt lat="48.50395" lon="-2.60427">
        <ele>29</ele>
        <time>2016-01-08T08:29:05Z</time>
      </trkpt>
      <trkpt lat="48.50391" lon="-2.6043">
        <ele>29</ele>
        <time>2016-01-08T08:29:08Z</time>
      </trkpt>
      <trkpt lat="48.50387" lon="-2.60433">
        <ele>29</ele>
        <time>2016-01-08T08:29:11Z</time>
      </trkpt>
      <trkpt lat="48.50383" lon="-2.60435">
        <ele>29</ele>
        <time>2016-01-08T08:29:14Z</time>
      </trkpt>
      <trkpt lat="48.50378" lon="-2.60436">
        <ele>29</ele>
        <time>2016-01-08T08:29:17Z</time>
      </trkpt>
      <trkpt lat="48.50374" lon="-2.60436">
        <ele>29</ele>
        <time>2016-01-08T08:29:20Z</time>
      </trkpt>
      <trkpt lat="48.50371" lon="-2.60435">
        <ele>29</ele>
        <time>2016-01-08T08:29:23Z</time>
      </trkpt>
      <trkpt lat="48.50367" lon="-2.60433">
        <ele>29</ele>
        <time>2016-01-08T08:29:26Z</time>
      </trkpt>
      <trkpt lat="48.50363" lon="-2.60431">
        <ele>29</ele>
        <time>2016-01-08T08:29:29Z</time>
      </trkpt>
      <trkpt lat="48.50359" lon="-2.60429">
        <ele>29</ele>
        <time>2016-01-08T08:29:32Z</time>
      </trkpt>
      <trkpt lat="48.50354" lon="-2.60426">
        <ele>29</ele>
        <time>2016-01-08T08:29:35Z</time>
      </trkpt>
      <trkpt lat="48.50349" lon="-2.60422">
        <ele>29</ele>
        <time>2016-01-08T08:29:39Z</time>
      </trkpt>
      <trkpt lat="48.50346" lon="-2.60419">
        <ele>29</ele>
        <time>2016-01-08T08:29:42Z</time>
      </trkpt>
      <trkpt lat="48.50342" lon="-2.60417">
        <ele>29</ele>
        <time>2016-01-08T08:29:45Z</time>
      </trkpt>
      <trkpt lat="48.50338" lon="-2.60411">
        <ele>30</ele>
        <time>2016-01-08T08:29:49Z</time>
      </trkpt>
      <trkpt lat="48.50334" lon="-2.60405">
        <ele>30</ele>
        <time>2016-01-08T08:29:53Z</time>
      </trkpt>
      <trkpt lat="48.5033" lon="-2.604">
        <ele>30</ele>
        <time>2016-01-08T08:29:57Z</time>
      </trkpt>
      <trkpt lat="48.50327" lon="-2.60394">
        <ele>30</ele>
        <time>2016-01-08T08:30:01Z</time>
      </trkpt>
      <trkpt lat="48.50325" lon="-2.60389">
        <ele>30</ele>
        <time>2016-01-08T08:30:04Z</time>
      </trkpt>
      <trkpt lat="48.50323" lon="-2.60382">
        <ele>31</ele>
        <time>2016-01-08T08:30:08Z</time>
      </trkpt>
      <trkpt lat="48.50322" lon="-2.60378">
        <ele>31</ele>
        <time>2016-01-08T08:30:11Z</time>
      </trkpt>
      <trkpt lat="48.50321" lon="-2.60372">
        <ele>31</ele>
        <time>2016-01-08T08:30:14Z</time>
      </trkpt>
      <trkpt lat="48.50319" lon="-2.60367">
        <ele>32</ele>
        <time>2016-01-08T08:30:17Z</time>
      </trkpt>
      <trkpt lat="48.50317" lon="-2.60363">
        <ele>32</ele>
        <time>2016-01-08T08:30:20Z</time>
      </trkpt>
      <trkpt lat="48.50316" lon="-2.60359">
        <ele>34</ele>
        <time>2016-01-08T08:30:39Z</time>
      </trkpt>
      <trkpt lat="48.50314" lon="-2.60357">
        <ele>35</ele>
        <time>2016-01-08T08:30:45Z</time>
      </trkpt>
      <trkpt lat="48.50313" lon="-2.60357">
        <ele>39</ele>
        <time>2016-01-08T08:30:51Z</time>
      </trkpt>
      <trkpt lat="48.50309" lon="-2.60353">
        <ele>40</ele>
        <time>2016-01-08T08:30:55Z</time>
      </trkpt>
      <trkpt lat="48.50306" lon="-2.60351">
        <ele>40</ele>
        <time>2016-01-08T08:30:59Z</time>
      </trkpt>
      <trkpt lat="48.50302" lon="-2.60349">
        <ele>40</ele>
        <time>2016-01-08T08:31:03Z</time>
      </trkpt>
      <trkpt lat="48.50298" lon="-2.60348">
        <ele>40</ele>
        <time>2016-01-08T08:31:07Z</time>
      </trkpt>
      <trkpt lat="48.50294" lon="-2.60347">
        <ele>40</ele>
        <time>2016-01-08T08:31:10Z</time>
      </trkpt>
      <trkpt lat="48.50291" lon="-2.60347">
        <ele>40</ele>
        <time>2016-01-08T08:31:13Z</time>
      </trkpt>
      <trkpt lat="48.50286" lon="-2.60345">
        <ele>40</ele>
        <time>2016-01-08T08:31:17Z</time>
      </trkpt>
      <trkpt lat="48.50282" lon="-2.6034">
        <ele>40</ele>
        <time>2016-01-08T08:31:20Z</time>
      </trkpt>
      <trkpt lat="48.50277" lon="-2.60333">
        <ele>40</ele>
        <time>2016-01-08T08:31:24Z</time>
      </trkpt>
      <trkpt lat="48.50274" lon="-2.60329">
        <ele>40</ele>
        <time>2016-01-08T08:31:27Z</time>
      </trkpt>
      <trkpt lat="48.50271" lon="-2.60324">
        <ele>40</ele>
        <time>2016-01-08T08:31:30Z</time>
      </trkpt>
      <trkpt lat="48.50267" lon="-2.60318">
        <ele>40</ele>
        <time>2016-01-08T08:31:33Z</time>
      </trkpt>
      <trkpt lat="48.50264" lon="-2.60313">
        <ele>40</ele>
        <time>2016-01-08T08:31:36Z</time>
      </trkpt>
      <trkpt lat="48.50262" lon="-2.60307">
        <ele>40</ele>
        <time>2016-01-08T08:31:39Z</time>
      </trkpt>
      <trkpt lat="48.50258" lon="-2.603">
        <ele>40</ele>
        <time>2016-01-08T08:31:43Z</time>
      </trkpt>
      <trkpt lat="48.50256" lon="-2.60293">
        <ele>40</ele>
        <time>2016-01-08T08:31:47Z</time>
      </trkpt>
      <trkpt lat="48.50254" lon="-2.60288">
        <ele>40</ele>
        <time>2016-01-08T08:31:50Z</time>
      </trkpt>
      <trkpt lat="48.50251" lon="-2.60282">
        <ele>40</ele>
        <time>2016-01-08T08:31:53Z</time>
      </trkpt>
      <trkpt lat="48.50248" lon="-2.60277">
        <ele>40</ele>
        <time>2016-01-08T08:31:56Z</time>
      </trkpt>
      <trkpt lat="48.50247" lon="-2.60272">
        <ele>40</ele>
        <time>2016-01-08T08:31:59Z</time>
      </trkpt>
      <trkpt lat="48.50244" lon="-2.60264">
        <ele>40</ele>
        <time>2016-01-08T08:32:03Z</time>
      </trkpt>
      <trkpt lat="48.50241" lon="-2.60258">
        <ele>40</ele>
        <time>2016-01-08T08:32:07Z</time>
      </trkpt>
      <trkpt lat="48.50238" lon="-2.60251">
        <ele>40</ele>
        <time>2016-01-08T08:32:11Z</time>
      </trkpt>
      <trkpt lat="48.50235" lon="-2.60244">
        <ele>40</ele>
        <time>2016-01-08T08:32:15Z</time>
      </trkpt>
      <trkpt lat="48.50233" lon="-2.60236">
        <ele>40</ele>
        <time>2016-01-08T08:32:19Z</time>
      </trkpt>
      <trkpt lat="48.50232" lon="-2.60228">
        <ele>40</ele>
        <time>2016-01-08T08:32:23Z</time>
      </trkpt>
      <trkpt lat="48.50233" lon="-2.60222">
        <ele>40</ele>
        <time>2016-01-08T08:32:27Z</time>
      </trkpt>
      <trkpt lat="48.50233" lon="-2.60215">
        <ele>40</ele>
        <time>2016-01-08T08:32:31Z</time>
      </trkpt>
      <trkpt lat="48.50234" lon="-2.60208">
        <ele>40</ele>
        <time>2016-01-08T08:32:35Z</time>
      </trkpt>
      <trkpt lat="48.50236" lon="-2.60199">
        <ele>40</ele>
        <time>2016-01-08T08:32:40Z</time>
      </trkpt>
      <trkpt lat="48.50237" lon="-2.60191">
        <ele>40</ele>
        <time>2016-01-08T08:32:44Z</time>
      </trkpt>
      <trkpt lat="48.50238" lon="-2.60185">
        <ele>40</ele>
        <time>2016-01-08T08:32:47Z</time>
      </trkpt>
      <trkpt lat="48.50239" lon="-2.60178">
        <ele>40</ele>
        <time>2016-01-08T08:32:51Z</time>
      </trkpt>
      <trkpt lat="48.50241" lon="-2.60171">
        <ele>40</ele>
        <time>2016-01-08T08:32:55Z</time>
      </trkpt>
      <trkpt lat="48.50243" lon="-2.60165">
        <ele>39</ele>
        <time>2016-01-08T08:32:59Z</time>
      </trkpt>
      <trkpt lat="48.50244" lon="-2.60159">
        <ele>38</ele>
        <time>2016-01-08T08:33:02Z</time>
      </trkpt>
      <trkpt lat="48.50245" lon="-2.60155">
        <ele>37</ele>
        <time>2016-01-08T08:33:05Z</time>
      </trkpt>
      <trkpt lat="48.50246" lon="-2.60148">
        <ele>36</ele>
        <time>2016-01-08T08:33:09Z</time>
      </trkpt>
      <trkpt lat="48.50247" lon="-2.60142">
        <ele>35</ele>
        <time>2016-01-08T08:33:13Z</time>
      </trkpt>
      <trkpt lat="48.50247" lon="-2.60137">
        <ele>35</ele>
        <time>2016-01-08T08:33:16Z</time>
      </trkpt>
      <trkpt lat="48.50248" lon="-2.60129">
        <ele>35</ele>
        <time>2016-01-08T08:33:20Z</time>
      </trkpt>
      <trkpt lat="48.50248" lon="-2.60123">
        <ele>35</ele>
        <time>2016-01-08T08:33:24Z</time>
      </trkpt>
      <trkpt lat="48.50247" lon="-2.60115">
        <ele>35</ele>
        <time>2016-01-08T08:33:28Z</time>
      </trkpt>
      <trkpt lat="48.50247" lon="-2.60109">
        <ele>35</ele>
        <time>2016-01-08T08:33:31Z</time>
      </trkpt>
      <trkpt lat="48.50247" lon="-2.60103">
        <ele>35</ele>
        <time>2016-01-08T08:33:35Z</time>
      </trkpt>
      <trkpt lat="48.50247" lon="-2.60096">
        <ele>35</ele>
        <time>2016-01-08T08:33:39Z</time>
      </trkpt>
      <trkpt lat="48.50246" lon="-2.6009">
        <ele>35</ele>
        <time>2016-01-08T08:33:43Z</time>
      </trkpt>
      <trkpt lat="48.50244" lon="-2.60084">
        <ele>35</ele>
        <time>2016-01-08T08:33:46Z</time>
      </trkpt>
      <trkpt lat="48.50241" lon="-2.60076">
        <ele>35</ele>
        <time>2016-01-08T08:33:51Z</time>
      </trkpt>
      <trkpt lat="48.50238" lon="-2.60068">
        <ele>35</ele>
        <time>2016-01-08T08:33:56Z</time>
      </trkpt>
      <trkpt lat="48.50235" lon="-2.60061">
        <ele>35</ele>
        <time>2016-01-08T08:34:00Z</time>
      </trkpt>
      <trkpt lat="48.50234" lon="-2.60055">
        <ele>35</ele>
        <time>2016-01-08T08:34:03Z</time>
      </trkpt>
      <trkpt lat="48.50231" lon="-2.6005">
        <ele>35</ele>
        <time>2016-01-08T08:34:06Z</time>
      </trkpt>
      <trkpt lat="48.5023" lon="-2.60041">
        <ele>35</ele>
        <time>2016-01-08T08:34:10Z</time>
      </trkpt>
      <trkpt lat="48.5023" lon="-2.60035">
        <ele>35</ele>
        <time>2016-01-08T08:34:13Z</time>
      </trkpt>
      <trkpt lat="48.50229" lon="-2.60028">
        <ele>35</ele>
        <time>2016-01-08T08:34:16Z</time>
      </trkpt>
      <trkpt lat="48.5023" lon="-2.6002">
        <ele>35</ele>
        <time>2016-01-08T08:34:20Z</time>
      </trkpt>
      <trkpt lat="48.5023" lon="-2.60014">
        <ele>35</ele>
        <time>2016-01-08T08:34:23Z</time>
      </trkpt>
      <trkpt lat="48.50231" lon="-2.60007">
        <ele>35</ele>
        <time>2016-01-08T08:34:27Z</time>
      </trkpt>
      <trkpt lat="48.50232" lon="-2.6">
        <ele>35</ele>
        <time>2016-01-08T08:34:31Z</time>
      </trkpt>
      <trkpt lat="48.50231" lon="-2.59994">
        <ele>35</ele>
        <time>2016-01-08T08:34:35Z</time>
      </trkpt>
      <trkpt lat="48.50229" lon="-2.59988">
        <ele>35</ele>
        <time>2016-01-08T08:34:39Z</time>
      </trkpt>
      <trkpt lat="48.50228" lon="-2.59981">
        <ele>34</ele>
        <time>2016-01-08T08:34:42Z</time>
      </trkpt>
      <trkpt lat="48.50227" lon="-2.59976">
        <ele>34</ele>
        <time>2016-01-08T08:34:45Z</time>
      </trkpt>
      <trkpt lat="48.50225" lon="-2.5997">
        <ele>34</ele>
        <time>2016-01-08T08:34:48Z</time>
      </trkpt>
      <trkpt lat="48.50223" lon="-2.59965">
        <ele>34</ele>
        <time>2016-01-08T08:34:51Z</time>
      </trkpt>
      <trkpt lat="48.5022" lon="-2.59958">
        <ele>34</ele>
        <time>2016-01-08T08:34:55Z</time>
      </trkpt>
      <trkpt lat="48.50218" lon="-2.59953">
        <ele>34</ele>
        <time>2016-01-08T08:34:58Z</time>
      </trkpt>
      <trkpt lat="48.50216" lon="-2.59948">
        <ele>34</ele>
        <time>2016-01-08T08:35:01Z</time>
      </trkpt>
      <trkpt lat="48.50212" lon="-2.59942">
        <ele>34</ele>
        <time>2016-01-08T08:35:05Z</time>
      </trkpt>
      <trkpt lat="48.50209" lon="-2.59936">
        <ele>34</ele>
        <time>2016-01-08T08:35:09Z</time>
      </trkpt>
      <trkpt lat="48.50206" lon="-2.59928">
        <ele>34</ele>
        <time>2016-01-08T08:35:13Z</time>
      </trkpt>
      <trkpt lat="48.50203" lon="-2.59923">
        <ele>34</ele>
        <time>2016-01-08T08:35:16Z</time>
      </trkpt>
      <trkpt lat="48.502" lon="-2.59918">
        <ele>34</ele>
        <time>2016-01-08T08:35:19Z</time>
      </trkpt>
      <trkpt lat="48.50196" lon="-2.59911">
        <ele>34</ele>
        <time>2016-01-08T08:35:24Z</time>
      </trkpt>
      <trkpt lat="48.50193" lon="-2.59905">
        <ele>34</ele>
        <time>2016-01-08T08:35:28Z</time>
      </trkpt>
      <trkpt lat="48.50189" lon="-2.599">
        <ele>34</ele>
        <time>2016-01-08T08:35:32Z</time>
      </trkpt>
      <trkpt lat="48.50187" lon="-2.59897">
        <ele>34</ele>
        <time>2016-01-08T08:35:35Z</time>
      </trkpt>
      <trkpt lat="48.50184" lon="-2.59892">
        <ele>34</ele>
        <time>2016-01-08T08:35:39Z</time>
      </trkpt>
      <trkpt lat="48.5018" lon="-2.59887">
        <ele>34</ele>
        <time>2016-01-08T08:35:43Z</time>
      </trkpt>
      <trkpt lat="48.50177" lon="-2.59883">
        <ele>34</ele>
        <time>2016-01-08T08:35:46Z</time>
      </trkpt>
      <trkpt lat="48.50174" lon="-2.59877">
        <ele>34</ele>
        <time>2016-01-08T08:35:50Z</time>
      </trkpt>
      <trkpt lat="48.50172" lon="-2.59872">
        <ele>34</ele>
        <time>2016-01-08T08:35:54Z</time>
      </trkpt>
      <trkpt lat="48.50172" lon="-2.59866">
        <ele>34</ele>
        <time>2016-01-08T08:35:57Z</time>
      </trkpt>
      <trkpt lat="48.50172" lon="-2.59857">
        <ele>34</ele>
        <time>2016-01-08T08:36:02Z</time>
      </trkpt>
      <trkpt lat="48.50174" lon="-2.59851">
        <ele>34</ele>
        <time>2016-01-08T08:36:06Z</time>
      </trkpt>
      <trkpt lat="48.50174" lon="-2.59844">
        <ele>34</ele>
        <time>2016-01-08T08:36:10Z</time>
      </trkpt>
      <trkpt lat="48.50177" lon="-2.59838">
        <ele>34</ele>
        <time>2016-01-08T08:36:13Z</time>
      </trkpt>
      <trkpt lat="48.50179" lon="-2.59833">
        <ele>33</ele>
        <time>2016-01-08T08:36:16Z</time>
      </trkpt>
      <trkpt lat="48.50181" lon="-2.59828">
        <ele>33</ele>
        <time>2016-01-08T08:36:19Z</time>
      </trkpt>
      <trkpt lat="48.50183" lon="-2.59824">
        <ele>33</ele>
        <time>2016-01-08T08:36:22Z</time>
      </trkpt>
      <trkpt lat="48.50187" lon="-2.59818">
        <ele>33</ele>
        <time>2016-01-08T08:36:26Z</time>
      </trkpt>
      <trkpt lat="48.50189" lon="-2.59813">
        <ele>33</ele>
        <time>2016-01-08T08:36:30Z</time>
      </trkpt>
      <trkpt lat="48.50192" lon="-2.5981">
        <ele>33</ele>
        <time>2016-01-08T08:36:34Z</time>
      </trkpt>
      <trkpt lat="48.50195" lon="-2.59806">
        <ele>33</ele>
        <time>2016-01-08T08:36:38Z</time>
      </trkpt>
      <trkpt lat="48.50198" lon="-2.59803">
        <ele>33</ele>
        <time>2016-01-08T08:36:41Z</time>
      </trkpt>
      <trkpt lat="48.50202" lon="-2.59797">
        <ele>33</ele>
        <time>2016-01-08T08:36:46Z</time>
      </trkpt>
      <trkpt lat="48.50206" lon="-2.59791">
        <ele>33</ele>
        <time>2016-01-08T08:36:51Z</time>
      </trkpt>
      <trkpt lat="48.50209" lon="-2.59787">
        <ele>33</ele>
        <time>2016-01-08T08:36:56Z</time>
      </trkpt>
      <trkpt lat="48.50213" lon="-2.59783">
        <ele>33</ele>
        <time>2016-01-08T08:37:01Z</time>
      </trkpt>
      <trkpt lat="48.50216" lon="-2.59777">
        <ele>33</ele>
        <time>2016-01-08T08:37:05Z</time>
      </trkpt>
      <trkpt lat="48.50219" lon="-2.59773">
        <ele>33</ele>
        <time>2016-01-08T08:37:09Z</time>
      </trkpt>
      <trkpt lat="48.50222" lon="-2.59768">
        <ele>33</ele>
        <time>2016-01-08T08:37:13Z</time>
      </trkpt>
      <trkpt lat="48.50225" lon="-2.59762">
        <ele>33</ele>
        <time>2016-01-08T08:37:17Z</time>
      </trkpt>
      <trkpt lat="48.50226" lon="-2.59757">
        <ele>33</ele>
        <time>2016-01-08T08:37:20Z</time>
      </trkpt>
      <trkpt lat="48.50228" lon="-2.59751">
        <ele>33</ele>
        <time>2016-01-08T08:37:24Z</time>
      </trkpt>
      <trkpt lat="48.5023" lon="-2.59746">
        <ele>33</ele>
        <time>2016-01-08T08:37:28Z</time>
      </trkpt>
      <trkpt lat="48.50232" lon="-2.5974">
        <ele>33</ele>
        <time>2016-01-08T08:37:31Z</time>
      </trkpt>
      <trkpt lat="48.50234" lon="-2.59736">
        <ele>33</ele>
        <time>2016-01-08T08:37:34Z</time>
      </trkpt>
      <trkpt lat="48.50238" lon="-2.5973">
        <ele>33</ele>
        <time>2016-01-08T08:37:38Z</time>
      </trkpt>
      <trkpt lat="48.50241" lon="-2.59726">
        <ele>33</ele>
        <time>2016-01-08T08:37:41Z</time>
      </trkpt>
      <trkpt lat="48.50245" lon="-2.59722">
        <ele>33</ele>
        <time>2016-01-08T08:37:44Z</time>
      </trkpt>
      <trkpt lat="48.50248" lon="-2.59719">
        <ele>33</ele>
        <time>2016-01-08T08:37:47Z</time>
      </trkpt>
      <trkpt lat="48.50253" lon="-2.59717">
        <ele>33</ele>
        <time>2016-01-08T08:37:50Z</time>
      </trkpt>
      <trkpt lat="48.50259" lon="-2.59715">
        <ele>33</ele>
        <time>2016-01-08T08:37:54Z</time>
      </trkpt>
      <trkpt lat="48.50263" lon="-2.59714">
        <ele>33</ele>
        <time>2016-01-08T08:37:57Z</time>
      </trkpt>
      <trkpt lat="48.50267" lon="-2.59713">
        <ele>33</ele>
        <time>2016-01-08T08:38:00Z</time>
      </trkpt>
      <trkpt lat="48.50271" lon="-2.59712">
        <ele>33</ele>
        <time>2016-01-08T08:38:03Z</time>
      </trkpt>
      <trkpt lat="48.50275" lon="-2.59711">
        <ele>33</ele>
        <time>2016-01-08T08:38:06Z</time>
      </trkpt>
      <trkpt lat="48.50279" lon="-2.5971">
        <ele>33</ele>
        <time>2016-01-08T08:38:09Z</time>
      </trkpt>
      <trkpt lat="48.50283" lon="-2.5971">
        <ele>33</ele>
        <time>2016-01-08T08:38:12Z</time>
      </trkpt>
      <trkpt lat="48.50286" lon="-2.5971">
        <ele>33</ele>
        <time>2016-01-08T08:38:15Z</time>
      </trkpt>
      <trkpt lat="48.50291" lon="-2.5971">
        <ele>33</ele>
        <time>2016-01-08T08:38:19Z</time>
      </trkpt>
      <trkpt lat="48.50295" lon="-2.5971">
        <ele>33</ele>
        <time>2016-01-08T08:38:22Z</time>
      </trkpt>
      <trkpt lat="48.50298" lon="-2.59709">
        <ele>33</ele>
        <time>2016-01-08T08:38:35Z</time>
      </trkpt>
      <trkpt lat="48.50299" lon="-2.59704">
        <ele>33</ele>
        <time>2016-01-08T08:38:39Z</time>
      </trkpt>
      <trkpt lat="48.50298" lon="-2.597">
        <ele>33</ele>
        <time>2016-01-08T08:38:43Z</time>
      </trkpt>
      <trkpt lat="48.50296" lon="-2.59695">
        <ele>33</ele>
        <time>2016-01-08T08:38:46Z</time>
      </trkpt>
      <trkpt lat="48.50292" lon="-2.59686">
        <ele>33</ele>
        <time>2016-01-08T08:38:51Z</time>
      </trkpt>
      <trkpt lat="48.50289" lon="-2.5968">
        <ele>33</ele>
        <time>2016-01-08T08:38:55Z</time>
      </trkpt>
      <trkpt lat="48.50286" lon="-2.59675">
        <ele>33</ele>
        <time>2016-01-08T08:38:58Z</time>
      </trkpt>
      <trkpt lat="48.50284" lon="-2.5967">
        <ele>33</ele>
        <time>2016-01-08T08:39:01Z</time>
      </trkpt>
      <trkpt lat="48.50281" lon="-2.59663">
        <ele>33</ele>
        <time>2016-01-08T08:39:05Z</time>
      </trkpt>
      <trkpt lat="48.50278" lon="-2.59659">
        <ele>33</ele>
        <time>2016-01-08T08:39:10Z</time>
      </trkpt>
      <trkpt lat="48.50275" lon="-2.59653">
        <ele>33</ele>
        <time>2016-01-08T08:39:14Z</time>
      </trkpt>
      <trkpt lat="48.50273" lon="-2.59647">
        <ele>33</ele>
        <time>2016-01-08T08:39:17Z</time>
      </trkpt>
      <trkpt lat="48.50271" lon="-2.59639">
        <ele>33</ele>
        <time>2016-01-08T08:39:21Z</time>
      </trkpt>
      <trkpt lat="48.50271" lon="-2.59632">
        <ele>33</ele>
        <time>2016-01-08T08:39:24Z</time>
      </trkpt>
      <trkpt lat="48.50271" lon="-2.59627">
        <ele>33</ele>
        <time>2016-01-08T08:39:27Z</time>
      </trkpt>
      <trkpt lat="48.50273" lon="-2.59618">
        <ele>33</ele>
        <time>2016-01-08T08:39:31Z</time>
      </trkpt>
      <trkpt lat="48.50274" lon="-2.59612">
        <ele>33</ele>
        <time>2016-01-08T08:39:34Z</time>
      </trkpt>
      <trkpt lat="48.50276" lon="-2.59605">
        <ele>33</ele>
        <time>2016-01-08T08:39:38Z</time>
      </trkpt>
      <trkpt lat="48.50277" lon="-2.596">
        <ele>33</ele>
        <time>2016-01-08T08:39:42Z</time>
      </trkpt>
      <trkpt lat="48.50277" lon="-2.59593">
        <ele>33</ele>
        <time>2016-01-08T08:39:46Z</time>
      </trkpt>
      <trkpt lat="48.50278" lon="-2.59588">
        <ele>33</ele>
        <time>2016-01-08T08:39:49Z</time>
      </trkpt>
      <trkpt lat="48.50277" lon="-2.59581">
        <ele>33</ele>
        <time>2016-01-08T08:39:53Z</time>
      </trkpt>
      <trkpt lat="48.50276" lon="-2.59576">
        <ele>33</ele>
        <time>2016-01-08T08:39:56Z</time>
      </trkpt>
      <trkpt lat="48.50274" lon="-2.59571">
        <ele>33</ele>
        <time>2016-01-08T08:39:59Z</time>
      </trkpt>
      <trkpt lat="48.50273" lon="-2.59564">
        <ele>33</ele>
        <time>2016-01-08T08:40:03Z</time>
      </trkpt>
      <trkpt lat="48.50271" lon="-2.59559">
        <ele>33</ele>
        <time>2016-01-08T08:40:06Z</time>
      </trkpt>
      <trkpt lat="48.5027" lon="-2.59553">
        <ele>33</ele>
        <time>2016-01-08T08:40:09Z</time>
      </trkpt>
      <trkpt lat="48.50268" lon="-2.59546">
        <ele>33</ele>
        <time>2016-01-08T08:40:13Z</time>
      </trkpt>
      <trkpt lat="48.50267" lon="-2.59541">
        <ele>33</ele>
        <time>2016-01-08T08:40:16Z</time>
      </trkpt>
      <trkpt lat="48.50266" lon="-2.59536">
        <ele>33</ele>
        <time>2016-01-08T08:40:20Z</time>
      </trkpt>
      <trkpt lat="48.50267" lon="-2.59532">
        <ele>33</ele>
        <time>2016-01-08T08:40:24Z</time>
      </trkpt>
      <trkpt lat="48.50266" lon="-2.59527">
        <ele>33</ele>
        <time>2016-01-08T08:40:28Z</time>
      </trkpt>
      <trkpt lat="48.50266" lon="-2.59523">
        <ele>33</ele>
        <time>2016-01-08T08:40:31Z</time>
      </trkpt>
      <trkpt lat="48.50265" lon="-2.59516">
        <ele>33</ele>
        <time>2016-01-08T08:40:35Z</time>
      </trkpt>
      <trkpt lat="48.50264" lon="-2.59511">
        <ele>33</ele>
        <time>2016-01-08T08:40:38Z</time>
      </trkpt>
      <trkpt lat="48.50264" lon="-2.59505">
        <ele>33</ele>
        <time>2016-01-08T08:40:41Z</time>
      </trkpt>
      <trkpt lat="48.50263" lon="-2.59498">
        <ele>33</ele>
        <time>2016-01-08T08:40:45Z</time>
      </trkpt>
      <trkpt lat="48.50262" lon="-2.59492">
        <ele>33</ele>
        <time>2016-01-08T08:40:48Z</time>
      </trkpt>
      <trkpt lat="48.50262" lon="-2.59486">
        <ele>33</ele>
        <time>2016-01-08T08:40:51Z</time>
      </trkpt>
      <trkpt lat="48.50262" lon="-2.59478">
        <ele>33</ele>
        <time>2016-01-08T08:40:55Z</time>
      </trkpt>
      <trkpt lat="48.50263" lon="-2.59472">
        <ele>33</ele>
        <time>2016-01-08T08:40:59Z</time>
      </trkpt>
      <trkpt lat="48.50262" lon="-2.59475">
        <ele>33</ele>
        <time>2016-01-08T08:41:04Z</time>
      </trkpt>
      <trkpt lat="48.50261" lon="-2.59481">
        <ele>33</ele>
        <time>2016-01-08T08:41:08Z</time>
      </trkpt>
      <trkpt lat="48.50261" lon="-2.59486">
        <ele>33</ele>
        <time>2016-01-08T08:41:11Z</time>
      </trkpt>
      <trkpt lat="48.50262" lon="-2.59491">
        <ele>33</ele>
        <time>2016-01-08T08:41:14Z</time>
      </trkpt>
      <trkpt lat="48.50262" lon="-2.59499">
        <ele>33</ele>
        <time>2016-01-08T08:41:18Z</time>
      </trkpt>
      <trkpt lat="48.50263" lon="-2.59504">
        <ele>33</ele>
        <time>2016-01-08T08:41:21Z</time>
      </trkpt>
      <trkpt lat="48.50263" lon="-2.5951">
        <ele>33</ele>
        <time>2016-01-08T08:41:24Z</time>
      </trkpt>
      <trkpt lat="48.50264" lon="-2.59517">
        <ele>33</ele>
        <time>2016-01-08T08:41:28Z</time>
      </trkpt>
      <trkpt lat="48.50264" lon="-2.59523">
        <ele>33</ele>
        <time>2016-01-08T08:41:31Z</time>
      </trkpt>
      <trkpt lat="48.50264" lon="-2.59528">
        <ele>33</ele>
        <time>2016-01-08T08:41:34Z</time>
      </trkpt>
      <trkpt lat="48.50264" lon="-2.59535">
        <ele>33</ele>
        <time>2016-01-08T08:41:38Z</time>
      </trkpt>
      <trkpt lat="48.50263" lon="-2.59536">
        <ele>33</ele>
        <time>2016-01-08T08:41:42Z</time>
      </trkpt>
      <trkpt lat="48.50261" lon="-2.59534">
        <ele>33</ele>
        <time>2016-01-08T08:41:50Z</time>
      </trkpt>
      <trkpt lat="48.5026" lon="-2.5953">
        <ele>33</ele>
        <time>2016-01-08T08:41:54Z</time>
      </trkpt>
      <trkpt lat="48.50257" lon="-2.59526">
        <ele>33</ele>
        <time>2016-01-08T08:41:59Z</time>
      </trkpt>
      <trkpt lat="48.50255" lon="-2.59521">
        <ele>33</ele>
        <time>2016-01-08T08:42:03Z</time>
      </trkpt>
      <trkpt lat="48.50253" lon="-2.59517">
        <ele>33</ele>
        <time>2016-01-08T08:42:07Z</time>
      </trkpt>
      <trkpt lat="48.50251" lon="-2.59514">
        <ele>33</ele>
        <time>2016-01-08T08:42:10Z</time>
      </trkpt>
      <trkpt lat="48.50248" lon="-2.59507">
        <ele>33</ele>
        <time>2016-01-08T08:42:14Z</time>
      </trkpt>
      <trkpt lat="48.50245" lon="-2.59501">
        <ele>33</ele>
        <time>2016-01-08T08:42:18Z</time>
      </trkpt>
      <trkpt lat="48.50242" lon="-2.59496">
        <ele>33</ele>
        <time>2016-01-08T08:42:21Z</time>
      </trkpt>
      <trkpt lat="48.5024" lon="-2.59491">
        <ele>33</ele>
        <time>2016-01-08T08:42:24Z</time>
      </trkpt>
      <trkpt lat="48.50237" lon="-2.59485">
        <ele>33</ele>
        <time>2016-01-08T08:42:28Z</time>
      </trkpt>
      <trkpt lat="48.50234" lon="-2.59478">
        <ele>33</ele>
        <time>2016-01-08T08:42:32Z</time>
      </trkpt>
      <trkpt lat="48.50232" lon="-2.59473">
        <ele>33</ele>
        <time>2016-01-08T08:42:36Z</time>
      </trkpt>
      <trkpt lat="48.5023" lon="-2.59467">
        <ele>33</ele>
        <time>2016-01-08T08:42:40Z</time>
      </trkpt>
      <trkpt lat="48.50227" lon="-2.59462">
        <ele>33</ele>
        <time>2016-01-08T08:42:43Z</time>
      </trkpt>
      <trkpt lat="48.50225" lon="-2.59456">
        <ele>34</ele>
        <time>2016-01-08T08:42:47Z</time>
      </trkpt>
      <trkpt lat="48.50222" lon="-2.59451">
        <ele>35</ele>
        <time>2016-01-08T08:42:51Z</time>
      </trkpt>
      <trkpt lat="48.50219" lon="-2.59445">
        <ele>36</ele>
        <time>2016-01-08T08:42:54Z</time>
      </trkpt>
      <trkpt lat="48.50216" lon="-2.5944">
        <ele>37</ele>
        <time>2016-01-08T08:42:58Z</time>
      </trkpt>
      <trkpt lat="48.50212" lon="-2.59439">
        <ele>38</ele>
        <time>2016-01-08T08:43:01Z</time>
      </trkpt>
      <trkpt lat="48.50209" lon="-2.59439">
        <ele>39</ele>
        <time>2016-01-08T08:43:04Z</time>
      </trkpt>
      <trkpt lat="48.50205" lon="-2.59439">
        <ele>39</ele>
        <time>2016-01-08T08:43:07Z</time>
      </trkpt>
      <trkpt lat="48.50201" lon="-2.5944">
        <ele>39</ele>
        <time>2016-01-08T08:43:10Z</time>
      </trkpt>
      <trkpt lat="48.50198" lon="-2.59442">
        <ele>39</ele>
        <time>2016-01-08T08:43:13Z</time>
      </trkpt>
      <trkpt lat="48.50194" lon="-2.59445">
        <ele>39</ele>
        <time>2016-01-08T08:43:16Z</time>
      </trkpt>
      <trkpt lat="48.5019" lon="-2.59447">
        <ele>40</ele>
        <time>2016-01-08T08:43:19Z</time>
      </trkpt>
      <trkpt lat="48.50187" lon="-2.5945">
        <ele>40</ele>
        <time>2016-01-08T08:43:22Z</time>
      </trkpt>
      <trkpt lat="48.50183" lon="-2.59452">
        <ele>40</ele>
        <time>2016-01-08T08:43:25Z</time>
      </trkpt>
      <trkpt lat="48.50179" lon="-2.59454">
        <ele>40</ele>
        <time>2016-01-08T08:43:28Z</time>
      </trkpt>
      <trkpt lat="48.50175" lon="-2.59456">
        <ele>40</ele>
        <time>2016-01-08T08:43:31Z</time>
      </trkpt>
      <trkpt lat="48.50171" lon="-2.59459">
        <ele>40</ele>
        <time>2016-01-08T08:43:34Z</time>
      </trkpt>
      <trkpt lat="48.50167" lon="-2.59461">
        <ele>40</ele>
        <time>2016-01-08T08:43:37Z</time>
      </trkpt>
      <trkpt lat="48.50164" lon="-2.59463">
        <ele>40</ele>
        <time>2016-01-08T08:43:40Z</time>
      </trkpt>
      <trkpt lat="48.5016" lon="-2.59465">
        <ele>40</ele>
        <time>2016-01-08T08:43:43Z</time>
      </trkpt>
      <trkpt lat="48.50156" lon="-2.59467">
        <ele>40</ele>
        <time>2016-01-08T08:43:46Z</time>
      </trkpt>
      <trkpt lat="48.50152" lon="-2.59469">
        <ele>41</ele>
        <time>2016-01-08T08:43:49Z</time>
      </trkpt>
      <trkpt lat="48.50148" lon="-2.59471">
        <ele>41</ele>
        <time>2016-01-08T08:43:52Z</time>
      </trkpt>
      <trkpt lat="48.50144" lon="-2.59473">
        <ele>41</ele>
        <time>2016-01-08T08:43:55Z</time>
      </trkpt>
      <trkpt lat="48.5014" lon="-2.59474">
        <ele>41</ele>
        <time>2016-01-08T08:43:58Z</time>
      </trkpt>
      <trkpt lat="48.50136" lon="-2.59476">
        <ele>41</ele>
        <time>2016-01-08T08:44:01Z</time>
      </trkpt>
      <trkpt lat="48.50133" lon="-2.59477">
        <ele>41</ele>
        <time>2016-01-08T08:44:04Z</time>
      </trkpt>
      <trkpt lat="48.50129" lon="-2.59479">
        <ele>41</ele>
        <time>2016-01-08T08:44:07Z</time>
      </trkpt>
      <trkpt lat="48.50125" lon="-2.59482">
        <ele>41</ele>
        <time>2016-01-08T08:44:10Z</time>
      </trkpt>
      <trkpt lat="48.50121" lon="-2.59483">
        <ele>41</ele>
        <time>2016-01-08T08:44:13Z</time>
      </trkpt>
      <trkpt lat="48.50117" lon="-2.59485">
        <ele>41</ele>
        <time>2016-01-08T08:44:16Z</time>
      </trkpt>
      <trkpt lat="48.50113" lon="-2.59487">
        <ele>41</ele>
        <time>2016-01-08T08:44:19Z</time>
      </trkpt>
      <trkpt lat="48.50108" lon="-2.5949">
        <ele>41</ele>
        <time>2016-01-08T08:44:22Z</time>
      </trkpt>
      <trkpt lat="48.50104" lon="-2.59492">
        <ele>42</ele>
        <time>2016-01-08T08:44:25Z</time>
      </trkpt>
      <trkpt lat="48.50101" lon="-2.59495">
        <ele>43</ele>
        <time>2016-01-08T08:44:28Z</time>
      </trkpt>
      <trkpt lat="48.50096" lon="-2.59499">
        <ele>43</ele>
        <time>2016-01-08T08:44:32Z</time>
      </trkpt>
      <trkpt lat="48.50093" lon="-2.59502">
        <ele>43</ele>
        <time>2016-01-08T08:44:35Z</time>
      </trkpt>
      <trkpt lat="48.50088" lon="-2.59507">
        <ele>43</ele>
        <time>2016-01-08T08:44:39Z</time>
      </trkpt>
      <trkpt lat="48.50084" lon="-2.59511">
        <ele>43</ele>
        <time>2016-01-08T08:44:43Z</time>
      </trkpt>
      <trkpt lat="48.50081" lon="-2.59516">
        <ele>43</ele>
        <time>2016-01-08T08:44:46Z</time>
      </trkpt>
      <trkpt lat="48.50077" lon="-2.59522">
        <ele>43</ele>
        <time>2016-01-08T08:44:50Z</time>
      </trkpt>
      <trkpt lat="48.50074" lon="-2.59526">
        <ele>43</ele>
        <time>2016-01-08T08:44:53Z</time>
      </trkpt>
      <trkpt lat="48.5007" lon="-2.59531">
        <ele>43</ele>
        <time>2016-01-08T08:44:57Z</time>
      </trkpt>
      <trkpt lat="48.50067" lon="-2.59536">
        <ele>43</ele>
        <time>2016-01-08T08:45:00Z</time>
      </trkpt>
      <trkpt lat="48.50063" lon="-2.59541">
        <ele>43</ele>
        <time>2016-01-08T08:45:04Z</time>
      </trkpt>
      <trkpt lat="48.5006" lon="-2.59546">
        <ele>43</ele>
        <time>2016-01-08T08:45:08Z</time>
      </trkpt>
      <trkpt lat="48.50056" lon="-2.59552">
        <ele>43</ele>
        <time>2016-01-08T08:45:12Z</time>
      </trkpt>
      <trkpt lat="48.50052" lon="-2.59557">
        <ele>43</ele>
        <time>2016-01-08T08:45:16Z</time>
      </trkpt>
      <trkpt lat="48.50048" lon="-2.59561">
        <ele>43</ele>
        <time>2016-01-08T08:45:20Z</time>
      </trkpt>
      <trkpt lat="48.50045" lon="-2.59565">
        <ele>43</ele>
        <time>2016-01-08T08:45:23Z</time>
      </trkpt>
      <trkpt lat="48.50041" lon="-2.59569">
        <ele>43</ele>
        <time>2016-01-08T08:45:26Z</time>
      </trkpt>
      <trkpt lat="48.50038" lon="-2.59572">
        <ele>43</ele>
        <time>2016-01-08T08:45:29Z</time>
      </trkpt>
      <trkpt lat="48.50034" lon="-2.59576">
        <ele>43</ele>
        <time>2016-01-08T08:45:32Z</time>
      </trkpt>
      <trkpt lat="48.50031" lon="-2.59579">
        <ele>43</ele>
        <time>2016-01-08T08:45:35Z</time>
      </trkpt>
      <trkpt lat="48.50028" lon="-2.59583">
        <ele>43</ele>
        <time>2016-01-08T08:45:38Z</time>
      </trkpt>
      <trkpt lat="48.50024" lon="-2.59588">
        <ele>43</ele>
        <time>2016-01-08T08:45:41Z</time>
      </trkpt>
      <trkpt lat="48.50022" lon="-2.59593">
        <ele>43</ele>
        <time>2016-01-08T08:45:44Z</time>
      </trkpt>
      <trkpt lat="48.50019" lon="-2.59597">
        <ele>43</ele>
        <time>2016-01-08T08:45:47Z</time>
      </trkpt>
      <trkpt lat="48.50016" lon="-2.59601">
        <ele>43</ele>
        <time>2016-01-08T08:45:50Z</time>
      </trkpt>
      <trkpt lat="48.50012" lon="-2.59607">
        <ele>43</ele>
        <time>2016-01-08T08:45:54Z</time>
      </trkpt>
      <trkpt lat="48.50009" lon="-2.59613">
        <ele>43</ele>
        <time>2016-01-08T08:45:58Z</time>
      </trkpt>
      <trkpt lat="48.50006" lon="-2.59618">
        <ele>43</ele>
        <time>2016-01-08T08:46:01Z</time>
      </trkpt>
      <trkpt lat="48.50003" lon="-2.59624">
        <ele>43</ele>
        <time>2016-01-08T08:46:05Z</time>
      </trkpt>
      <trkpt lat="48.5" lon="-2.59628">
        <ele>43</ele>
        <time>2016-01-08T08:46:09Z</time>
      </trkpt>
      <trkpt lat="48.49997" lon="-2.59633">
        <ele>43</ele>
        <time>2016-01-08T08:46:12Z</time>
      </trkpt>
      <trkpt lat="48.49995" lon="-2.59638">
        <ele>43</ele>
        <time>2016-01-08T08:46:15Z</time>
      </trkpt>
      <trkpt lat="48.49993" lon="-2.59642">
        <ele>43</ele>
        <time>2016-01-08T08:46:18Z</time>
      </trkpt>
      <trkpt lat="48.4999" lon="-2.59648">
        <ele>43</ele>
        <time>2016-01-08T08:46:22Z</time>
      </trkpt>
      <trkpt lat="48.49987" lon="-2.59652">
        <ele>43</ele>
        <time>2016-01-08T08:46:25Z</time>
      </trkpt>
      <trkpt lat="48.49985" lon="-2.59657">
        <ele>43</ele>
        <time>2016-01-08T08:46:28Z</time>
      </trkpt>
      <trkpt lat="48.49982" lon="-2.59662">
        <ele>43</ele>
        <time>2016-01-08T08:46:31Z</time>
      </trkpt>
      <trkpt lat="48.49979" lon="-2.59668">
        <ele>44</ele>
        <time>2016-01-08T08:46:35Z</time>
      </trkpt>
      <trkpt lat="48.49976" lon="-2.59673">
        <ele>44</ele>
        <time>2016-01-08T08:46:38Z</time>
      </trkpt>
      <trkpt lat="48.49974" lon="-2.59678">
        <ele>44</ele>
        <time>2016-01-08T08:46:41Z</time>
      </trkpt>
      <trkpt lat="48.49972" lon="-2.59683">
        <ele>44</ele>
        <time>2016-01-08T08:46:44Z</time>
      </trkpt>
      <trkpt lat="48.4997" lon="-2.59689">
        <ele>45</ele>
        <time>2016-01-08T08:46:47Z</time>
      </trkpt>
      <trkpt lat="48.49968" lon="-2.59694">
        <ele>45</ele>
        <time>2016-01-08T08:46:50Z</time>
      </trkpt>
      <trkpt lat="48.49966" lon="-2.59699">
        <ele>45</ele>
        <time>2016-01-08T08:46:53Z</time>
      </trkpt>
      <trkpt lat="48.49964" lon="-2.59703">
        <ele>45</ele>
        <time>2016-01-08T08:46:56Z</time>
      </trkpt>
      <trkpt lat="48.49961" lon="-2.59709">
        <ele>45</ele>
        <time>2016-01-08T08:47:00Z</time>
      </trkpt>
      <trkpt lat="48.49958" lon="-2.59716">
        <ele>46</ele>
        <time>2016-01-08T08:47:04Z</time>
      </trkpt>
      <trkpt lat="48.49956" lon="-2.5972">
        <ele>46</ele>
        <time>2016-01-08T08:47:07Z</time>
      </trkpt>
      <trkpt lat="48.49953" lon="-2.59725">
        <ele>46</ele>
        <time>2016-01-08T08:47:10Z</time>
      </trkpt>
      <trkpt lat="48.49949" lon="-2.59728">
        <ele>46</ele>
        <time>2016-01-08T08:47:13Z</time>
      </trkpt>
      <trkpt lat="48.49945" lon="-2.59729">
        <ele>46</ele>
        <time>2016-01-08T08:47:16Z</time>
      </trkpt>
      <trkpt lat="48.4994" lon="-2.59728">
        <ele>46</ele>
        <time>2016-01-08T08:47:19Z</time>
      </trkpt>
      <trkpt lat="48.49936" lon="-2.59727">
        <ele>46</ele>
        <time>2016-01-08T08:47:22Z</time>
      </trkpt>
      <trkpt lat="48.49933" lon="-2.59724">
        <ele>46</ele>
        <time>2016-01-08T08:47:25Z</time>
      </trkpt>
      <trkpt lat="48.49929" lon="-2.59723">
        <ele>46</ele>
        <time>2016-01-08T08:47:28Z</time>
      </trkpt>
      <trkpt lat="48.49925" lon="-2.59721">
        <ele>46</ele>
        <time>2016-01-08T08:47:31Z</time>
      </trkpt>
      <trkpt lat="48.49922" lon="-2.59719">
        <ele>46</ele>
        <time>2016-01-08T08:47:34Z</time>
      </trkpt>
      <trkpt lat="48.49918" lon="-2.59718">
        <ele>46</ele>
        <time>2016-01-08T08:47:37Z</time>
      </trkpt>
      <trkpt lat="48.49914" lon="-2.59716">
        <ele>46</ele>
        <time>2016-01-08T08:47:40Z</time>
      </trkpt>
      <trkpt lat="48.4991" lon="-2.59714">
        <ele>46</ele>
        <time>2016-01-08T08:47:43Z</time>
      </trkpt>
      <trkpt lat="48.49906" lon="-2.59713">
        <ele>46</ele>
        <time>2016-01-08T08:47:46Z</time>
      </trkpt>
      <trkpt lat="48.49902" lon="-2.59711">
        <ele>46</ele>
        <time>2016-01-08T08:47:49Z</time>
      </trkpt>
      <trkpt lat="48.49898" lon="-2.59709">
        <ele>46</ele>
        <time>2016-01-08T08:47:52Z</time>
      </trkpt>
      <trkpt lat="48.49895" lon="-2.59708">
        <ele>46</ele>
        <time>2016-01-08T08:47:55Z</time>
      </trkpt>
      <trkpt lat="48.49891" lon="-2.59706">
        <ele>46</ele>
        <time>2016-01-08T08:47:58Z</time>
      </trkpt>
      <trkpt lat="48.49887" lon="-2.59705">
        <ele>46</ele>
        <time>2016-01-08T08:48:01Z</time>
      </trkpt>
      <trkpt lat="48.49884" lon="-2.59703">
        <ele>46</ele>
        <time>2016-01-08T08:48:04Z</time>
      </trkpt>
      <trkpt lat="48.4988" lon="-2.59701">
        <ele>46</ele>
        <time>2016-01-08T08:48:07Z</time>
      </trkpt>
      <trkpt lat="48.49876" lon="-2.597">
        <ele>46</ele>
        <time>2016-01-08T08:48:10Z</time>
      </trkpt>
      <trkpt lat="48.49872" lon="-2.59698">
        <ele>46</ele>
        <time>2016-01-08T08:48:13Z</time>
      </trkpt>
      <trkpt lat="48.49868" lon="-2.59697">
        <ele>46</ele>
        <time>2016-01-08T08:48:16Z</time>
      </trkpt>
      <trkpt lat="48.49864" lon="-2.59695">
        <ele>46</ele>
        <time>2016-01-08T08:48:19Z</time>
      </trkpt>
      <trkpt lat="48.4986" lon="-2.59694">
        <ele>46</ele>
        <time>2016-01-08T08:48:22Z</time>
      </trkpt>
      <trkpt lat="48.49856" lon="-2.59692">
        <ele>46</ele>
        <time>2016-01-08T08:48:25Z</time>
      </trkpt>
      <trkpt lat="48.49853" lon="-2.59691">
        <ele>46</ele>
        <time>2016-01-08T08:48:28Z</time>
      </trkpt>
      <trkpt lat="48.49849" lon="-2.5969">
        <ele>46</ele>
        <time>2016-01-08T08:48:32Z</time>
      </trkpt>
      <trkpt lat="48.49845" lon="-2.59687">
        <ele>46</ele>
        <time>2016-01-08T08:48:35Z</time>
      </trkpt>
      <trkpt lat="48.49841" lon="-2.59685">
        <ele>46</ele>
        <time>2016-01-08T08:48:38Z</time>
      </trkpt>
      <trkpt lat="48.49837" lon="-2.59684">
        <ele>46</ele>
        <time>2016-01-08T08:48:41Z</time>
      </trkpt>
      <trkpt lat="48.49833" lon="-2.59682">
        <ele>46</ele>
        <time>2016-01-08T08:48:44Z</time>
      </trkpt>
      <trkpt lat="48.49829" lon="-2.59679">
        <ele>46</ele>
        <time>2016-01-08T08:48:47Z</time>
      </trkpt>
      <trkpt lat="48.49825" lon="-2.59678">
        <ele>46</ele>
        <time>2016-01-08T08:48:50Z</time>
      </trkpt>
      <trkpt lat="48.49821" lon="-2.59676">
        <ele>46</ele>
        <time>2016-01-08T08:48:53Z</time>
      </trkpt>
      <trkpt lat="48.49818" lon="-2.59674">
        <ele>46</ele>
        <time>2016-01-08T08:48:56Z</time>
      </trkpt>
      <trkpt lat="48.49814" lon="-2.59672">
        <ele>46</ele>
        <time>2016-01-08T08:48:59Z</time>
      </trkpt>
      <trkpt lat="48.4981" lon="-2.5967">
        <ele>46</ele>
        <time>2016-01-08T08:49:03Z</time>
      </trkpt>
      <trkpt lat="48.49807" lon="-2.59668">
        <ele>46</ele>
        <time>2016-01-08T08:49:06Z</time>
      </trkpt>
      <trkpt lat="48.49804" lon="-2.59667">
        <ele>46</ele>
        <time>2016-01-08T08:49:09Z</time>
      </trkpt>
      <trkpt lat="48.498" lon="-2.59666">
        <ele>46</ele>
        <time>2016-01-08T08:49:13Z</time>
      </trkpt>
      <trkpt lat="48.49797" lon="-2.59667">
        <ele>46</ele>
        <time>2016-01-08T08:49:16Z</time>
      </trkpt>
      <trkpt lat="48.49793" lon="-2.59668">
        <ele>46</ele>
        <time>2016-01-08T08:49:19Z</time>
      </trkpt>
      <trkpt lat="48.49789" lon="-2.59671">
        <ele>46</ele>
        <time>2016-01-08T08:49:22Z</time>
      </trkpt>
      <trkpt lat="48.49785" lon="-2.59673">
        <ele>46</ele>
        <time>2016-01-08T08:49:26Z</time>
      </trkpt>
      <trkpt lat="48.49781" lon="-2.59675">
        <ele>46</ele>
        <time>2016-01-08T08:49:29Z</time>
      </trkpt>
      <trkpt lat="48.49777" lon="-2.59676">
        <ele>46</ele>
        <time>2016-01-08T08:49:32Z</time>
      </trkpt>
      <trkpt lat="48.49773" lon="-2.59678">
        <ele>46</ele>
        <time>2016-01-08T08:49:35Z</time>
      </trkpt>
      <trkpt lat="48.49769" lon="-2.5968">
        <ele>46</ele>
        <time>2016-01-08T08:49:38Z</time>
      </trkpt>
      <trkpt lat="48.49765" lon="-2.59682">
        <ele>46</ele>
        <time>2016-01-08T08:49:41Z</time>
      </trkpt>
      <trkpt lat="48.49761" lon="-2.59683">
        <ele>46</ele>
        <time>2016-01-08T08:49:44Z</time>
      </trkpt>
      <trkpt lat="48.49757" lon="-2.59685">
        <ele>46</ele>
        <time>2016-01-08T08:49:47Z</time>
      </trkpt>
      <trkpt lat="48.49753" lon="-2.59686">
        <ele>46</ele>
        <time>2016-01-08T08:49:50Z</time>
      </trkpt>
      <trkpt lat="48.49749" lon="-2.59688">
        <ele>46</ele>
        <time>2016-01-08T08:49:53Z</time>
      </trkpt>
      <trkpt lat="48.49745" lon="-2.59689">
        <ele>46</ele>
        <time>2016-01-08T08:49:56Z</time>
      </trkpt>
      <trkpt lat="48.49741" lon="-2.59691">
        <ele>46</ele>
        <time>2016-01-08T08:49:59Z</time>
      </trkpt>
      <trkpt lat="48.49737" lon="-2.59692">
        <ele>46</ele>
        <time>2016-01-08T08:50:02Z</time>
      </trkpt>
      <trkpt lat="48.49733" lon="-2.59693">
        <ele>46</ele>
        <time>2016-01-08T08:50:05Z</time>
      </trkpt>
      <trkpt lat="48.49729" lon="-2.59694">
        <ele>46</ele>
        <time>2016-01-08T08:50:08Z</time>
      </trkpt>
      <trkpt lat="48.49726" lon="-2.59695">
        <ele>46</ele>
        <time>2016-01-08T08:50:11Z</time>
      </trkpt>
      <trkpt lat="48.49722" lon="-2.59697">
        <ele>46</ele>
        <time>2016-01-08T08:50:14Z</time>
      </trkpt>
      <trkpt lat="48.49718" lon="-2.59699">
        <ele>46</ele>
        <time>2016-01-08T08:50:17Z</time>
      </trkpt>
      <trkpt lat="48.49714" lon="-2.597">
        <ele>46</ele>
        <time>2016-01-08T08:50:20Z</time>
      </trkpt>
      <trkpt lat="48.49711" lon="-2.59701">
        <ele>46</ele>
        <time>2016-01-08T08:50:23Z</time>
      </trkpt>
      <trkpt lat="48.49707" lon="-2.59703">
        <ele>46</ele>
        <time>2016-01-08T08:50:26Z</time>
      </trkpt>
      <trkpt lat="48.49704" lon="-2.59703">
        <ele>46</ele>
        <time>2016-01-08T08:50:29Z</time>
      </trkpt>
      <trkpt lat="48.497" lon="-2.59703">
        <ele>46</ele>
        <time>2016-01-08T08:50:33Z</time>
      </trkpt>
      <trkpt lat="48.49696" lon="-2.59705">
        <ele>46</ele>
        <time>2016-01-08T08:50:37Z</time>
      </trkpt>
      <trkpt lat="48.49693" lon="-2.59707">
        <ele>46</ele>
        <time>2016-01-08T08:50:40Z</time>
      </trkpt>
      <trkpt lat="48.49689" lon="-2.59709">
        <ele>46</ele>
        <time>2016-01-08T08:50:44Z</time>
      </trkpt>
      <trkpt lat="48.49686" lon="-2.59711">
        <ele>47</ele>
        <time>2016-01-08T08:50:47Z</time>
      </trkpt>
      <trkpt lat="48.49682" lon="-2.59713">
        <ele>47</ele>
        <time>2016-01-08T08:50:50Z</time>
      </trkpt>
      <trkpt lat="48.49677" lon="-2.59715">
        <ele>47</ele>
        <time>2016-01-08T08:50:54Z</time>
      </trkpt>
      <trkpt lat="48.49673" lon="-2.59718">
        <ele>47</ele>
        <time>2016-01-08T08:50:58Z</time>
      </trkpt>
      <trkpt lat="48.4967" lon="-2.5972">
        <ele>48</ele>
        <time>2016-01-08T08:51:01Z</time>
      </trkpt>
      <trkpt lat="48.49666" lon="-2.59722">
        <ele>48</ele>
        <time>2016-01-08T08:51:04Z</time>
      </trkpt>
      <trkpt lat="48.49663" lon="-2.59723">
        <ele>48</ele>
        <time>2016-01-08T08:51:09Z</time>
      </trkpt>
      <trkpt lat="48.49662" lon="-2.59724">
        <ele>48</ele>
        <time>2016-01-08T08:51:13Z</time>
      </trkpt>
      <trkpt lat="48.49658" lon="-2.59727">
        <ele>48</ele>
        <time>2016-01-08T08:51:16Z</time>
      </trkpt>
      <trkpt lat="48.49654" lon="-2.59731">
        <ele>48</ele>
        <time>2016-01-08T08:51:19Z</time>
      </trkpt>
      <trkpt lat="48.49651" lon="-2.59734">
        <ele>48</ele>
        <time>2016-01-08T08:51:22Z</time>
      </trkpt>
      <trkpt lat="48.49647" lon="-2.59736">
        <ele>48</ele>
        <time>2016-01-08T08:51:25Z</time>
      </trkpt>
      <trkpt lat="48.49643" lon="-2.5974">
        <ele>48</ele>
        <time>2016-01-08T08:51:29Z</time>
      </trkpt>
      <trkpt lat="48.49639" lon="-2.59742">
        <ele>48</ele>
        <time>2016-01-08T08:51:32Z</time>
      </trkpt>
      <trkpt lat="48.49636" lon="-2.59745">
        <ele>48</ele>
        <time>2016-01-08T08:51:35Z</time>
      </trkpt>
      <trkpt lat="48.49632" lon="-2.59747">
        <ele>48</ele>
        <time>2016-01-08T08:51:38Z</time>
      </trkpt>
      <trkpt lat="48.49628" lon="-2.5975">
        <ele>48</ele>
        <time>2016-01-08T08:51:41Z</time>
      </trkpt>
      <trkpt lat="48.49625" lon="-2.59752">
        <ele>48</ele>
        <time>2016-01-08T08:51:44Z</time>
      </trkpt>
      <trkpt lat="48.49621" lon="-2.59755">
        <ele>48</ele>
        <time>2016-01-08T08:51:47Z</time>
      </trkpt>
      <trkpt lat="48.49617" lon="-2.59758">
        <ele>48</ele>
        <time>2016-01-08T08:51:50Z</time>
      </trkpt>
      <trkpt lat="48.49612" lon="-2.5976">
        <ele>48</ele>
        <time>2016-01-08T08:51:53Z</time>
      </trkpt>
      <trkpt lat="48.49609" lon="-2.59762">
        <ele>48</ele>
        <time>2016-01-08T08:51:56Z</time>
      </trkpt>
      <trkpt lat="48.49604" lon="-2.59763">
        <ele>48</ele>
        <time>2016-01-08T08:51:59Z</time>
      </trkpt>
      <trkpt lat="48.49601" lon="-2.59765">
        <ele>48</ele>
        <time>2016-01-08T08:52:02Z</time>
      </trkpt>
      <trkpt lat="48.49597" lon="-2.59766">
        <ele>48</ele>
        <time>2016-01-08T08:52:05Z</time>
      </trkpt>
      <trkpt lat="48.49593" lon="-2.59767">
        <ele>48</ele>
        <time>2016-01-08T08:52:08Z</time>
      </trkpt>
      <trkpt lat="48.49588" lon="-2.59766">
        <ele>48</ele>
        <time>2016-01-08T08:52:11Z</time>
      </trkpt>
      <trkpt lat="48.49587" lon="-2.59767">
        <ele>48</ele>
        <time>2016-01-08T08:52:14Z</time>
      </trkpt>
      <trkpt lat="48.49583" lon="-2.59768">
        <ele>48</ele>
        <time>2016-01-08T08:52:17Z</time>
      </trkpt>
      <trkpt lat="48.49579" lon="-2.59768">
        <ele>48</ele>
        <time>2016-01-08T08:52:20Z</time>
      </trkpt>
      <trkpt lat="48.49575" lon="-2.59769">
        <ele>48</ele>
        <time>2016-01-08T08:52:23Z</time>
      </trkpt>
      <trkpt lat="48.4957" lon="-2.5977">
        <ele>49</ele>
        <time>2016-01-08T08:52:26Z</time>
      </trkpt>
      <trkpt lat="48.49567" lon="-2.59771">
        <ele>49</ele>
        <time>2016-01-08T08:52:29Z</time>
      </trkpt>
      <trkpt lat="48.49563" lon="-2.59772">
        <ele>49</ele>
        <time>2016-01-08T08:52:32Z</time>
      </trkpt>
      <trkpt lat="48.49559" lon="-2.59773">
        <ele>49</ele>
        <time>2016-01-08T08:52:35Z</time>
      </trkpt>
      <trkpt lat="48.49555" lon="-2.59774">
        <ele>49</ele>
        <time>2016-01-08T08:52:38Z</time>
      </trkpt>
      <trkpt lat="48.49552" lon="-2.59774">
        <ele>49</ele>
        <time>2016-01-08T08:52:41Z</time>
      </trkpt>
      <trkpt lat="48.49548" lon="-2.59775">
        <ele>49</ele>
        <time>2016-01-08T08:52:44Z</time>
      </trkpt>
      <trkpt lat="48.49544" lon="-2.59776">
        <ele>49</ele>
        <time>2016-01-08T08:52:47Z</time>
      </trkpt>
      <trkpt lat="48.4954" lon="-2.59777">
        <ele>49</ele>
        <time>2016-01-08T08:52:50Z</time>
      </trkpt>
      <trkpt lat="48.49537" lon="-2.59779">
        <ele>49</ele>
        <time>2016-01-08T08:52:53Z</time>
      </trkpt>
      <trkpt lat="48.49533" lon="-2.59782">
        <ele>49</ele>
        <time>2016-01-08T08:52:56Z</time>
      </trkpt>
      <trkpt lat="48.4953" lon="-2.59785">
        <ele>49</ele>
        <time>2016-01-08T08:52:59Z</time>
      </trkpt>
      <trkpt lat="48.49527" lon="-2.5979">
        <ele>49</ele>
        <time>2016-01-08T08:53:03Z</time>
      </trkpt>
      <trkpt lat="48.49525" lon="-2.59794">
        <ele>49</ele>
        <time>2016-01-08T08:53:07Z</time>
      </trkpt>
      <trkpt lat="48.49523" lon="-2.59799">
        <ele>49</ele>
        <time>2016-01-08T08:53:11Z</time>
      </trkpt>
      <trkpt lat="48.49521" lon="-2.59804">
        <ele>49</ele>
        <time>2016-01-08T08:53:15Z</time>
      </trkpt>
      <trkpt lat="48.4952" lon="-2.59809">
        <ele>49</ele>
        <time>2016-01-08T08:53:18Z</time>
      </trkpt>
      <trkpt lat="48.49519" lon="-2.59815">
        <ele>49</ele>
        <time>2016-01-08T08:53:21Z</time>
      </trkpt>
      <trkpt lat="48.49518" lon="-2.59821">
        <ele>49</ele>
        <time>2016-01-08T08:53:24Z</time>
      </trkpt>
      <trkpt lat="48.49517" lon="-2.59827">
        <ele>49</ele>
        <time>2016-01-08T08:53:27Z</time>
      </trkpt>
      <trkpt lat="48.49516" lon="-2.59834">
        <ele>49</ele>
        <time>2016-01-08T08:53:30Z</time>
      </trkpt>
      <trkpt lat="48.49516" lon="-2.59839">
        <ele>49</ele>
        <time>2016-01-08T08:53:33Z</time>
      </trkpt>
      <trkpt lat="48.49516" lon="-2.59844">
        <ele>49</ele>
        <time>2016-01-08T08:53:36Z</time>
      </trkpt>
      <trkpt lat="48.49515" lon="-2.59851">
        <ele>49</ele>
        <time>2016-01-08T08:53:39Z</time>
      </trkpt>
      <trkpt lat="48.49514" lon="-2.59857">
        <ele>49</ele>
        <time>2016-01-08T08:53:42Z</time>
      </trkpt>
      <trkpt lat="48.49514" lon="-2.59863">
        <ele>49</ele>
        <time>2016-01-08T08:53:45Z</time>
      </trkpt>
      <trkpt lat="48.49513" lon="-2.59869">
        <ele>49</ele>
        <time>2016-01-08T08:53:48Z</time>
      </trkpt>
      <trkpt lat="48.49512" lon="-2.59875">
        <ele>49</ele>
        <time>2016-01-08T08:53:51Z</time>
      </trkpt>
      <trkpt lat="48.49512" lon="-2.59881">
        <ele>49</ele>
        <time>2016-01-08T08:53:54Z</time>
      </trkpt>
      <trkpt lat="48.49511" lon="-2.59887">
        <ele>49</ele>
        <time>2016-01-08T08:53:57Z</time>
      </trkpt>
      <trkpt lat="48.49511" lon="-2.59893">
        <ele>49</ele>
        <time>2016-01-08T08:54:00Z</time>
      </trkpt>
      <trkpt lat="48.49511" lon="-2.59899">
        <ele>49</ele>
        <time>2016-01-08T08:54:03Z</time>
      </trkpt>
      <trkpt lat="48.4951" lon="-2.59905">
        <ele>49</ele>
        <time>2016-01-08T08:54:06Z</time>
      </trkpt>
      <trkpt lat="48.49509" lon="-2.59912">
        <ele>49</ele>
        <time>2016-01-08T08:54:09Z</time>
      </trkpt>
      <trkpt lat="48.49508" lon="-2.59918">
        <ele>49</ele>
        <time>2016-01-08T08:54:12Z</time>
      </trkpt>
      <trkpt lat="48.49507" lon="-2.59925">
        <ele>49</ele>
        <time>2016-01-08T08:54:15Z</time>
      </trkpt>
      <trkpt lat="48.49506" lon="-2.59931">
        <ele>49</ele>
        <time>2016-01-08T08:54:18Z</time>
      </trkpt>
      <trkpt lat="48.49505" lon="-2.59938">
        <ele>49</ele>
        <time>2016-01-08T08:54:21Z</time>
      </trkpt>
      <trkpt lat="48.49504" lon="-2.59945">
        <ele>49</ele>
        <time>2016-01-08T08:54:24Z</time>
      </trkpt>
      <trkpt lat="48.49504" lon="-2.59952">
        <ele>49</ele>
        <time>2016-01-08T08:54:27Z</time>
      </trkpt>
      <trkpt lat="48.49503" lon="-2.59951">
        <ele>49</ele>
        <time>2016-01-08T08:54:30Z</time>
      </trkpt>
      <trkpt lat="48.49501" lon="-2.59956">
        <ele>49</ele>
        <time>2016-01-08T08:54:33Z</time>
      </trkpt>
      <trkpt lat="48.495" lon="-2.59963">
        <ele>49</ele>
        <time>2016-01-08T08:54:36Z</time>
      </trkpt>
      <trkpt lat="48.49499" lon="-2.5997">
        <ele>49</ele>
        <time>2016-01-08T08:54:39Z</time>
      </trkpt>
      <trkpt lat="48.49497" lon="-2.59977">
        <ele>49</ele>
        <time>2016-01-08T08:54:42Z</time>
      </trkpt>
      <trkpt lat="48.49496" lon="-2.59983">
        <ele>49</ele>
        <time>2016-01-08T08:54:45Z</time>
      </trkpt>
      <trkpt lat="48.49494" lon="-2.5999">
        <ele>49</ele>
        <time>2016-01-08T08:54:48Z</time>
      </trkpt>
      <trkpt lat="48.49491" lon="-2.59995">
        <ele>49</ele>
        <time>2016-01-08T08:54:51Z</time>
      </trkpt>
      <trkpt lat="48.49487" lon="-2.6">
        <ele>49</ele>
        <time>2016-01-08T08:54:55Z</time>
      </trkpt>
      <trkpt lat="48.49484" lon="-2.60003">
        <ele>49</ele>
        <time>2016-01-08T08:54:59Z</time>
      </trkpt>
      <trkpt lat="48.49483" lon="-2.60004">
        <ele>49</ele>
        <time>2016-01-08T08:55:06Z</time>
      </trkpt>
      <trkpt lat="48.49479" lon="-2.60005">
        <ele>49</ele>
        <time>2016-01-08T08:55:09Z</time>
      </trkpt>
      <trkpt lat="48.49475" lon="-2.60005">
        <ele>49</ele>
        <time>2016-01-08T08:55:12Z</time>
      </trkpt>
      <trkpt lat="48.49472" lon="-2.60006">
        <ele>49</ele>
        <time>2016-01-08T08:55:15Z</time>
      </trkpt>
      <trkpt lat="48.49468" lon="-2.60007">
        <ele>49</ele>
        <time>2016-01-08T08:55:18Z</time>
      </trkpt>
      <trkpt lat="48.49464" lon="-2.60008">
        <ele>49</ele>
        <time>2016-01-08T08:55:21Z</time>
      </trkpt>
      <trkpt lat="48.49459" lon="-2.60009">
        <ele>49</ele>
        <time>2016-01-08T08:55:24Z</time>
      </trkpt>
      <trkpt lat="48.49456" lon="-2.6001">
        <ele>49</ele>
        <time>2016-01-08T08:55:27Z</time>
      </trkpt>
      <trkpt lat="48.49453" lon="-2.6001">
        <ele>49</ele>
        <time>2016-01-08T08:55:31Z</time>
      </trkpt>
      <trkpt lat="48.49449" lon="-2.60011">
        <ele>49</ele>
        <time>2016-01-08T08:55:34Z</time>
      </trkpt>
      <trkpt lat="48.49445" lon="-2.60014">
        <ele>49</ele>
        <time>2016-01-08T08:55:37Z</time>
      </trkpt>
      <trkpt lat="48.49441" lon="-2.60015">
        <ele>49</ele>
        <time>2016-01-08T08:55:40Z</time>
      </trkpt>
      <trkpt lat="48.49436" lon="-2.60016">
        <ele>49</ele>
        <time>2016-01-08T08:55:43Z</time>
      </trkpt>
      <trkpt lat="48.49431" lon="-2.60017">
        <ele>49</ele>
        <time>2016-01-08T08:55:46Z</time>
      </trkpt>
      <trkpt lat="48.49427" lon="-2.60018">
        <ele>49</ele>
        <time>2016-01-08T08:55:49Z</time>
      </trkpt>
      <trkpt lat="48.49422" lon="-2.60019">
        <ele>49</ele>
        <time>2016-01-08T08:55:52Z</time>
      </trkpt>
      <trkpt lat="48.49417" lon="-2.6002">
        <ele>49</ele>
        <time>2016-01-08T08:55:55Z</time>
      </trkpt>
      <trkpt lat="48.49414" lon="-2.60022">
        <ele>49</ele>
        <time>2016-01-08T08:55:58Z</time>
      </trkpt>
      <trkpt lat="48.4941" lon="-2.60023">
        <ele>49</ele>
        <time>2016-01-08T08:56:01Z</time>
      </trkpt>
      <trkpt lat="48.49405" lon="-2.60024">
        <ele>49</ele>
        <time>2016-01-08T08:56:04Z</time>
      </trkpt>
      <trkpt lat="48.49401" lon="-2.60026">
        <ele>49</ele>
        <time>2016-01-08T08:56:07Z</time>
      </trkpt>
      <trkpt lat="48.49397" lon="-2.60029">
        <ele>49</ele>
        <time>2016-01-08T08:56:10Z</time>
      </trkpt>
      <trkpt lat="48.49392" lon="-2.60031">
        <ele>49</ele>
        <time>2016-01-08T08:56:13Z</time>
      </trkpt>
      <trkpt lat="48.49387" lon="-2.60033">
        <ele>49</ele>
        <time>2016-01-08T08:56:16Z</time>
      </trkpt>
      <trkpt lat="48.49383" lon="-2.60036">
        <ele>49</ele>
        <time>2016-01-08T08:56:19Z</time>
      </trkpt>
      <trkpt lat="48.49378" lon="-2.60039">
        <ele>49</ele>
        <time>2016-01-08T08:56:22Z</time>
      </trkpt>
      <trkpt lat="48.49374" lon="-2.60041">
        <ele>49</ele>
        <time>2016-01-08T08:56:25Z</time>
      </trkpt>
      <trkpt lat="48.49369" lon="-2.60043">
        <ele>49</ele>
        <time>2016-01-08T08:56:28Z</time>
      </trkpt>
      <trkpt lat="48.49365" lon="-2.60044">
        <ele>49</ele>
        <time>2016-01-08T08:56:31Z</time>
      </trkpt>
      <trkpt lat="48.4936" lon="-2.60046">
        <ele>48</ele>
        <time>2016-01-08T08:56:34Z</time>
      </trkpt>
      <trkpt lat="48.49356" lon="-2.60048">
        <ele>48</ele>
        <time>2016-01-08T08:56:37Z</time>
      </trkpt>
      <trkpt lat="48.49351" lon="-2.6005">
        <ele>47</ele>
        <time>2016-01-08T08:56:40Z</time>
      </trkpt>
      <trkpt lat="48.49347" lon="-2.60053">
        <ele>47</ele>
        <time>2016-01-08T08:56:43Z</time>
      </trkpt>
      <trkpt lat="48.49343" lon="-2.60056">
        <ele>47</ele>
        <time>2016-01-08T08:56:46Z</time>
      </trkpt>
      <trkpt lat="48.49339" lon="-2.60059">
        <ele>47</ele>
        <time>2016-01-08T08:56:49Z</time>
      </trkpt>
      <trkpt lat="48.49334" lon="-2.60062">
        <ele>47</ele>
        <time>2016-01-08T08:56:52Z</time>
      </trkpt>
      <trkpt lat="48.49329" lon="-2.60065">
        <ele>47</ele>
        <time>2016-01-08T08:56:55Z</time>
      </trkpt>
      <trkpt lat="48.49325" lon="-2.60067">
        <ele>47</ele>
        <time>2016-01-08T08:56:58Z</time>
      </trkpt>
      <trkpt lat="48.49321" lon="-2.6007">
        <ele>47</ele>
        <time>2016-01-08T08:57:01Z</time>
      </trkpt>
      <trkpt lat="48.49317" lon="-2.60073">
        <ele>47</ele>
        <time>2016-01-08T08:57:04Z</time>
      </trkpt>
      <trkpt lat="48.49313" lon="-2.60076">
        <ele>47</ele>
        <time>2016-01-08T08:57:07Z</time>
      </trkpt>
      <trkpt lat="48.49308" lon="-2.60079">
        <ele>47</ele>
        <time>2016-01-08T08:57:10Z</time>
      </trkpt>
      <trkpt lat="48.49305" lon="-2.60082">
        <ele>47</ele>
        <time>2016-01-08T08:57:13Z</time>
      </trkpt>
      <trkpt lat="48.493" lon="-2.60084">
        <ele>47</ele>
        <time>2016-01-08T08:57:16Z</time>
      </trkpt>
      <trkpt lat="48.49297" lon="-2.60083">
        <ele>47</ele>
        <time>2016-01-08T08:57:19Z</time>
      </trkpt>
      <trkpt lat="48.49293" lon="-2.60084">
        <ele>47</ele>
        <time>2016-01-08T08:57:22Z</time>
      </trkpt>
      <trkpt lat="48.49289" lon="-2.60082">
        <ele>47</ele>
        <time>2016-01-08T08:57:25Z</time>
      </trkpt>
      <trkpt lat="48.49286" lon="-2.60076">
        <ele>47</ele>
        <time>2016-01-08T08:57:29Z</time>
      </trkpt>
      <trkpt lat="48.49284" lon="-2.60071">
        <ele>47</ele>
        <time>2016-01-08T08:57:32Z</time>
      </trkpt>
      <trkpt lat="48.49281" lon="-2.60066">
        <ele>47</ele>
        <time>2016-01-08T08:57:36Z</time>
      </trkpt>
      <trkpt lat="48.49278" lon="-2.60062">
        <ele>47</ele>
        <time>2016-01-08T08:57:40Z</time>
      </trkpt>
      <trkpt lat="48.49276" lon="-2.60064">
        <ele>47</ele>
        <time>2016-01-08T08:57:45Z</time>
      </trkpt>
      <trkpt lat="48.49275" lon="-2.60062">
        <ele>47</ele>
        <time>2016-01-08T08:57:48Z</time>
      </trkpt>
      <trkpt lat="48.49274" lon="-2.60058">
        <ele>47</ele>
        <time>2016-01-08T08:57:57Z</time>
      </trkpt>
      <trkpt lat="48.49273" lon="-2.60055">
        <ele>47</ele>
        <time>2016-01-08T08:58:06Z</time>
      </trkpt>
      <trkpt lat="48.49272" lon="-2.60053">
        <ele>47</ele>
        <time>2016-01-08T08:58:11Z</time>
      </trkpt>
      <trkpt lat="48.4927" lon="-2.60049">
        <ele>47</ele>
        <time>2016-01-08T08:58:14Z</time>
      </trkpt>
      <trkpt lat="48.49268" lon="-2.60042">
        <ele>48</ele>
        <time>2016-01-08T08:58:18Z</time>
      </trkpt>
      <trkpt lat="48.49265" lon="-2.60036">
        <ele>48</ele>
        <time>2016-01-08T08:58:22Z</time>
      </trkpt>
      <trkpt lat="48.49263" lon="-2.60031">
        <ele>48</ele>
        <time>2016-01-08T08:58:25Z</time>
      </trkpt>
      <trkpt lat="48.49261" lon="-2.60025">
        <ele>48</ele>
        <time>2016-01-08T08:58:28Z</time>
      </trkpt>
      <trkpt lat="48.49258" lon="-2.60019">
        <ele>48</ele>
        <time>2016-01-08T08:58:31Z</time>
      </trkpt>
      <trkpt lat="48.49256" lon="-2.60015">
        <ele>48</ele>
        <time>2016-01-08T08:58:34Z</time>
      </trkpt>
      <trkpt lat="48.49253" lon="-2.60009">
        <ele>48</ele>
        <time>2016-01-08T08:58:37Z</time>
      </trkpt>
      <trkpt lat="48.49251" lon="-2.60004">
        <ele>48</ele>
        <time>2016-01-08T08:58:41Z</time>
      </trkpt>
      <trkpt lat="48.49248" lon="-2.59999">
        <ele>49</ele>
        <time>2016-01-08T08:58:44Z</time>
      </trkpt>
      <trkpt lat="48.49244" lon="-2.59992">
        <ele>49</ele>
        <time>2016-01-08T08:58:48Z</time>
      </trkpt>
      <trkpt lat="48.49242" lon="-2.59987">
        <ele>49</ele>
        <time>2016-01-08T08:58:51Z</time>
      </trkpt>
      <trkpt lat="48.49239" lon="-2.59982">
        <ele>49</ele>
        <time>2016-01-08T08:58:55Z</time>
      </trkpt>
      <trkpt lat="48.49236" lon="-2.59977">
        <ele>49</ele>
        <time>2016-01-08T08:58:58Z</time>
      </trkpt>
      <trkpt lat="48.49232" lon="-2.5997">
        <ele>49</ele>
        <time>2016-01-08T08:59:02Z</time>
      </trkpt>
      <trkpt lat="48.49229" lon="-2.59965">
        <ele>49</ele>
        <time>2016-01-08T08:59:05Z</time>
      </trkpt>
      <trkpt lat="48.49226" lon="-2.5996">
        <ele>49</ele>
        <time>2016-01-08T08:59:08Z</time>
      </trkpt>
      <trkpt lat="48.49224" lon="-2.59953">
        <ele>50</ele>
        <time>2016-01-08T08:59:11Z</time>
      </trkpt>
      <trkpt lat="48.49222" lon="-2.59948">
        <ele>50</ele>
        <time>2016-01-08T08:59:14Z</time>
      </trkpt>
      <trkpt lat="48.49219" lon="-2.59942">
        <ele>51</ele>
        <time>2016-01-08T08:59:18Z</time>
      </trkpt>
      <trkpt lat="48.49218" lon="-2.59936">
        <ele>51</ele>
        <time>2016-01-08T08:59:21Z</time>
      </trkpt>
      <trkpt lat="48.49216" lon="-2.59931">
        <ele>51</ele>
        <time>2016-01-08T08:59:24Z</time>
      </trkpt>
      <trkpt lat="48.49215" lon="-2.59926">
        <ele>52</ele>
        <time>2016-01-08T08:59:27Z</time>
      </trkpt>
      <trkpt lat="48.49213" lon="-2.5992">
        <ele>53</ele>
        <time>2016-01-08T08:59:30Z</time>
      </trkpt>
      <trkpt lat="48.49213" lon="-2.59914">
        <ele>53</ele>
        <time>2016-01-08T08:59:33Z</time>
      </trkpt>
      <trkpt lat="48.49212" lon="-2.59909">
        <ele>54</ele>
        <time>2016-01-08T08:59:36Z</time>
      </trkpt>
      <trkpt lat="48.49213" lon="-2.59903">
        <ele>54</ele>
        <time>2016-01-08T08:59:39Z</time>
      </trkpt>
      <trkpt lat="48.49213" lon="-2.59897">
        <ele>54</ele>
        <time>2016-01-08T08:59:42Z</time>
      </trkpt>
      <trkpt lat="48.49213" lon="-2.59891">
        <ele>54</ele>
        <time>2016-01-08T08:59:45Z</time>
      </trkpt>
      <trkpt lat="48.49213" lon="-2.59886">
        <ele>55</ele>
        <time>2016-01-08T08:59:48Z</time>
      </trkpt>
      <trkpt lat="48.49214" lon="-2.59881">
        <ele>55</ele>
        <time>2016-01-08T08:59:51Z</time>
      </trkpt>
      <trkpt lat="48.49214" lon="-2.59878">
        <ele>55</ele>
        <time>2016-01-08T08:59:54Z</time>
      </trkpt>
      <trkpt lat="48.49215" lon="-2.59871">
        <ele>55</ele>
        <time>2016-01-08T08:59:57Z</time>
      </trkpt>
      <trkpt lat="48.49215" lon="-2.59865">
        <ele>56</ele>
        <time>2016-01-08T09:00:00Z</time>
      </trkpt>
      <trkpt lat="48.49215" lon="-2.59859">
        <ele>56</ele>
        <time>2016-01-08T09:00:03Z</time>
      </trkpt>
      <trkpt lat="48.49216" lon="-2.59854">
        <ele>57</ele>
        <time>2016-01-08T09:00:06Z</time>
      </trkpt>
      <trkpt lat="48.49216" lon="-2.59848">
        <ele>57</ele>
        <time>2016-01-08T09:00:09Z</time>
      </trkpt>
      <trkpt lat="48.49216" lon="-2.59841">
        <ele>57</ele>
        <time>2016-01-08T09:00:12Z</time>
      </trkpt>
      <trkpt lat="48.49217" lon="-2.59836">
        <ele>57</ele>
        <time>2016-01-08T09:00:15Z</time>
      </trkpt>
      <trkpt lat="48.49217" lon="-2.59829">
        <ele>57</ele>
        <time>2016-01-08T09:00:18Z</time>
      </trkpt>
      <trkpt lat="48.49218" lon="-2.59828">
        <ele>57</ele>
        <time>2016-01-08T09:00:21Z</time>
      </trkpt>
      <trkpt lat="48.49218" lon="-2.59825">
        <ele>57</ele>
        <time>2016-01-08T09:00:27Z</time>
      </trkpt>
      <trkpt lat="48.49218" lon="-2.59823">
        <ele>57</ele>
        <time>2016-01-08T09:00:36Z</time>
      </trkpt>
      <trkpt lat="48.49218" lon="-2.59817">
        <ele>57</ele>
        <time>2016-01-08T09:00:40Z</time>
      </trkpt>
      <trkpt lat="48.49219" lon="-2.59811">
        <ele>57</ele>
        <time>2016-01-08T09:00:43Z</time>
      </trkpt>
      <trkpt lat="48.49219" lon="-2.59805">
        <ele>57</ele>
        <time>2016-01-08T09:00:46Z</time>
      </trkpt>
      <trkpt lat="48.49219" lon="-2.59799">
        <ele>57</ele>
        <time>2016-01-08T09:00:49Z</time>
      </trkpt>
      <trkpt lat="48.4922" lon="-2.59793">
        <ele>57</ele>
        <time>2016-01-08T09:00:52Z</time>
      </trkpt>
      <trkpt lat="48.4922" lon="-2.59787">
        <ele>57</ele>
        <time>2016-01-08T09:00:55Z</time>
      </trkpt>
      <trkpt lat="48.4922" lon="-2.59781">
        <ele>57</ele>
        <time>2016-01-08T09:00:58Z</time>
      </trkpt>
      <trkpt lat="48.49221" lon="-2.59775">
        <ele>57</ele>
        <time>2016-01-08T09:01:01Z</time>
      </trkpt>
      <trkpt lat="48.49221" lon="-2.59769">
        <ele>57</ele>
        <time>2016-01-08T09:01:04Z</time>
      </trkpt>
      <trkpt lat="48.49221" lon="-2.59762">
        <ele>57</ele>
        <time>2016-01-08T09:01:07Z</time>
      </trkpt>
      <trkpt lat="48.49222" lon="-2.59756">
        <ele>57</ele>
        <time>2016-01-08T09:01:10Z</time>
      </trkpt>
      <trkpt lat="48.49222" lon="-2.5975">
        <ele>57</ele>
        <time>2016-01-08T09:01:13Z</time>
      </trkpt>
      <trkpt lat="48.49223" lon="-2.59744">
        <ele>57</ele>
        <time>2016-01-08T09:01:16Z</time>
      </trkpt>
      <trkpt lat="48.49223" lon="-2.59739">
        <ele>57</ele>
        <time>2016-01-08T09:01:19Z</time>
      </trkpt>
      <trkpt lat="48.49223" lon="-2.59734">
        <ele>57</ele>
        <time>2016-01-08T09:01:22Z</time>
      </trkpt>
      <trkpt lat="48.49223" lon="-2.59728">
        <ele>58</ele>
        <time>2016-01-08T09:01:25Z</time>
      </trkpt>
      <trkpt lat="48.49223" lon="-2.59721">
        <ele>58</ele>
        <time>2016-01-08T09:01:28Z</time>
      </trkpt>
      <trkpt lat="48.49223" lon="-2.59715">
        <ele>58</ele>
        <time>2016-01-08T09:01:31Z</time>
      </trkpt>
      <trkpt lat="48.49224" lon="-2.59709">
        <ele>58</ele>
        <time>2016-01-08T09:01:34Z</time>
      </trkpt>
      <trkpt lat="48.49224" lon="-2.59702">
        <ele>58</ele>
        <time>2016-01-08T09:01:37Z</time>
      </trkpt>
      <trkpt lat="48.49225" lon="-2.59697">
        <ele>59</ele>
        <time>2016-01-08T09:01:40Z</time>
      </trkpt>
      <trkpt lat="48.49225" lon="-2.5969">
        <ele>59</ele>
        <time>2016-01-08T09:01:43Z</time>
      </trkpt>
      <trkpt lat="48.49225" lon="-2.59684">
        <ele>59</ele>
        <time>2016-01-08T09:01:46Z</time>
      </trkpt>
      <trkpt lat="48.49226" lon="-2.59678">
        <ele>59</ele>
        <time>2016-01-08T09:01:49Z</time>
      </trkpt>
      <trkpt lat="48.49227" lon="-2.59672">
        <ele>59</ele>
        <time>2016-01-08T09:01:52Z</time>
      </trkpt>
      <trkpt lat="48.49227" lon="-2.59666">
        <ele>59</ele>
        <time>2016-01-08T09:01:55Z</time>
      </trkpt>
      <trkpt lat="48.49227" lon="-2.59661">
        <ele>59</ele>
        <time>2016-01-08T09:01:58Z</time>
      </trkpt>
      <trkpt lat="48.49227" lon="-2.59655">
        <ele>59</ele>
        <time>2016-01-08T09:02:01Z</time>
      </trkpt>
      <trkpt lat="48.49227" lon="-2.5965">
        <ele>60</ele>
        <time>2016-01-08T09:02:04Z</time>
      </trkpt>
      <trkpt lat="48.49225" lon="-2.59644">
        <ele>60</ele>
        <time>2016-01-08T09:02:07Z</time>
      </trkpt>
      <trkpt lat="48.49223" lon="-2.59637">
        <ele>60</ele>
        <time>2016-01-08T09:02:11Z</time>
      </trkpt>
      <trkpt lat="48.49223" lon="-2.59635">
        <ele>60</ele>
        <time>2016-01-08T09:02:17Z</time>
      </trkpt>
      <trkpt lat="48.49222" lon="-2.59629">
        <ele>60</ele>
        <time>2016-01-08T09:02:20Z</time>
      </trkpt>
      <trkpt lat="48.4922" lon="-2.59623">
        <ele>60</ele>
        <time>2016-01-08T09:02:23Z</time>
      </trkpt>
      <trkpt lat="48.49218" lon="-2.59617">
        <ele>61</ele>
        <time>2016-01-08T09:02:26Z</time>
      </trkpt>
      <trkpt lat="48.49217" lon="-2.59611">
        <ele>61</ele>
        <time>2016-01-08T09:02:29Z</time>
      </trkpt>
      <trkpt lat="48.49216" lon="-2.59606">
        <ele>61</ele>
        <time>2016-01-08T09:02:32Z</time>
      </trkpt>
      <trkpt lat="48.49214" lon="-2.596">
        <ele>61</ele>
        <time>2016-01-08T09:02:35Z</time>
      </trkpt>
      <trkpt lat="48.49213" lon="-2.59594">
        <ele>61</ele>
        <time>2016-01-08T09:02:38Z</time>
      </trkpt>
      <trkpt lat="48.49211" lon="-2.59588">
        <ele>61</ele>
        <time>2016-01-08T09:02:41Z</time>
      </trkpt>
      <trkpt lat="48.49209" lon="-2.59581">
        <ele>61</ele>
        <time>2016-01-08T09:02:44Z</time>
      </trkpt>
      <trkpt lat="48.49208" lon="-2.59575">
        <ele>61</ele>
        <time>2016-01-08T09:02:47Z</time>
      </trkpt>
      <trkpt lat="48.49207" lon="-2.5957">
        <ele>61</ele>
        <time>2016-01-08T09:02:51Z</time>
      </trkpt>
      <trkpt lat="48.49206" lon="-2.59565">
        <ele>61</ele>
        <time>2016-01-08T09:02:54Z</time>
      </trkpt>
      <trkpt lat="48.49205" lon="-2.5956">
        <ele>61</ele>
        <time>2016-01-08T09:02:57Z</time>
      </trkpt>
      <trkpt lat="48.49203" lon="-2.59555">
        <ele>61</ele>
        <time>2016-01-08T09:03:00Z</time>
      </trkpt>
      <trkpt lat="48.49202" lon="-2.59548">
        <ele>61</ele>
        <time>2016-01-08T09:03:03Z</time>
      </trkpt>
      <trkpt lat="48.49202" lon="-2.59543">
        <ele>61</ele>
        <time>2016-01-08T09:03:06Z</time>
      </trkpt>
      <trkpt lat="48.49201" lon="-2.59537">
        <ele>61</ele>
        <time>2016-01-08T09:03:09Z</time>
      </trkpt>
      <trkpt lat="48.49201" lon="-2.59531">
        <ele>61</ele>
        <time>2016-01-08T09:03:12Z</time>
      </trkpt>
      <trkpt lat="48.492" lon="-2.59526">
        <ele>61</ele>
        <time>2016-01-08T09:03:15Z</time>
      </trkpt>
      <trkpt lat="48.492" lon="-2.5952">
        <ele>61</ele>
        <time>2016-01-08T09:03:18Z</time>
      </trkpt>
      <trkpt lat="48.492" lon="-2.59514">
        <ele>61</ele>
        <time>2016-01-08T09:03:21Z</time>
      </trkpt>
      <trkpt lat="48.492" lon="-2.59507">
        <ele>61</ele>
        <time>2016-01-08T09:03:24Z</time>
      </trkpt>
      <trkpt lat="48.492" lon="-2.59501">
        <ele>61</ele>
        <time>2016-01-08T09:03:27Z</time>
      </trkpt>
      <trkpt lat="48.49199" lon="-2.59495">
        <ele>61</ele>
        <time>2016-01-08T09:03:30Z</time>
      </trkpt>
      <trkpt lat="48.492" lon="-2.59488">
        <ele>61</ele>
        <time>2016-01-08T09:03:33Z</time>
      </trkpt>
      <trkpt lat="48.492" lon="-2.59481">
        <ele>61</ele>
        <time>2016-01-08T09:03:36Z</time>
      </trkpt>
      <trkpt lat="48.492" lon="-2.59475">
        <ele>61</ele>
        <time>2016-01-08T09:03:39Z</time>
      </trkpt>
      <trkpt lat="48.492" lon="-2.59469">
        <ele>61</ele>
        <time>2016-01-08T09:03:42Z</time>
      </trkpt>
      <trkpt lat="48.492" lon="-2.59467">
        <ele>61</ele>
        <time>2016-01-08T09:03:45Z</time>
      </trkpt>
      <trkpt lat="48.492" lon="-2.59461">
        <ele>61</ele>
        <time>2016-01-08T09:03:48Z</time>
      </trkpt>
      <trkpt lat="48.49199" lon="-2.59455">
        <ele>61</ele>
        <time>2016-01-08T09:03:51Z</time>
      </trkpt>
      <trkpt lat="48.49198" lon="-2.59449">
        <ele>61</ele>
        <time>2016-01-08T09:03:54Z</time>
      </trkpt>
      <trkpt lat="48.49198" lon="-2.59442">
        <ele>61</ele>
        <time>2016-01-08T09:03:57Z</time>
      </trkpt>
      <trkpt lat="48.49198" lon="-2.59437">
        <ele>61</ele>
        <time>2016-01-08T09:04:00Z</time>
      </trkpt>
      <trkpt lat="48.49198" lon="-2.5943">
        <ele>61</ele>
        <time>2016-01-08T09:04:03Z</time>
      </trkpt>
      <trkpt lat="48.49198" lon="-2.59423">
        <ele>61</ele>
        <time>2016-01-08T09:04:06Z</time>
      </trkpt>
      <trkpt lat="48.49198" lon="-2.59417">
        <ele>61</ele>
        <time>2016-01-08T09:04:09Z</time>
      </trkpt>
      <trkpt lat="48.49198" lon="-2.5941">
        <ele>61</ele>
        <time>2016-01-08T09:04:12Z</time>
      </trkpt>
      <trkpt lat="48.49198" lon="-2.59404">
        <ele>61</ele>
        <time>2016-01-08T09:04:15Z</time>
      </trkpt>
      <trkpt lat="48.49198" lon="-2.59398">
        <ele>62</ele>
        <time>2016-01-08T09:04:18Z</time>
      </trkpt>
      <trkpt lat="48.49198" lon="-2.59391">
        <ele>62</ele>
        <time>2016-01-08T09:04:21Z</time>
      </trkpt>
      <trkpt lat="48.49198" lon="-2.59385">
        <ele>62</ele>
        <time>2016-01-08T09:04:24Z</time>
      </trkpt>
      <trkpt lat="48.49198" lon="-2.59379">
        <ele>62</ele>
        <time>2016-01-08T09:04:27Z</time>
      </trkpt>
      <trkpt lat="48.49199" lon="-2.59373">
        <ele>62</ele>
        <time>2016-01-08T09:04:30Z</time>
      </trkpt>
      <trkpt lat="48.49199" lon="-2.59369">
        <ele>62</ele>
        <time>2016-01-08T09:04:33Z</time>
      </trkpt>
      <trkpt lat="48.49197" lon="-2.59364">
        <ele>62</ele>
        <time>2016-01-08T09:04:36Z</time>
      </trkpt>
      <trkpt lat="48.49196" lon="-2.59359">
        <ele>62</ele>
        <time>2016-01-08T09:04:39Z</time>
      </trkpt>
      <trkpt lat="48.49197" lon="-2.59353">
        <ele>62</ele>
        <time>2016-01-08T09:04:42Z</time>
      </trkpt>
      <trkpt lat="48.49196" lon="-2.59348">
        <ele>62</ele>
        <time>2016-01-08T09:04:45Z</time>
      </trkpt>
      <trkpt lat="48.49196" lon="-2.59342">
        <ele>62</ele>
        <time>2016-01-08T09:04:48Z</time>
      </trkpt>
      <trkpt lat="48.49196" lon="-2.59337">
        <ele>62</ele>
        <time>2016-01-08T09:04:52Z</time>
      </trkpt>
      <trkpt lat="48.49197" lon="-2.59331">
        <ele>62</ele>
        <time>2016-01-08T09:04:55Z</time>
      </trkpt>
      <trkpt lat="48.49198" lon="-2.59325">
        <ele>62</ele>
        <time>2016-01-08T09:04:58Z</time>
      </trkpt>
      <trkpt lat="48.49199" lon="-2.59319">
        <ele>62</ele>
        <time>2016-01-08T09:05:01Z</time>
      </trkpt>
      <trkpt lat="48.492" lon="-2.59313">
        <ele>62</ele>
        <time>2016-01-08T09:05:04Z</time>
      </trkpt>
      <trkpt lat="48.492" lon="-2.59306">
        <ele>62</ele>
        <time>2016-01-08T09:05:07Z</time>
      </trkpt>
      <trkpt lat="48.49201" lon="-2.593">
        <ele>62</ele>
        <time>2016-01-08T09:05:10Z</time>
      </trkpt>
      <trkpt lat="48.49202" lon="-2.59293">
        <ele>62</ele>
        <time>2016-01-08T09:05:13Z</time>
      </trkpt>
      <trkpt lat="48.49203" lon="-2.59287">
        <ele>62</ele>
        <time>2016-01-08T09:05:16Z</time>
      </trkpt>
      <trkpt lat="48.49205" lon="-2.59281">
        <ele>62</ele>
        <time>2016-01-08T09:05:19Z</time>
      </trkpt>
      <trkpt lat="48.49205" lon="-2.59274">
        <ele>62</ele>
        <time>2016-01-08T09:05:22Z</time>
      </trkpt>
      <trkpt lat="48.49207" lon="-2.59268">
        <ele>62</ele>
        <time>2016-01-08T09:05:25Z</time>
      </trkpt>
      <trkpt lat="48.49208" lon="-2.59261">
        <ele>62</ele>
        <time>2016-01-08T09:05:28Z</time>
      </trkpt>
      <trkpt lat="48.49209" lon="-2.59255">
        <ele>62</ele>
        <time>2016-01-08T09:05:31Z</time>
      </trkpt>
      <trkpt lat="48.4921" lon="-2.59248">
        <ele>62</ele>
        <time>2016-01-08T09:05:34Z</time>
      </trkpt>
      <trkpt lat="48.4921" lon="-2.59242">
        <ele>62</ele>
        <time>2016-01-08T09:05:37Z</time>
      </trkpt>
      <trkpt lat="48.49211" lon="-2.59235">
        <ele>62</ele>
        <time>2016-01-08T09:05:40Z</time>
      </trkpt>
      <trkpt lat="48.49212" lon="-2.59229">
        <ele>62</ele>
        <time>2016-01-08T09:05:43Z</time>
      </trkpt>
      <trkpt lat="48.49213" lon="-2.59223">
        <ele>62</ele>
        <time>2016-01-08T09:05:46Z</time>
      </trkpt>
      <trkpt lat="48.49213" lon="-2.59218">
        <ele>62</ele>
        <time>2016-01-08T09:05:49Z</time>
      </trkpt>
      <trkpt lat="48.49214" lon="-2.59211">
        <ele>62</ele>
        <time>2016-01-08T09:05:52Z</time>
      </trkpt>
      <trkpt lat="48.49215" lon="-2.59205">
        <ele>62</ele>
        <time>2016-01-08T09:05:55Z</time>
      </trkpt>
      <trkpt lat="48.49216" lon="-2.59199">
        <ele>62</ele>
        <time>2016-01-08T09:05:58Z</time>
      </trkpt>
      <trkpt lat="48.49218" lon="-2.59192">
        <ele>62</ele>
        <time>2016-01-08T09:06:01Z</time>
      </trkpt>
      <trkpt lat="48.49219" lon="-2.59186">
        <ele>62</ele>
        <time>2016-01-08T09:06:04Z</time>
      </trkpt>
      <trkpt lat="48.4922" lon="-2.59179">
        <ele>62</ele>
        <time>2016-01-08T09:06:07Z</time>
      </trkpt>
      <trkpt lat="48.49221" lon="-2.59172">
        <ele>62</ele>
        <time>2016-01-08T09:06:12Z</time>
      </trkpt>
      <trkpt lat="48.49221" lon="-2.59168">
        <ele>62</ele>
        <time>2016-01-08T09:06:15Z</time>
      </trkpt>
      <trkpt lat="48.49221" lon="-2.59161">
        <ele>62</ele>
        <time>2016-01-08T09:06:18Z</time>
      </trkpt>
      <trkpt lat="48.49223" lon="-2.59154">
        <ele>62</ele>
        <time>2016-01-08T09:06:21Z</time>
      </trkpt>
      <trkpt lat="48.49223" lon="-2.59148">
        <ele>62</ele>
        <time>2016-01-08T09:06:24Z</time>
      </trkpt>
      <trkpt lat="48.49224" lon="-2.59141">
        <ele>62</ele>
        <time>2016-01-08T09:06:27Z</time>
      </trkpt>
      <trkpt lat="48.49225" lon="-2.59136">
        <ele>62</ele>
        <time>2016-01-08T09:06:30Z</time>
      </trkpt>
      <trkpt lat="48.49226" lon="-2.5913">
        <ele>62</ele>
        <time>2016-01-08T09:06:33Z</time>
      </trkpt>
      <trkpt lat="48.49227" lon="-2.59124">
        <ele>62</ele>
        <time>2016-01-08T09:06:36Z</time>
      </trkpt>
      <trkpt lat="48.49228" lon="-2.59118">
        <ele>62</ele>
        <time>2016-01-08T09:06:39Z</time>
      </trkpt>
      <trkpt lat="48.49229" lon="-2.59111">
        <ele>62</ele>
        <time>2016-01-08T09:06:42Z</time>
      </trkpt>
      <trkpt lat="48.49231" lon="-2.59104">
        <ele>62</ele>
        <time>2016-01-08T09:06:45Z</time>
      </trkpt>
      <trkpt lat="48.49231" lon="-2.59098">
        <ele>62</ele>
        <time>2016-01-08T09:06:48Z</time>
      </trkpt>
      <trkpt lat="48.49232" lon="-2.59091">
        <ele>62</ele>
        <time>2016-01-08T09:06:51Z</time>
      </trkpt>
      <trkpt lat="48.49233" lon="-2.59085">
        <ele>62</ele>
        <time>2016-01-08T09:06:54Z</time>
      </trkpt>
      <trkpt lat="48.49234" lon="-2.59078">
        <ele>62</ele>
        <time>2016-01-08T09:06:57Z</time>
      </trkpt>
      <trkpt lat="48.49234" lon="-2.59071">
        <ele>62</ele>
        <time>2016-01-08T09:07:00Z</time>
      </trkpt>
      <trkpt lat="48.49235" lon="-2.59065">
        <ele>62</ele>
        <time>2016-01-08T09:07:03Z</time>
      </trkpt>
      <trkpt lat="48.49236" lon="-2.59058">
        <ele>62</ele>
        <time>2016-01-08T09:07:06Z</time>
      </trkpt>
      <trkpt lat="48.49237" lon="-2.59051">
        <ele>62</ele>
        <time>2016-01-08T09:07:09Z</time>
      </trkpt>
      <trkpt lat="48.49237" lon="-2.59044">
        <ele>62</ele>
        <time>2016-01-08T09:07:12Z</time>
      </trkpt>
      <trkpt lat="48.49238" lon="-2.59036">
        <ele>62</ele>
        <time>2016-01-08T09:07:15Z</time>
      </trkpt>
      <trkpt lat="48.49239" lon="-2.59029">
        <ele>62</ele>
        <time>2016-01-08T09:07:18Z</time>
      </trkpt>
      <trkpt lat="48.4924" lon="-2.59021">
        <ele>62</ele>
        <time>2016-01-08T09:07:21Z</time>
      </trkpt>
      <trkpt lat="48.4924" lon="-2.59014">
        <ele>62</ele>
        <time>2016-01-08T09:07:24Z</time>
      </trkpt>
      <trkpt lat="48.49241" lon="-2.59007">
        <ele>62</ele>
        <time>2016-01-08T09:07:27Z</time>
      </trkpt>
      <trkpt lat="48.49242" lon="-2.59">
        <ele>62</ele>
        <time>2016-01-08T09:07:30Z</time>
      </trkpt>
      <trkpt lat="48.49242" lon="-2.58994">
        <ele>62</ele>
        <time>2016-01-08T09:07:33Z</time>
      </trkpt>
      <trkpt lat="48.49243" lon="-2.58986">
        <ele>62</ele>
        <time>2016-01-08T09:07:36Z</time>
      </trkpt>
      <trkpt lat="48.49244" lon="-2.5898">
        <ele>62</ele>
        <time>2016-01-08T09:07:39Z</time>
      </trkpt>
      <trkpt lat="48.49244" lon="-2.58973">
        <ele>62</ele>
        <time>2016-01-08T09:07:42Z</time>
      </trkpt>
      <trkpt lat="48.49245" lon="-2.58966">
        <ele>62</ele>
        <time>2016-01-08T09:07:45Z</time>
      </trkpt>
      <trkpt lat="48.49245" lon="-2.58959">
        <ele>62</ele>
        <time>2016-01-08T09:07:48Z</time>
      </trkpt>
      <trkpt lat="48.49246" lon="-2.58952">
        <ele>62</ele>
        <time>2016-01-08T09:07:51Z</time>
      </trkpt>
      <trkpt lat="48.49246" lon="-2.58945">
        <ele>63</ele>
        <time>2016-01-08T09:07:54Z</time>
      </trkpt>
      <trkpt lat="48.49246" lon="-2.58939">
        <ele>63</ele>
        <time>2016-01-08T09:07:57Z</time>
      </trkpt>
      <trkpt lat="48.49247" lon="-2.58932">
        <ele>63</ele>
        <time>2016-01-08T09:08:00Z</time>
      </trkpt>
      <trkpt lat="48.49247" lon="-2.58925">
        <ele>63</ele>
        <time>2016-01-08T09:08:03Z</time>
      </trkpt>
      <trkpt lat="48.49247" lon="-2.58917">
        <ele>63</ele>
        <time>2016-01-08T09:08:06Z</time>
      </trkpt>
      <trkpt lat="48.49246" lon="-2.58911">
        <ele>64</ele>
        <time>2016-01-08T09:08:09Z</time>
      </trkpt>
      <trkpt lat="48.49246" lon="-2.58905">
        <ele>64</ele>
        <time>2016-01-08T09:08:12Z</time>
      </trkpt>
      <trkpt lat="48.49245" lon="-2.58899">
        <ele>64</ele>
        <time>2016-01-08T09:08:15Z</time>
      </trkpt>
      <trkpt lat="48.49245" lon="-2.58893">
        <ele>64</ele>
        <time>2016-01-08T09:08:18Z</time>
      </trkpt>
      <trkpt lat="48.49244" lon="-2.58887">
        <ele>64</ele>
        <time>2016-01-08T09:08:21Z</time>
      </trkpt>
      <trkpt lat="48.49243" lon="-2.58881">
        <ele>64</ele>
        <time>2016-01-08T09:08:24Z</time>
      </trkpt>
      <trkpt lat="48.49242" lon="-2.58874">
        <ele>64</ele>
        <time>2016-01-08T09:08:27Z</time>
      </trkpt>
      <trkpt lat="48.49242" lon="-2.58868">
        <ele>64</ele>
        <time>2016-01-08T09:08:30Z</time>
      </trkpt>
      <trkpt lat="48.49241" lon="-2.58861">
        <ele>64</ele>
        <time>2016-01-08T09:08:33Z</time>
      </trkpt>
      <trkpt lat="48.4924" lon="-2.58854">
        <ele>64</ele>
        <time>2016-01-08T09:08:36Z</time>
      </trkpt>
      <trkpt lat="48.49239" lon="-2.58847">
        <ele>65</ele>
        <time>2016-01-08T09:08:39Z</time>
      </trkpt>
      <trkpt lat="48.49238" lon="-2.58841">
        <ele>65</ele>
        <time>2016-01-08T09:08:42Z</time>
      </trkpt>
      <trkpt lat="48.49237" lon="-2.58834">
        <ele>65</ele>
        <time>2016-01-08T09:08:45Z</time>
      </trkpt>
      <trkpt lat="48.49236" lon="-2.58828">
        <ele>65</ele>
        <time>2016-01-08T09:08:48Z</time>
      </trkpt>
      <trkpt lat="48.49236" lon="-2.58822">
        <ele>65</ele>
        <time>2016-01-08T09:08:51Z</time>
      </trkpt>
      <trkpt lat="48.49235" lon="-2.58817">
        <ele>65</ele>
        <time>2016-01-08T09:08:54Z</time>
      </trkpt>
      <trkpt lat="48.49234" lon="-2.58814">
        <ele>66</ele>
        <time>2016-01-08T09:09:15Z</time>
      </trkpt>
      <trkpt lat="48.49234" lon="-2.58812">
        <ele>67</ele>
        <time>2016-01-08T09:09:28Z</time>
      </trkpt>
      <trkpt lat="48.49235" lon="-2.58807">
        <ele>67</ele>
        <time>2016-01-08T09:09:31Z</time>
      </trkpt>
      <trkpt lat="48.49236" lon="-2.58802">
        <ele>67</ele>
        <time>2016-01-08T09:09:34Z</time>
      </trkpt>
      <trkpt lat="48.49238" lon="-2.58798">
        <ele>67</ele>
        <time>2016-01-08T09:09:37Z</time>
      </trkpt>
      <trkpt lat="48.49239" lon="-2.58793">
        <ele>67</ele>
        <time>2016-01-08T09:09:40Z</time>
      </trkpt>
      <trkpt lat="48.49242" lon="-2.58787">
        <ele>67</ele>
        <time>2016-01-08T09:09:43Z</time>
      </trkpt>
      <trkpt lat="48.49246" lon="-2.58782">
        <ele>67</ele>
        <time>2016-01-08T09:09:47Z</time>
      </trkpt>
      <trkpt lat="48.4925" lon="-2.58777">
        <ele>67</ele>
        <time>2016-01-08T09:09:51Z</time>
      </trkpt>
      <trkpt lat="48.49254" lon="-2.58772">
        <ele>67</ele>
        <time>2016-01-08T09:09:55Z</time>
      </trkpt>
      <trkpt lat="48.49258" lon="-2.58766">
        <ele>67</ele>
        <time>2016-01-08T09:09:59Z</time>
      </trkpt>
      <trkpt lat="48.49262" lon="-2.5876">
        <ele>67</ele>
        <time>2016-01-08T09:10:03Z</time>
      </trkpt>
      <trkpt lat="48.49266" lon="-2.58755">
        <ele>67</ele>
        <time>2016-01-08T09:10:07Z</time>
      </trkpt>
      <trkpt lat="48.49271" lon="-2.5875">
        <ele>67</ele>
        <time>2016-01-08T09:10:11Z</time>
      </trkpt>
      <trkpt lat="48.49275" lon="-2.58744">
        <ele>67</ele>
        <time>2016-01-08T09:10:15Z</time>
      </trkpt>
      <trkpt lat="48.49278" lon="-2.5874">
        <ele>67</ele>
        <time>2016-01-08T09:10:18Z</time>
      </trkpt>
      <trkpt lat="48.49281" lon="-2.58736">
        <ele>67</ele>
        <time>2016-01-08T09:10:21Z</time>
      </trkpt>
      <trkpt lat="48.49284" lon="-2.58732">
        <ele>67</ele>
        <time>2016-01-08T09:10:25Z</time>
      </trkpt>
      <trkpt lat="48.49287" lon="-2.58727">
        <ele>67</ele>
        <time>2016-01-08T09:10:29Z</time>
      </trkpt>
      <trkpt lat="48.4929" lon="-2.58722">
        <ele>67</ele>
        <time>2016-01-08T09:10:33Z</time>
      </trkpt>
      <trkpt lat="48.49294" lon="-2.58717">
        <ele>67</ele>
        <time>2016-01-08T09:10:37Z</time>
      </trkpt>
      <trkpt lat="48.49298" lon="-2.58712">
        <ele>67</ele>
        <time>2016-01-08T09:10:41Z</time>
      </trkpt>
      <trkpt lat="48.49302" lon="-2.58706">
        <ele>67</ele>
        <time>2016-01-08T09:10:45Z</time>
      </trkpt>
      <trkpt lat="48.49305" lon="-2.58702">
        <ele>67</ele>
        <time>2016-01-08T09:10:48Z</time>
      </trkpt>
      <trkpt lat="48.49309" lon="-2.58698">
        <ele>67</ele>
        <time>2016-01-08T09:10:52Z</time>
      </trkpt>
      <trkpt lat="48.49313" lon="-2.58692">
        <ele>67</ele>
        <time>2016-01-08T09:10:56Z</time>
      </trkpt>
      <trkpt lat="48.49317" lon="-2.58687">
        <ele>67</ele>
        <time>2016-01-08T09:11:00Z</time>
      </trkpt>
      <trkpt lat="48.4932" lon="-2.58682">
        <ele>67</ele>
        <time>2016-01-08T09:11:03Z</time>
      </trkpt>
      <trkpt lat="48.49324" lon="-2.58677">
        <ele>67</ele>
        <time>2016-01-08T09:11:06Z</time>
      </trkpt>
      <trkpt lat="48.49328" lon="-2.58671">
        <ele>67</ele>
        <time>2016-01-08T09:11:10Z</time>
      </trkpt>
      <trkpt lat="48.49332" lon="-2.58667">
        <ele>67</ele>
        <time>2016-01-08T09:11:13Z</time>
      </trkpt>
      <trkpt lat="48.49335" lon="-2.58662">
        <ele>67</ele>
        <time>2016-01-08T09:11:16Z</time>
      </trkpt>
      <trkpt lat="48.49339" lon="-2.58656">
        <ele>67</ele>
        <time>2016-01-08T09:11:20Z</time>
      </trkpt>
      <trkpt lat="48.49343" lon="-2.58652">
        <ele>67</ele>
        <time>2016-01-08T09:11:23Z</time>
      </trkpt>
      <trkpt lat="48.49347" lon="-2.58647">
        <ele>67</ele>
        <time>2016-01-08T09:11:27Z</time>
      </trkpt>
      <trkpt lat="48.4935" lon="-2.58642">
        <ele>67</ele>
        <time>2016-01-08T09:11:30Z</time>
      </trkpt>
      <trkpt lat="48.49354" lon="-2.58637">
        <ele>67</ele>
        <time>2016-01-08T09:11:34Z</time>
      </trkpt>
      <trkpt lat="48.49358" lon="-2.58631">
        <ele>67</ele>
        <time>2016-01-08T09:11:38Z</time>
      </trkpt>
      <trkpt lat="48.49361" lon="-2.58626">
        <ele>67</ele>
        <time>2016-01-08T09:11:41Z</time>
      </trkpt>
      <trkpt lat="48.49365" lon="-2.58621">
        <ele>67</ele>
        <time>2016-01-08T09:11:44Z</time>
      </trkpt>
      <trkpt lat="48.49369" lon="-2.58615">
        <ele>67</ele>
        <time>2016-01-08T09:11:48Z</time>
      </trkpt>
      <trkpt lat="48.49373" lon="-2.58611">
        <ele>67</ele>
        <time>2016-01-08T09:11:51Z</time>
      </trkpt>
      <trkpt lat="48.49376" lon="-2.58606">
        <ele>67</ele>
        <time>2016-01-08T09:11:54Z</time>
      </trkpt>
      <trkpt lat="48.4938" lon="-2.586">
        <ele>67</ele>
        <time>2016-01-08T09:11:58Z</time>
      </trkpt>
      <trkpt lat="48.49383" lon="-2.58596">
        <ele>67</ele>
        <time>2016-01-08T09:12:01Z</time>
      </trkpt>
      <trkpt lat="48.49386" lon="-2.58592">
        <ele>67</ele>
        <time>2016-01-08T09:12:04Z</time>
      </trkpt>
      <trkpt lat="48.4939" lon="-2.58587">
        <ele>67</ele>
        <time>2016-01-08T09:12:08Z</time>
      </trkpt>
      <trkpt lat="48.49394" lon="-2.58582">
        <ele>67</ele>
        <time>2016-01-08T09:12:12Z</time>
      </trkpt>
      <trkpt lat="48.49398" lon="-2.58577">
        <ele>67</ele>
        <time>2016-01-08T09:12:16Z</time>
      </trkpt>
      <trkpt lat="48.49401" lon="-2.58572">
        <ele>67</ele>
        <time>2016-01-08T09:12:19Z</time>
      </trkpt>
      <trkpt lat="48.49405" lon="-2.58568">
        <ele>67</ele>
        <time>2016-01-08T09:12:22Z</time>
      </trkpt>
      <trkpt lat="48.49408" lon="-2.58563">
        <ele>66</ele>
        <time>2016-01-08T09:12:25Z</time>
      </trkpt>
      <trkpt lat="48.49411" lon="-2.58559">
        <ele>66</ele>
        <time>2016-01-08T09:12:28Z</time>
      </trkpt>
      <trkpt lat="48.49415" lon="-2.58555">
        <ele>65</ele>
        <time>2016-01-08T09:12:31Z</time>
      </trkpt>
      <trkpt lat="48.49419" lon="-2.5855">
        <ele>64</ele>
        <time>2016-01-08T09:12:34Z</time>
      </trkpt>
      <trkpt lat="48.49422" lon="-2.58546">
        <ele>64</ele>
        <time>2016-01-08T09:12:37Z</time>
      </trkpt>
      <trkpt lat="48.49425" lon="-2.58542">
        <ele>64</ele>
        <time>2016-01-08T09:12:40Z</time>
      </trkpt>
      <trkpt lat="48.49429" lon="-2.58538">
        <ele>64</ele>
        <time>2016-01-08T09:12:43Z</time>
      </trkpt>
      <trkpt lat="48.49434" lon="-2.58533">
        <ele>64</ele>
        <time>2016-01-08T09:12:47Z</time>
      </trkpt>
      <trkpt lat="48.49437" lon="-2.58529">
        <ele>64</ele>
        <time>2016-01-08T09:12:50Z</time>
      </trkpt>
      <trkpt lat="48.4944" lon="-2.58525">
        <ele>64</ele>
        <time>2016-01-08T09:12:53Z</time>
      </trkpt>
      <trkpt lat="48.49443" lon="-2.58522">
        <ele>64</ele>
        <time>2016-01-08T09:12:56Z</time>
      </trkpt>
      <trkpt lat="48.49448" lon="-2.58517">
        <ele>63</ele>
        <time>2016-01-08T09:13:00Z</time>
      </trkpt>
      <trkpt lat="48.49452" lon="-2.58512">
        <ele>62</ele>
        <time>2016-01-08T09:13:04Z</time>
      </trkpt>
      <trkpt lat="48.49456" lon="-2.58507">
        <ele>62</ele>
        <time>2016-01-08T09:13:08Z</time>
      </trkpt>
      <trkpt lat="48.4946" lon="-2.58504">
        <ele>62</ele>
        <time>2016-01-08T09:13:11Z</time>
      </trkpt>
      <trkpt lat="48.49463" lon="-2.585">
        <ele>61</ele>
        <time>2016-01-08T09:13:14Z</time>
      </trkpt>
      <trkpt lat="48.49467" lon="-2.58495">
        <ele>61</ele>
        <time>2016-01-08T09:13:18Z</time>
      </trkpt>
      <trkpt lat="48.4947" lon="-2.58491">
        <ele>60</ele>
        <time>2016-01-08T09:13:21Z</time>
      </trkpt>
      <trkpt lat="48.49474" lon="-2.58487">
        <ele>60</ele>
        <time>2016-01-08T09:13:25Z</time>
      </trkpt>
      <trkpt lat="48.49477" lon="-2.58483">
        <ele>60</ele>
        <time>2016-01-08T09:13:28Z</time>
      </trkpt>
      <trkpt lat="48.49481" lon="-2.58477">
        <ele>60</ele>
        <time>2016-01-08T09:13:32Z</time>
      </trkpt>
      <trkpt lat="48.49485" lon="-2.58473">
        <ele>60</ele>
        <time>2016-01-08T09:13:35Z</time>
      </trkpt>
      <trkpt lat="48.49487" lon="-2.58469">
        <ele>60</ele>
        <time>2016-01-08T09:13:38Z</time>
      </trkpt>
      <trkpt lat="48.4949" lon="-2.58464">
        <ele>59</ele>
        <time>2016-01-08T09:13:41Z</time>
      </trkpt>
      <trkpt lat="48.49494" lon="-2.58457">
        <ele>58</ele>
        <time>2016-01-08T09:13:45Z</time>
      </trkpt>
      <trkpt lat="48.49497" lon="-2.58452">
        <ele>58</ele>
        <time>2016-01-08T09:13:48Z</time>
      </trkpt>
      <trkpt lat="48.495" lon="-2.58446">
        <ele>57</ele>
        <time>2016-01-08T09:13:51Z</time>
      </trkpt>
      <trkpt lat="48.49503" lon="-2.5844">
        <ele>56</ele>
        <time>2016-01-08T09:13:55Z</time>
      </trkpt>
      <trkpt lat="48.49506" lon="-2.58435">
        <ele>55</ele>
        <time>2016-01-08T09:13:59Z</time>
      </trkpt>
      <trkpt lat="48.49509" lon="-2.5843">
        <ele>54</ele>
        <time>2016-01-08T09:14:02Z</time>
      </trkpt>
      <trkpt lat="48.4951" lon="-2.58425">
        <ele>53</ele>
        <time>2016-01-08T09:14:05Z</time>
      </trkpt>
      <trkpt lat="48.49511" lon="-2.58418">
        <ele>52</ele>
        <time>2016-01-08T09:14:08Z</time>
      </trkpt>
      <trkpt lat="48.49511" lon="-2.58411">
        <ele>52</ele>
        <time>2016-01-08T09:14:12Z</time>
      </trkpt>
      <trkpt lat="48.49511" lon="-2.5841">
        <ele>52</ele>
        <time>2016-01-08T09:14:19Z</time>
      </trkpt>
      <trkpt lat="48.49509" lon="-2.58408">
        <ele>52</ele>
        <time>2016-01-08T09:14:32Z</time>
      </trkpt>
      <trkpt lat="48.49509" lon="-2.58406">
        <ele>52</ele>
        <time>2016-01-08T09:14:39Z</time>
      </trkpt>
      <trkpt lat="48.49508" lon="-2.58403">
        <ele>52</ele>
        <time>2016-01-08T09:14:42Z</time>
      </trkpt>
      <trkpt lat="48.49507" lon="-2.58397">
        <ele>52</ele>
        <time>2016-01-08T09:14:46Z</time>
      </trkpt>
      <trkpt lat="48.49507" lon="-2.58392">
        <ele>52</ele>
        <time>2016-01-08T09:14:50Z</time>
      </trkpt>
      <trkpt lat="48.49507" lon="-2.58386">
        <ele>52</ele>
        <time>2016-01-08T09:14:54Z</time>
      </trkpt>
      <trkpt lat="48.49507" lon="-2.58382">
        <ele>52</ele>
        <time>2016-01-08T09:14:58Z</time>
      </trkpt>
      <trkpt lat="48.49507" lon="-2.58376">
        <ele>52</ele>
        <time>2016-01-08T09:15:01Z</time>
      </trkpt>
      <trkpt lat="48.49507" lon="-2.58371">
        <ele>52</ele>
        <time>2016-01-08T09:15:04Z</time>
      </trkpt>
      <trkpt lat="48.49507" lon="-2.58365">
        <ele>52</ele>
        <time>2016-01-08T09:15:07Z</time>
      </trkpt>
      <trkpt lat="48.49506" lon="-2.58359">
        <ele>52</ele>
        <time>2016-01-08T09:15:10Z</time>
      </trkpt>
      <trkpt lat="48.49506" lon="-2.58352">
        <ele>52</ele>
        <time>2016-01-08T09:15:14Z</time>
      </trkpt>
      <trkpt lat="48.49506" lon="-2.58346">
        <ele>53</ele>
        <time>2016-01-08T09:15:18Z</time>
      </trkpt>
      <trkpt lat="48.49506" lon="-2.5834">
        <ele>53</ele>
        <time>2016-01-08T09:15:21Z</time>
      </trkpt>
      <trkpt lat="48.49507" lon="-2.58333">
        <ele>53</ele>
        <time>2016-01-08T09:15:24Z</time>
      </trkpt>
      <trkpt lat="48.49507" lon="-2.58328">
        <ele>53</ele>
        <time>2016-01-08T09:15:27Z</time>
      </trkpt>
      <trkpt lat="48.49509" lon="-2.58322">
        <ele>53</ele>
        <time>2016-01-08T09:15:31Z</time>
      </trkpt>
      <trkpt lat="48.49512" lon="-2.58317">
        <ele>53</ele>
        <time>2016-01-08T09:15:34Z</time>
      </trkpt>
      <trkpt lat="48.49513" lon="-2.5831">
        <ele>53</ele>
        <time>2016-01-08T09:15:37Z</time>
      </trkpt>
      <trkpt lat="48.49514" lon="-2.58304">
        <ele>53</ele>
        <time>2016-01-08T09:15:40Z</time>
      </trkpt>
      <trkpt lat="48.49516" lon="-2.58297">
        <ele>54</ele>
        <time>2016-01-08T09:15:43Z</time>
      </trkpt>
      <trkpt lat="48.49517" lon="-2.58288">
        <ele>56</ele>
        <time>2016-01-08T09:15:47Z</time>
      </trkpt>
      <trkpt lat="48.49517" lon="-2.58282">
        <ele>56</ele>
        <time>2016-01-08T09:15:50Z</time>
      </trkpt>
      <trkpt lat="48.49518" lon="-2.58277">
        <ele>57</ele>
        <time>2016-01-08T09:15:53Z</time>
      </trkpt>
      <trkpt lat="48.49519" lon="-2.58272">
        <ele>58</ele>
        <time>2016-01-08T09:15:56Z</time>
      </trkpt>
      <trkpt lat="48.49519" lon="-2.58266">
        <ele>58</ele>
        <time>2016-01-08T09:15:59Z</time>
      </trkpt>
      <trkpt lat="48.49519" lon="-2.5826">
        <ele>58</ele>
        <time>2016-01-08T09:16:02Z</time>
      </trkpt>
      <trkpt lat="48.4952" lon="-2.58253">
        <ele>58</ele>
        <time>2016-01-08T09:16:05Z</time>
      </trkpt>
      <trkpt lat="48.4952" lon="-2.58245">
        <ele>58</ele>
        <time>2016-01-08T09:16:09Z</time>
      </trkpt>
      <trkpt lat="48.49521" lon="-2.58242">
        <ele>58</ele>
        <time>2016-01-08T09:16:12Z</time>
      </trkpt>
      <trkpt lat="48.49522" lon="-2.58235">
        <ele>58</ele>
        <time>2016-01-08T09:16:15Z</time>
      </trkpt>
      <trkpt lat="48.49524" lon="-2.5823">
        <ele>58</ele>
        <time>2016-01-08T09:16:18Z</time>
      </trkpt>
      <trkpt lat="48.49525" lon="-2.58225">
        <ele>58</ele>
        <time>2016-01-08T09:16:21Z</time>
      </trkpt>
      <trkpt lat="48.49527" lon="-2.58219">
        <ele>56</ele>
        <time>2016-01-08T09:16:25Z</time>
      </trkpt>
      <trkpt lat="48.49529" lon="-2.58214">
        <ele>55</ele>
        <time>2016-01-08T09:16:29Z</time>
      </trkpt>
      <trkpt lat="48.4953" lon="-2.58207">
        <ele>54</ele>
        <time>2016-01-08T09:16:33Z</time>
      </trkpt>
      <trkpt lat="48.49529" lon="-2.58201">
        <ele>54</ele>
        <time>2016-01-08T09:16:36Z</time>
      </trkpt>
      <trkpt lat="48.49526" lon="-2.58195">
        <ele>54</ele>
        <time>2016-01-08T09:16:40Z</time>
      </trkpt>
      <trkpt lat="48.49525" lon="-2.58191">
        <ele>54</ele>
        <time>2016-01-08T09:16:44Z</time>
      </trkpt>
      <trkpt lat="48.49522" lon="-2.58189">
        <ele>54</ele>
        <time>2016-01-08T09:16:48Z</time>
      </trkpt>
      <trkpt lat="48.4952" lon="-2.58188">
        <ele>54</ele>
        <time>2016-01-08T09:16:53Z</time>
      </trkpt>
      <trkpt lat="48.49518" lon="-2.58187">
        <ele>54</ele>
        <time>2016-01-08T09:16:57Z</time>
      </trkpt>
      <trkpt lat="48.49516" lon="-2.58187">
        <ele>54</ele>
        <time>2016-01-08T09:17:00Z</time>
      </trkpt>
      <trkpt lat="48.49515" lon="-2.58188">
        <ele>54</ele>
        <time>2016-01-08T09:17:03Z</time>
      </trkpt>
      <trkpt lat="48.49512" lon="-2.58187">
        <ele>54</ele>
        <time>2016-01-08T09:17:07Z</time>
      </trkpt>
      <trkpt lat="48.49511" lon="-2.58185">
        <ele>54</ele>
        <time>2016-01-08T09:17:10Z</time>
      </trkpt>
      <trkpt lat="48.49508" lon="-2.58181">
        <ele>54</ele>
        <time>2016-01-08T09:17:15Z</time>
      </trkpt>
      <trkpt lat="48.49509" lon="-2.5818">
        <ele>53</ele>
        <time>2016-01-08T09:17:31Z</time>
      </trkpt>
      <trkpt lat="48.49512" lon="-2.58179">
        <ele>56</ele>
        <time>2016-01-08T09:17:36Z</time>
      </trkpt>
      <trkpt lat="48.49513" lon="-2.58176">
        <ele>59</ele>
        <time>2016-01-08T09:17:42Z</time>
      </trkpt>
      <trkpt lat="48.49512" lon="-2.58172">
        <ele>62</ele>
        <time>2016-01-08T09:17:52Z</time>
      </trkpt>
      <trkpt lat="48.4951" lon="-2.58173">
        <ele>62</ele>
        <time>2016-01-08T09:17:55Z</time>
      </trkpt>
      <trkpt lat="48.49507" lon="-2.58173">
        <ele>62</ele>
        <time>2016-01-08T09:17:59Z</time>
      </trkpt>
      <trkpt lat="48.49504" lon="-2.58171">
        <ele>62</ele>
        <time>2016-01-08T09:18:03Z</time>
      </trkpt>
      <trkpt lat="48.49505" lon="-2.58169">
        <ele>62</ele>
        <time>2016-01-08T09:18:06Z</time>
      </trkpt>
      <trkpt lat="48.49504" lon="-2.58168">
        <ele>62</ele>
        <time>2016-01-08T09:18:10Z</time>
      </trkpt>
      <trkpt lat="48.49503" lon="-2.58163">
        <ele>62</ele>
        <time>2016-01-08T09:18:17Z</time>
      </trkpt>
      <trkpt lat="48.49501" lon="-2.58162">
        <ele>62</ele>
        <time>2016-01-08T09:18:25Z</time>
      </trkpt>
      <trkpt lat="48.49498" lon="-2.58161">
        <ele>62</ele>
        <time>2016-01-08T09:18:30Z</time>
      </trkpt>
      <trkpt lat="48.49493" lon="-2.58157">
        <ele>61</ele>
        <time>2016-01-08T09:18:34Z</time>
      </trkpt>
      <trkpt lat="48.49489" lon="-2.58154">
        <ele>59</ele>
        <time>2016-01-08T09:18:38Z</time>
      </trkpt>
      <trkpt lat="48.49485" lon="-2.58152">
        <ele>59</ele>
        <time>2016-01-08T09:18:43Z</time>
      </trkpt>
      <trkpt lat="48.49482" lon="-2.58155">
        <ele>58</ele>
        <time>2016-01-08T09:18:48Z</time>
      </trkpt>
      <trkpt lat="48.4948" lon="-2.5816">
        <ele>58</ele>
        <time>2016-01-08T09:18:51Z</time>
      </trkpt>
      <trkpt lat="48.49477" lon="-2.58162">
        <ele>58</ele>
        <time>2016-01-08T09:18:54Z</time>
      </trkpt>
      <trkpt lat="48.49473" lon="-2.58162">
        <ele>58</ele>
        <time>2016-01-08T09:18:57Z</time>
      </trkpt>
      <trkpt lat="48.4947" lon="-2.58162">
        <ele>58</ele>
        <time>2016-01-08T09:19:00Z</time>
      </trkpt>
      <trkpt lat="48.49466" lon="-2.58162">
        <ele>58</ele>
        <time>2016-01-08T09:19:03Z</time>
      </trkpt>
      <trkpt lat="48.49463" lon="-2.58163">
        <ele>56</ele>
        <time>2016-01-08T09:19:06Z</time>
      </trkpt>
      <trkpt lat="48.49459" lon="-2.58162">
        <ele>56</ele>
        <time>2016-01-08T09:19:10Z</time>
      </trkpt>
      <trkpt lat="48.49457" lon="-2.58162">
        <ele>56</ele>
        <time>2016-01-08T09:19:13Z</time>
      </trkpt>
      <trkpt lat="48.49456" lon="-2.58161">
        <ele>57</ele>
        <time>2016-01-08T09:19:17Z</time>
      </trkpt>
      <trkpt lat="48.49455" lon="-2.58162">
        <ele>59</ele>
        <time>2016-01-08T09:19:28Z</time>
      </trkpt>
      <trkpt lat="48.49453" lon="-2.58163">
        <ele>62</ele>
        <time>2016-01-08T09:19:34Z</time>
      </trkpt>
      <trkpt lat="48.49452" lon="-2.58163">
        <ele>64</ele>
        <time>2016-01-08T09:19:37Z</time>
      </trkpt>
      <trkpt lat="48.49451" lon="-2.58163">
        <ele>64</ele>
        <time>2016-01-08T09:19:41Z</time>
      </trkpt>
      <trkpt lat="48.49447" lon="-2.58158">
        <ele>65</ele>
        <time>2016-01-08T09:19:44Z</time>
      </trkpt>
      <trkpt lat="48.49447" lon="-2.58153">
        <ele>65</ele>
        <time>2016-01-08T09:19:47Z</time>
      </trkpt>
      <trkpt lat="48.4945" lon="-2.58151">
        <ele>65</ele>
        <time>2016-01-08T09:19:52Z</time>
      </trkpt>
      <trkpt lat="48.49451" lon="-2.58148">
        <ele>61</ele>
        <time>2016-01-08T09:19:55Z</time>
      </trkpt>
      <trkpt lat="48.49453" lon="-2.58143">
        <ele>59</ele>
        <time>2016-01-08T09:19:59Z</time>
      </trkpt>
      <trkpt lat="48.49453" lon="-2.58139">
        <ele>56</ele>
        <time>2016-01-08T09:20:03Z</time>
      </trkpt>
      <trkpt lat="48.49454" lon="-2.58135">
        <ele>55</ele>
        <time>2016-01-08T09:20:08Z</time>
      </trkpt>
      <trkpt lat="48.49453" lon="-2.58133">
        <ele>55</ele>
        <time>2016-01-08T09:20:11Z</time>
      </trkpt>
      <trkpt lat="48.49455" lon="-2.58131">
        <ele>55</ele>
        <time>2016-01-08T09:20:17Z</time>
      </trkpt>
      <trkpt lat="48.49456" lon="-2.58132">
        <ele>55</ele>
        <time>2016-01-08T09:20:20Z</time>
      </trkpt>
      <trkpt lat="48.49457" lon="-2.58132">
        <ele>55</ele>
        <time>2016-01-08T09:20:25Z</time>
      </trkpt>
      <trkpt lat="48.49458" lon="-2.5813">
        <ele>55</ele>
        <time>2016-01-08T09:20:38Z</time>
      </trkpt>
      <trkpt lat="48.49459" lon="-2.58129">
        <ele>52</ele>
        <time>2016-01-08T09:20:44Z</time>
      </trkpt>
      <trkpt lat="48.49462" lon="-2.58128">
        <ele>52</ele>
        <time>2016-01-08T09:20:48Z</time>
      </trkpt>
      <trkpt lat="48.49464" lon="-2.58126">
        <ele>51</ele>
        <time>2016-01-08T09:20:52Z</time>
      </trkpt>
      <trkpt lat="48.49466" lon="-2.58121">
        <ele>50</ele>
        <time>2016-01-08T09:20:57Z</time>
      </trkpt>
      <trkpt lat="48.49469" lon="-2.58119">
        <ele>50</ele>
        <time>2016-01-08T09:21:03Z</time>
      </trkpt>
      <trkpt lat="48.49469" lon="-2.58117">
        <ele>50</ele>
        <time>2016-01-08T09:21:06Z</time>
      </trkpt>
      <trkpt lat="48.49469" lon="-2.58113">
        <ele>50</ele>
        <time>2016-01-08T09:21:10Z</time>
      </trkpt>
      <trkpt lat="48.49471" lon="-2.58111">
        <ele>50</ele>
        <time>2016-01-08T09:21:14Z</time>
      </trkpt>
      <trkpt lat="48.49472" lon="-2.58113">
        <ele>50</ele>
        <time>2016-01-08T09:21:18Z</time>
      </trkpt>
      <trkpt lat="48.49472" lon="-2.58114">
        <ele>48</ele>
        <time>2016-01-08T09:21:26Z</time>
      </trkpt>
      <trkpt lat="48.49472" lon="-2.58116">
        <ele>47</ele>
        <time>2016-01-08T09:21:36Z</time>
      </trkpt>
      <trkpt lat="48.49471" lon="-2.58115">
        <ele>46</ele>
        <time>2016-01-08T09:21:43Z</time>
      </trkpt>
      <trkpt lat="48.49472" lon="-2.58114">
        <ele>46</ele>
        <time>2016-01-08T09:21:47Z</time>
      </trkpt>
      <trkpt lat="48.49475" lon="-2.58114">
        <ele>45</ele>
        <time>2016-01-08T09:21:50Z</time>
      </trkpt>
      <trkpt lat="48.4948" lon="-2.58115">
        <ele>45</ele>
        <time>2016-01-08T09:21:53Z</time>
      </trkpt>
      <trkpt lat="48.49483" lon="-2.58116">
        <ele>45</ele>
        <time>2016-01-08T09:21:56Z</time>
      </trkpt>
      <trkpt lat="48.49488" lon="-2.58116">
        <ele>45</ele>
        <time>2016-01-08T09:21:59Z</time>
      </trkpt>
      <trkpt lat="48.49491" lon="-2.58117">
        <ele>45</ele>
        <time>2016-01-08T09:22:03Z</time>
      </trkpt>
      <trkpt lat="48.49493" lon="-2.58117">
        <ele>44</ele>
        <time>2016-01-08T09:22:06Z</time>
      </trkpt>
      <trkpt lat="48.49498" lon="-2.58115">
        <ele>44</ele>
        <time>2016-01-08T09:22:10Z</time>
      </trkpt>
      <trkpt lat="48.49502" lon="-2.58117">
        <ele>43</ele>
        <time>2016-01-08T09:22:14Z</time>
      </trkpt>
      <trkpt lat="48.49504" lon="-2.58121">
        <ele>42</ele>
        <time>2016-01-08T09:22:18Z</time>
      </trkpt>
      <trkpt lat="48.49506" lon="-2.58123">
        <ele>41</ele>
        <time>2016-01-08T09:22:22Z</time>
      </trkpt>
      <trkpt lat="48.49507" lon="-2.58124">
        <ele>41</ele>
        <time>2016-01-08T09:22:28Z</time>
      </trkpt>
      <trkpt lat="48.49508" lon="-2.58125">
        <ele>41</ele>
        <time>2016-01-08T09:22:35Z</time>
      </trkpt>
      <trkpt lat="48.49509" lon="-2.58127">
        <ele>41</ele>
        <time>2016-01-08T09:22:40Z</time>
      </trkpt>
      <trkpt lat="48.49509" lon="-2.58129">
        <ele>41</ele>
        <time>2016-01-08T09:22:43Z</time>
      </trkpt>
      <trkpt lat="48.49508" lon="-2.58133">
        <ele>41</ele>
        <time>2016-01-08T09:22:49Z</time>
      </trkpt>
      <trkpt lat="48.49512" lon="-2.58138">
        <ele>41</ele>
        <time>2016-01-08T09:22:53Z</time>
      </trkpt>
      <trkpt lat="48.49515" lon="-2.58141">
        <ele>41</ele>
        <time>2016-01-08T09:22:59Z</time>
      </trkpt>
      <trkpt lat="48.49518" lon="-2.58144">
        <ele>41</ele>
        <time>2016-01-08T09:23:03Z</time>
      </trkpt>
      <trkpt lat="48.49519" lon="-2.58146">
        <ele>41</ele>
        <time>2016-01-08T09:23:06Z</time>
      </trkpt>
      <trkpt lat="48.4952" lon="-2.58144">
        <ele>41</ele>
        <time>2016-01-08T09:23:11Z</time>
      </trkpt>
      <trkpt lat="48.49523" lon="-2.58146">
        <ele>42</ele>
        <time>2016-01-08T09:23:14Z</time>
      </trkpt>
      <trkpt lat="48.49525" lon="-2.58146">
        <ele>42</ele>
        <time>2016-01-08T09:23:17Z</time>
      </trkpt>
      <trkpt lat="48.49529" lon="-2.58148">
        <ele>42</ele>
        <time>2016-01-08T09:23:21Z</time>
      </trkpt>
      <trkpt lat="48.49532" lon="-2.58149">
        <ele>42</ele>
        <time>2016-01-08T09:23:24Z</time>
      </trkpt>
      <trkpt lat="48.49534" lon="-2.58155">
        <ele>42</ele>
        <time>2016-01-08T09:23:28Z</time>
      </trkpt>
      <trkpt lat="48.49535" lon="-2.58158">
        <ele>42</ele>
        <time>2016-01-08T09:23:32Z</time>
      </trkpt>
      <trkpt lat="48.49537" lon="-2.5816">
        <ele>42</ele>
        <time>2016-01-08T09:23:35Z</time>
      </trkpt>
      <trkpt lat="48.4954" lon="-2.58162">
        <ele>42</ele>
        <time>2016-01-08T09:23:38Z</time>
      </trkpt>
      <trkpt lat="48.49543" lon="-2.58163">
        <ele>42</ele>
        <time>2016-01-08T09:23:42Z</time>
      </trkpt>
      <trkpt lat="48.49546" lon="-2.58165">
        <ele>42</ele>
        <time>2016-01-08T09:23:48Z</time>
      </trkpt>
      <trkpt lat="48.49545" lon="-2.58162">
        <ele>47</ele>
        <time>2016-01-08T09:23:59Z</time>
      </trkpt>
      <trkpt lat="48.49546" lon="-2.58162">
        <ele>49</ele>
        <time>2016-01-08T09:24:03Z</time>
      </trkpt>
      <trkpt lat="48.49548" lon="-2.58167">
        <ele>49</ele>
        <time>2016-01-08T09:24:07Z</time>
      </trkpt>
      <trkpt lat="48.49548" lon="-2.58169">
        <ele>49</ele>
        <time>2016-01-08T09:24:11Z</time>
      </trkpt>
      <trkpt lat="48.49551" lon="-2.58172">
        <ele>47</ele>
        <time>2016-01-08T09:24:17Z</time>
      </trkpt>
      <trkpt lat="48.49552" lon="-2.58173">
        <ele>45</ele>
        <time>2016-01-08T09:24:20Z</time>
      </trkpt>
      <trkpt lat="48.49553" lon="-2.58176">
        <ele>44</ele>
        <time>2016-01-08T09:24:23Z</time>
      </trkpt>
      <trkpt lat="48.49556" lon="-2.58181">
        <ele>42</ele>
        <time>2016-01-08T09:24:26Z</time>
      </trkpt>
      <trkpt lat="48.49559" lon="-2.58184">
        <ele>41</ele>
        <time>2016-01-08T09:24:30Z</time>
      </trkpt>
      <trkpt lat="48.4956" lon="-2.58188">
        <ele>41</ele>
        <time>2016-01-08T09:24:33Z</time>
      </trkpt>
      <trkpt lat="48.49559" lon="-2.58192">
        <ele>40</ele>
        <time>2016-01-08T09:24:36Z</time>
      </trkpt>
      <trkpt lat="48.49562" lon="-2.58196">
        <ele>40</ele>
        <time>2016-01-08T09:24:45Z</time>
      </trkpt>
      <trkpt lat="48.49564" lon="-2.58201">
        <ele>40</ele>
        <time>2016-01-08T09:24:50Z</time>
      </trkpt>
      <trkpt lat="48.49564" lon="-2.58206">
        <ele>40</ele>
        <time>2016-01-08T09:24:53Z</time>
      </trkpt>
      <trkpt lat="48.49566" lon="-2.58211">
        <ele>40</ele>
        <time>2016-01-08T09:24:57Z</time>
      </trkpt>
      <trkpt lat="48.49564" lon="-2.58214">
        <ele>40</ele>
        <time>2016-01-08T09:25:03Z</time>
      </trkpt>
      <trkpt lat="48.49562" lon="-2.58218">
        <ele>41</ele>
        <time>2016-01-08T09:25:07Z</time>
      </trkpt>
      <trkpt lat="48.49561" lon="-2.58219">
        <ele>41</ele>
        <time>2016-01-08T09:25:10Z</time>
      </trkpt>
      <trkpt lat="48.49557" lon="-2.58219">
        <ele>41</ele>
        <time>2016-01-08T09:25:13Z</time>
      </trkpt>
      <trkpt lat="48.49557" lon="-2.5822">
        <ele>42</ele>
        <time>2016-01-08T09:25:17Z</time>
      </trkpt>
      <trkpt lat="48.49557" lon="-2.58222">
        <ele>44</ele>
        <time>2016-01-08T09:25:24Z</time>
      </trkpt>
      <trkpt lat="48.49556" lon="-2.58222">
        <ele>45</ele>
        <time>2016-01-08T09:25:28Z</time>
      </trkpt>
      <trkpt lat="48.49555" lon="-2.58223">
        <ele>47</ele>
        <time>2016-01-08T09:25:31Z</time>
      </trkpt>
      <trkpt lat="48.49552" lon="-2.58221">
        <ele>51</ele>
        <time>2016-01-08T09:25:35Z</time>
      </trkpt>
      <trkpt lat="48.49551" lon="-2.58223">
        <ele>53</ele>
        <time>2016-01-08T09:25:38Z</time>
      </trkpt>
      <trkpt lat="48.49549" lon="-2.58223">
        <ele>55</ele>
        <time>2016-01-08T09:25:42Z</time>
      </trkpt>
      <trkpt lat="48.49548" lon="-2.58226">
        <ele>58</ele>
        <time>2016-01-08T09:25:47Z</time>
      </trkpt>
      <trkpt lat="48.4955" lon="-2.5823">
        <ele>58</ele>
        <time>2016-01-08T09:25:52Z</time>
      </trkpt>
      <trkpt lat="48.49551" lon="-2.58233">
        <ele>58</ele>
        <time>2016-01-08T09:25:55Z</time>
      </trkpt>
      <trkpt lat="48.49553" lon="-2.58236">
        <ele>57</ele>
        <time>2016-01-08T09:25:58Z</time>
      </trkpt>
      <trkpt lat="48.49553" lon="-2.58243">
        <ele>53</ele>
        <time>2016-01-08T09:26:02Z</time>
      </trkpt>
      <trkpt lat="48.49552" lon="-2.58249">
        <ele>52</ele>
        <time>2016-01-08T09:26:05Z</time>
      </trkpt>
      <trkpt lat="48.49552" lon="-2.58256">
        <ele>50</ele>
        <time>2016-01-08T09:26:09Z</time>
      </trkpt>
      <trkpt lat="48.49552" lon="-2.58263">
        <ele>49</ele>
        <time>2016-01-08T09:26:12Z</time>
      </trkpt>
      <trkpt lat="48.4955" lon="-2.58269">
        <ele>47</ele>
        <time>2016-01-08T09:26:15Z</time>
      </trkpt>
      <trkpt lat="48.49549" lon="-2.58274">
        <ele>46</ele>
        <time>2016-01-08T09:26:19Z</time>
      </trkpt>
      <trkpt lat="48.4955" lon="-2.58283">
        <ele>44</ele>
        <time>2016-01-08T09:26:22Z</time>
      </trkpt>
      <trkpt lat="48.49549" lon="-2.58289">
        <ele>42</ele>
        <time>2016-01-08T09:26:25Z</time>
      </trkpt>
      <trkpt lat="48.49547" lon="-2.58296">
        <ele>41</ele>
        <time>2016-01-08T09:26:28Z</time>
      </trkpt>
      <trkpt lat="48.49546" lon="-2.58302">
        <ele>41</ele>
        <time>2016-01-08T09:26:31Z</time>
      </trkpt>
      <trkpt lat="48.49543" lon="-2.58305">
        <ele>41</ele>
        <time>2016-01-08T09:26:37Z</time>
      </trkpt>
      <trkpt lat="48.4954" lon="-2.58305">
        <ele>44</ele>
        <time>2016-01-08T09:26:42Z</time>
      </trkpt>
      <trkpt lat="48.49537" lon="-2.58303">
        <ele>48</ele>
        <time>2016-01-08T09:26:46Z</time>
      </trkpt>
      <trkpt lat="48.49535" lon="-2.58303">
        <ele>51</ele>
        <time>2016-01-08T09:26:49Z</time>
      </trkpt>
      <trkpt lat="48.49534" lon="-2.58301">
        <ele>54</ele>
        <time>2016-01-08T09:26:52Z</time>
      </trkpt>
      <trkpt lat="48.49533" lon="-2.583">
        <ele>57</ele>
        <time>2016-01-08T09:26:55Z</time>
      </trkpt>
      <trkpt lat="48.49533" lon="-2.58303">
        <ele>60</ele>
        <time>2016-01-08T09:26:58Z</time>
      </trkpt>
      <trkpt lat="48.49535" lon="-2.58309">
        <ele>62</ele>
        <time>2016-01-08T09:27:01Z</time>
      </trkpt>
      <trkpt lat="48.49536" lon="-2.58311">
        <ele>62</ele>
        <time>2016-01-08T09:27:04Z</time>
      </trkpt>
      <trkpt lat="48.49536" lon="-2.58315">
        <ele>62</ele>
        <time>2016-01-08T09:27:08Z</time>
      </trkpt>
      <trkpt lat="48.49535" lon="-2.58317">
        <ele>60</ele>
        <time>2016-01-08T09:27:11Z</time>
      </trkpt>
      <trkpt lat="48.49535" lon="-2.58321">
        <ele>58</ele>
        <time>2016-01-08T09:27:14Z</time>
      </trkpt>
      <trkpt lat="48.49535" lon="-2.58326">
        <ele>55</ele>
        <time>2016-01-08T09:27:17Z</time>
      </trkpt>
      <trkpt lat="48.49535" lon="-2.5833">
        <ele>55</ele>
        <time>2016-01-08T09:27:21Z</time>
      </trkpt>
      <trkpt lat="48.49533" lon="-2.58335">
        <ele>54</ele>
        <time>2016-01-08T09:27:25Z</time>
      </trkpt>
      <trkpt lat="48.4953" lon="-2.5834">
        <ele>52</ele>
        <time>2016-01-08T09:27:28Z</time>
      </trkpt>
      <trkpt lat="48.49531" lon="-2.58346">
        <ele>50</ele>
        <time>2016-01-08T09:27:31Z</time>
      </trkpt>
      <trkpt lat="48.49532" lon="-2.5835">
        <ele>50</ele>
        <time>2016-01-08T09:27:34Z</time>
      </trkpt>
      <trkpt lat="48.49534" lon="-2.58354">
        <ele>50</ele>
        <time>2016-01-08T09:27:38Z</time>
      </trkpt>
      <trkpt lat="48.49534" lon="-2.5836">
        <ele>50</ele>
        <time>2016-01-08T09:27:42Z</time>
      </trkpt>
      <trkpt lat="48.49535" lon="-2.58362">
        <ele>50</ele>
        <time>2016-01-08T09:27:46Z</time>
      </trkpt>
      <trkpt lat="48.49535" lon="-2.58364">
        <ele>50</ele>
        <time>2016-01-08T09:27:49Z</time>
      </trkpt>
      <trkpt lat="48.49537" lon="-2.58365">
        <ele>48</ele>
        <time>2016-01-08T09:27:54Z</time>
      </trkpt>
      <trkpt lat="48.49538" lon="-2.58366">
        <ele>47</ele>
        <time>2016-01-08T09:28:00Z</time>
      </trkpt>
      <trkpt lat="48.4954" lon="-2.58369">
        <ele>46</ele>
        <time>2016-01-08T09:28:04Z</time>
      </trkpt>
      <trkpt lat="48.49542" lon="-2.5837">
        <ele>45</ele>
        <time>2016-01-08T09:28:10Z</time>
      </trkpt>
      <trkpt lat="48.49544" lon="-2.58375">
        <ele>45</ele>
        <time>2016-01-08T09:28:15Z</time>
      </trkpt>
      <trkpt lat="48.49546" lon="-2.58379">
        <ele>44</ele>
        <time>2016-01-08T09:28:19Z</time>
      </trkpt>
      <trkpt lat="48.49547" lon="-2.58384">
        <ele>44</ele>
        <time>2016-01-08T09:28:23Z</time>
      </trkpt>
      <trkpt lat="48.49546" lon="-2.58389">
        <ele>43</ele>
        <time>2016-01-08T09:28:27Z</time>
      </trkpt>
      <trkpt lat="48.49544" lon="-2.58395">
        <ele>43</ele>
        <time>2016-01-08T09:28:31Z</time>
      </trkpt>
      <trkpt lat="48.49542" lon="-2.58398">
        <ele>43</ele>
        <time>2016-01-08T09:28:34Z</time>
      </trkpt>
      <trkpt lat="48.49542" lon="-2.584">
        <ele>43</ele>
        <time>2016-01-08T09:28:37Z</time>
      </trkpt>
      <trkpt lat="48.49543" lon="-2.58402">
        <ele>43</ele>
        <time>2016-01-08T09:28:42Z</time>
      </trkpt>
      <trkpt lat="48.49543" lon="-2.58407">
        <ele>43</ele>
        <time>2016-01-08T09:28:45Z</time>
      </trkpt>
      <trkpt lat="48.49544" lon="-2.58413">
        <ele>43</ele>
        <time>2016-01-08T09:28:48Z</time>
      </trkpt>
      <trkpt lat="48.49545" lon="-2.58416">
        <ele>43</ele>
        <time>2016-01-08T09:28:51Z</time>
      </trkpt>
      <trkpt lat="48.49546" lon="-2.5842">
        <ele>43</ele>
        <time>2016-01-08T09:28:55Z</time>
      </trkpt>
      <trkpt lat="48.49547" lon="-2.58425">
        <ele>43</ele>
        <time>2016-01-08T09:28:59Z</time>
      </trkpt>
      <trkpt lat="48.49548" lon="-2.5843">
        <ele>43</ele>
        <time>2016-01-08T09:29:03Z</time>
      </trkpt>
      <trkpt lat="48.49549" lon="-2.58433">
        <ele>43</ele>
        <time>2016-01-08T09:29:07Z</time>
      </trkpt>
      <trkpt lat="48.49551" lon="-2.58435">
        <ele>43</ele>
        <time>2016-01-08T09:29:11Z</time>
      </trkpt>
      <trkpt lat="48.49553" lon="-2.58439">
        <ele>43</ele>
        <time>2016-01-08T09:29:15Z</time>
      </trkpt>
      <trkpt lat="48.49554" lon="-2.58444">
        <ele>43</ele>
        <time>2016-01-08T09:29:18Z</time>
      </trkpt>
      <trkpt lat="48.49557" lon="-2.58449">
        <ele>43</ele>
        <time>2016-01-08T09:29:22Z</time>
      </trkpt>
      <trkpt lat="48.49558" lon="-2.58455">
        <ele>42</ele>
        <time>2016-01-08T09:29:26Z</time>
      </trkpt>
      <trkpt lat="48.49559" lon="-2.5846">
        <ele>41</ele>
        <time>2016-01-08T09:29:29Z</time>
      </trkpt>
      <trkpt lat="48.49561" lon="-2.58464">
        <ele>39</ele>
        <time>2016-01-08T09:29:32Z</time>
      </trkpt>
      <trkpt lat="48.49562" lon="-2.5847">
        <ele>38</ele>
        <time>2016-01-08T09:29:36Z</time>
      </trkpt>
      <trkpt lat="48.49563" lon="-2.58474">
        <ele>37</ele>
        <time>2016-01-08T09:29:40Z</time>
      </trkpt>
      <trkpt lat="48.49566" lon="-2.58478">
        <ele>36</ele>
        <time>2016-01-08T09:29:43Z</time>
      </trkpt>
      <trkpt lat="48.4957" lon="-2.5848">
        <ele>36</ele>
        <time>2016-01-08T09:29:46Z</time>
      </trkpt>
      <trkpt lat="48.49576" lon="-2.58482">
        <ele>36</ele>
        <time>2016-01-08T09:29:50Z</time>
      </trkpt>
      <trkpt lat="48.49579" lon="-2.58485">
        <ele>36</ele>
        <time>2016-01-08T09:29:55Z</time>
      </trkpt>
      <trkpt lat="48.4958" lon="-2.58486">
        <ele>36</ele>
        <time>2016-01-08T09:29:58Z</time>
      </trkpt>
      <trkpt lat="48.49581" lon="-2.58487">
        <ele>36</ele>
        <time>2016-01-08T09:30:03Z</time>
      </trkpt>
      <trkpt lat="48.49583" lon="-2.58487">
        <ele>36</ele>
        <time>2016-01-08T09:30:08Z</time>
      </trkpt>
      <trkpt lat="48.49584" lon="-2.58488">
        <ele>36</ele>
        <time>2016-01-08T09:30:14Z</time>
      </trkpt>
      <trkpt lat="48.49586" lon="-2.58487">
        <ele>36</ele>
        <time>2016-01-08T09:30:38Z</time>
      </trkpt>
      <trkpt lat="48.49589" lon="-2.58485">
        <ele>36</ele>
        <time>2016-01-08T09:30:42Z</time>
      </trkpt>
      <trkpt lat="48.4959" lon="-2.58485">
        <ele>36</ele>
        <time>2016-01-08T09:30:45Z</time>
      </trkpt>
      <trkpt lat="48.49592" lon="-2.58487">
        <ele>38</ele>
        <time>2016-01-08T09:31:00Z</time>
      </trkpt>
      <trkpt lat="48.49591" lon="-2.58487">
        <ele>39</ele>
        <time>2016-01-08T09:31:03Z</time>
      </trkpt>
      <trkpt lat="48.49589" lon="-2.58486">
        <ele>39</ele>
        <time>2016-01-08T09:31:08Z</time>
      </trkpt>
      <trkpt lat="48.49591" lon="-2.58487">
        <ele>39</ele>
        <time>2016-01-08T09:31:12Z</time>
      </trkpt>
      <trkpt lat="48.49592" lon="-2.58489">
        <ele>41</ele>
        <time>2016-01-08T09:31:17Z</time>
      </trkpt>
      <trkpt lat="48.49591" lon="-2.58491">
        <ele>43</ele>
        <time>2016-01-08T09:31:27Z</time>
      </trkpt>
      <trkpt lat="48.49592" lon="-2.58493">
        <ele>46</ele>
        <time>2016-01-08T09:31:32Z</time>
      </trkpt>
      <trkpt lat="48.49593" lon="-2.58495">
        <ele>51</ele>
        <time>2016-01-08T09:31:47Z</time>
      </trkpt>
      <trkpt lat="48.49594" lon="-2.58496">
        <ele>52</ele>
        <time>2016-01-08T09:31:50Z</time>
      </trkpt>
      <trkpt lat="48.49596" lon="-2.58496">
        <ele>52</ele>
        <time>2016-01-08T09:31:53Z</time>
      </trkpt>
      <trkpt lat="48.49599" lon="-2.58498">
        <ele>52</ele>
        <time>2016-01-08T09:31:56Z</time>
      </trkpt>
      <trkpt lat="48.49601" lon="-2.58498">
        <ele>52</ele>
        <time>2016-01-08T09:31:59Z</time>
      </trkpt>
      <trkpt lat="48.49605" lon="-2.58497">
        <ele>52</ele>
        <time>2016-01-08T09:32:03Z</time>
      </trkpt>
      <trkpt lat="48.49607" lon="-2.58497">
        <ele>49</ele>
        <time>2016-01-08T09:32:07Z</time>
      </trkpt>
      <trkpt lat="48.49609" lon="-2.58495">
        <ele>47</ele>
        <time>2016-01-08T09:32:12Z</time>
      </trkpt>
      <trkpt lat="48.49611" lon="-2.58494">
        <ele>46</ele>
        <time>2016-01-08T09:32:15Z</time>
      </trkpt>
      <trkpt lat="48.49612" lon="-2.58495">
        <ele>45</ele>
        <time>2016-01-08T09:32:18Z</time>
      </trkpt>
      <trkpt lat="48.49616" lon="-2.58499">
        <ele>43</ele>
        <time>2016-01-08T09:32:22Z</time>
      </trkpt>
      <trkpt lat="48.49618" lon="-2.58503">
        <ele>43</ele>
        <time>2016-01-08T09:32:26Z</time>
      </trkpt>
      <trkpt lat="48.49619" lon="-2.58504">
        <ele>42</ele>
        <time>2016-01-08T09:32:29Z</time>
      </trkpt>
      <trkpt lat="48.49623" lon="-2.58506">
        <ele>41</ele>
        <time>2016-01-08T09:32:33Z</time>
      </trkpt>
      <trkpt lat="48.49625" lon="-2.58507">
        <ele>40</ele>
        <time>2016-01-08T09:32:36Z</time>
      </trkpt>
      <trkpt lat="48.49628" lon="-2.5851">
        <ele>40</ele>
        <time>2016-01-08T09:32:39Z</time>
      </trkpt>
      <trkpt lat="48.49631" lon="-2.58515">
        <ele>40</ele>
        <time>2016-01-08T09:32:42Z</time>
      </trkpt>
      <trkpt lat="48.49635" lon="-2.5852">
        <ele>39</ele>
        <time>2016-01-08T09:32:46Z</time>
      </trkpt>
      <trkpt lat="48.4964" lon="-2.58523">
        <ele>39</ele>
        <time>2016-01-08T09:32:49Z</time>
      </trkpt>
      <trkpt lat="48.49645" lon="-2.58522">
        <ele>39</ele>
        <time>2016-01-08T09:32:52Z</time>
      </trkpt>
      <trkpt lat="48.4965" lon="-2.58523">
        <ele>39</ele>
        <time>2016-01-08T09:32:55Z</time>
      </trkpt>
      <trkpt lat="48.49655" lon="-2.58521">
        <ele>39</ele>
        <time>2016-01-08T09:32:58Z</time>
      </trkpt>
      <trkpt lat="48.4966" lon="-2.58517">
        <ele>40</ele>
        <time>2016-01-08T09:33:02Z</time>
      </trkpt>
      <trkpt lat="48.49664" lon="-2.58516">
        <ele>40</ele>
        <time>2016-01-08T09:33:05Z</time>
      </trkpt>
      <trkpt lat="48.4967" lon="-2.58514">
        <ele>40</ele>
        <time>2016-01-08T09:33:09Z</time>
      </trkpt>
      <trkpt lat="48.49674" lon="-2.58513">
        <ele>40</ele>
        <time>2016-01-08T09:33:12Z</time>
      </trkpt>
      <trkpt lat="48.49678" lon="-2.5851">
        <ele>40</ele>
        <time>2016-01-08T09:33:15Z</time>
      </trkpt>
      <trkpt lat="48.49682" lon="-2.58508">
        <ele>40</ele>
        <time>2016-01-08T09:33:18Z</time>
      </trkpt>
      <trkpt lat="48.49686" lon="-2.58506">
        <ele>40</ele>
        <time>2016-01-08T09:33:21Z</time>
      </trkpt>
      <trkpt lat="48.49689" lon="-2.58502">
        <ele>40</ele>
        <time>2016-01-08T09:33:24Z</time>
      </trkpt>
      <trkpt lat="48.49693" lon="-2.58501">
        <ele>40</ele>
        <time>2016-01-08T09:33:27Z</time>
      </trkpt>
      <trkpt lat="48.49696" lon="-2.58499">
        <ele>40</ele>
        <time>2016-01-08T09:33:30Z</time>
      </trkpt>
      <trkpt lat="48.49699" lon="-2.58499">
        <ele>40</ele>
        <time>2016-01-08T09:33:33Z</time>
      </trkpt>
      <trkpt lat="48.49704" lon="-2.58498">
        <ele>38</ele>
        <time>2016-01-08T09:33:37Z</time>
      </trkpt>
      <trkpt lat="48.49708" lon="-2.58497">
        <ele>37</ele>
        <time>2016-01-08T09:33:41Z</time>
      </trkpt>
      <trkpt lat="48.49712" lon="-2.58497">
        <ele>37</ele>
        <time>2016-01-08T09:33:44Z</time>
      </trkpt>
      <trkpt lat="48.49716" lon="-2.58498">
        <ele>36</ele>
        <time>2016-01-08T09:33:47Z</time>
      </trkpt>
      <trkpt lat="48.4972" lon="-2.58499">
        <ele>36</ele>
        <time>2016-01-08T09:33:50Z</time>
      </trkpt>
      <trkpt lat="48.49724" lon="-2.58499">
        <ele>36</ele>
        <time>2016-01-08T09:33:53Z</time>
      </trkpt>
      <trkpt lat="48.49727" lon="-2.58501">
        <ele>36</ele>
        <time>2016-01-08T09:33:56Z</time>
      </trkpt>
      <trkpt lat="48.49732" lon="-2.58501">
        <ele>36</ele>
        <time>2016-01-08T09:33:59Z</time>
      </trkpt>
      <trkpt lat="48.49736" lon="-2.58501">
        <ele>36</ele>
        <time>2016-01-08T09:34:03Z</time>
      </trkpt>
      <trkpt lat="48.4974" lon="-2.58501">
        <ele>36</ele>
        <time>2016-01-08T09:34:06Z</time>
      </trkpt>
      <trkpt lat="48.49745" lon="-2.58501">
        <ele>36</ele>
        <time>2016-01-08T09:34:10Z</time>
      </trkpt>
      <trkpt lat="48.49749" lon="-2.58502">
        <ele>36</ele>
        <time>2016-01-08T09:34:13Z</time>
      </trkpt>
      <trkpt lat="48.49753" lon="-2.58501">
        <ele>36</ele>
        <time>2016-01-08T09:34:16Z</time>
      </trkpt>
      <trkpt lat="48.49757" lon="-2.58502">
        <ele>36</ele>
        <time>2016-01-08T09:34:21Z</time>
      </trkpt>
      <trkpt lat="48.49759" lon="-2.58502">
        <ele>36</ele>
        <time>2016-01-08T09:34:25Z</time>
      </trkpt>
      <trkpt lat="48.49763" lon="-2.58502">
        <ele>36</ele>
        <time>2016-01-08T09:34:29Z</time>
      </trkpt>
      <trkpt lat="48.49767" lon="-2.58503">
        <ele>36</ele>
        <time>2016-01-08T09:34:33Z</time>
      </trkpt>
      <trkpt lat="48.49771" lon="-2.58503">
        <ele>36</ele>
        <time>2016-01-08T09:34:36Z</time>
      </trkpt>
      <trkpt lat="48.49775" lon="-2.58504">
        <ele>36</ele>
        <time>2016-01-08T09:34:39Z</time>
      </trkpt>
      <trkpt lat="48.49778" lon="-2.58505">
        <ele>36</ele>
        <time>2016-01-08T09:34:44Z</time>
      </trkpt>
      <trkpt lat="48.49781" lon="-2.58505">
        <ele>36</ele>
        <time>2016-01-08T09:34:47Z</time>
      </trkpt>
      <trkpt lat="48.49783" lon="-2.58503">
        <ele>36</ele>
        <time>2016-01-08T09:34:51Z</time>
      </trkpt>
      <trkpt lat="48.49786" lon="-2.58504">
        <ele>36</ele>
        <time>2016-01-08T09:34:55Z</time>
      </trkpt>
      <trkpt lat="48.4979" lon="-2.58505">
        <ele>36</ele>
        <time>2016-01-08T09:34:59Z</time>
      </trkpt>
      <trkpt lat="48.49793" lon="-2.58507">
        <ele>36</ele>
        <time>2016-01-08T09:35:03Z</time>
      </trkpt>
      <trkpt lat="48.49795" lon="-2.5851">
        <ele>36</ele>
        <time>2016-01-08T09:35:07Z</time>
      </trkpt>
      <trkpt lat="48.49798" lon="-2.58513">
        <ele>36</ele>
        <time>2016-01-08T09:35:11Z</time>
      </trkpt>
      <trkpt lat="48.49801" lon="-2.58517">
        <ele>36</ele>
        <time>2016-01-08T09:35:14Z</time>
      </trkpt>
      <trkpt lat="48.49804" lon="-2.58522">
        <ele>36</ele>
        <time>2016-01-08T09:35:18Z</time>
      </trkpt>
      <trkpt lat="48.49807" lon="-2.58525">
        <ele>36</ele>
        <time>2016-01-08T09:35:22Z</time>
      </trkpt>
      <trkpt lat="48.4981" lon="-2.58526">
        <ele>36</ele>
        <time>2016-01-08T09:35:26Z</time>
      </trkpt>
      <trkpt lat="48.49814" lon="-2.58528">
        <ele>36</ele>
        <time>2016-01-08T09:35:29Z</time>
      </trkpt>
      <trkpt lat="48.49818" lon="-2.58528">
        <ele>35</ele>
        <time>2016-01-08T09:35:32Z</time>
      </trkpt>
      <trkpt lat="48.49821" lon="-2.58529">
        <ele>35</ele>
        <time>2016-01-08T09:35:35Z</time>
      </trkpt>
      <trkpt lat="48.49825" lon="-2.58529">
        <ele>35</ele>
        <time>2016-01-08T09:35:38Z</time>
      </trkpt>
      <trkpt lat="48.49829" lon="-2.58529">
        <ele>35</ele>
        <time>2016-01-08T09:35:42Z</time>
      </trkpt>
      <trkpt lat="48.49833" lon="-2.5853">
        <ele>35</ele>
        <time>2016-01-08T09:35:45Z</time>
      </trkpt>
      <trkpt lat="48.49836" lon="-2.58531">
        <ele>35</ele>
        <time>2016-01-08T09:35:48Z</time>
      </trkpt>
      <trkpt lat="48.4984" lon="-2.58531">
        <ele>35</ele>
        <time>2016-01-08T09:35:51Z</time>
      </trkpt>
      <trkpt lat="48.49842" lon="-2.58531">
        <ele>35</ele>
        <time>2016-01-08T09:35:54Z</time>
      </trkpt>
      <trkpt lat="48.49845" lon="-2.58531">
        <ele>35</ele>
        <time>2016-01-08T09:35:57Z</time>
      </trkpt>
      <trkpt lat="48.49848" lon="-2.58533">
        <ele>35</ele>
        <time>2016-01-08T09:36:00Z</time>
      </trkpt>
      <trkpt lat="48.49852" lon="-2.58533">
        <ele>35</ele>
        <time>2016-01-08T09:36:03Z</time>
      </trkpt>
      <trkpt lat="48.49855" lon="-2.5853">
        <ele>35</ele>
        <time>2016-01-08T09:36:07Z</time>
      </trkpt>
      <trkpt lat="48.49857" lon="-2.5853">
        <ele>35</ele>
        <time>2016-01-08T09:36:11Z</time>
      </trkpt>
      <trkpt lat="48.49861" lon="-2.58532">
        <ele>35</ele>
        <time>2016-01-08T09:36:15Z</time>
      </trkpt>
      <trkpt lat="48.49864" lon="-2.58534">
        <ele>35</ele>
        <time>2016-01-08T09:36:19Z</time>
      </trkpt>
      <trkpt lat="48.49868" lon="-2.58536">
        <ele>35</ele>
        <time>2016-01-08T09:36:23Z</time>
      </trkpt>
      <trkpt lat="48.4987" lon="-2.58538">
        <ele>35</ele>
        <time>2016-01-08T09:36:26Z</time>
      </trkpt>
      <trkpt lat="48.49872" lon="-2.58541">
        <ele>35</ele>
        <time>2016-01-08T09:36:30Z</time>
      </trkpt>
      <trkpt lat="48.49875" lon="-2.58545">
        <ele>35</ele>
        <time>2016-01-08T09:36:34Z</time>
      </trkpt>
      <trkpt lat="48.49876" lon="-2.58549">
        <ele>35</ele>
        <time>2016-01-08T09:36:38Z</time>
      </trkpt>
      <trkpt lat="48.49879" lon="-2.58551">
        <ele>35</ele>
        <time>2016-01-08T09:36:43Z</time>
      </trkpt>
      <trkpt lat="48.49881" lon="-2.58553">
        <ele>35</ele>
        <time>2016-01-08T09:36:47Z</time>
      </trkpt>
      <trkpt lat="48.49882" lon="-2.58555">
        <ele>35</ele>
        <time>2016-01-08T09:36:50Z</time>
      </trkpt>
      <trkpt lat="48.49884" lon="-2.58559">
        <ele>35</ele>
        <time>2016-01-08T09:36:55Z</time>
      </trkpt>
      <trkpt lat="48.49887" lon="-2.58562">
        <ele>35</ele>
        <time>2016-01-08T09:36:59Z</time>
      </trkpt>
      <trkpt lat="48.4989" lon="-2.58565">
        <ele>35</ele>
        <time>2016-01-08T09:37:02Z</time>
      </trkpt>
      <trkpt lat="48.49893" lon="-2.58565">
        <ele>35</ele>
        <time>2016-01-08T09:37:05Z</time>
      </trkpt>
      <trkpt lat="48.49897" lon="-2.58566">
        <ele>35</ele>
        <time>2016-01-08T09:37:10Z</time>
      </trkpt>
      <trkpt lat="48.499" lon="-2.5857">
        <ele>35</ele>
        <time>2016-01-08T09:37:14Z</time>
      </trkpt>
      <trkpt lat="48.49901" lon="-2.58575">
        <ele>35</ele>
        <time>2016-01-08T09:37:18Z</time>
      </trkpt>
      <trkpt lat="48.49902" lon="-2.58578">
        <ele>35</ele>
        <time>2016-01-08T09:37:22Z</time>
      </trkpt>
      <trkpt lat="48.49905" lon="-2.5858">
        <ele>35</ele>
        <time>2016-01-08T09:37:25Z</time>
      </trkpt>
      <trkpt lat="48.49906" lon="-2.58581">
        <ele>35</ele>
        <time>2016-01-08T09:37:28Z</time>
      </trkpt>
      <trkpt lat="48.4991" lon="-2.58583">
        <ele>35</ele>
        <time>2016-01-08T09:37:31Z</time>
      </trkpt>
      <trkpt lat="48.49913" lon="-2.58587">
        <ele>35</ele>
        <time>2016-01-08T09:37:35Z</time>
      </trkpt>
      <trkpt lat="48.49917" lon="-2.58591">
        <ele>35</ele>
        <time>2016-01-08T09:37:39Z</time>
      </trkpt>
      <trkpt lat="48.4992" lon="-2.58596">
        <ele>35</ele>
        <time>2016-01-08T09:37:43Z</time>
      </trkpt>
      <trkpt lat="48.4992" lon="-2.58602">
        <ele>35</ele>
        <time>2016-01-08T09:37:47Z</time>
      </trkpt>
      <trkpt lat="48.49921" lon="-2.58607">
        <ele>35</ele>
        <time>2016-01-08T09:37:50Z</time>
      </trkpt>
      <trkpt lat="48.49921" lon="-2.58612">
        <ele>35</ele>
        <time>2016-01-08T09:37:54Z</time>
      </trkpt>
      <trkpt lat="48.4992" lon="-2.58616">
        <ele>35</ele>
        <time>2016-01-08T09:37:58Z</time>
      </trkpt>
      <trkpt lat="48.49921" lon="-2.58618">
        <ele>35</ele>
        <time>2016-01-08T09:38:01Z</time>
      </trkpt>
      <trkpt lat="48.49922" lon="-2.5862">
        <ele>35</ele>
        <time>2016-01-08T09:38:04Z</time>
      </trkpt>
      <trkpt lat="48.49923" lon="-2.58622">
        <ele>35</ele>
        <time>2016-01-08T09:38:09Z</time>
      </trkpt>
      <trkpt lat="48.49923" lon="-2.58624">
        <ele>35</ele>
        <time>2016-01-08T09:38:14Z</time>
      </trkpt>
      <trkpt lat="48.49923" lon="-2.58627">
        <ele>35</ele>
        <time>2016-01-08T09:38:19Z</time>
      </trkpt>
      <trkpt lat="48.49924" lon="-2.58629">
        <ele>35</ele>
        <time>2016-01-08T09:38:23Z</time>
      </trkpt>
      <trkpt lat="48.49923" lon="-2.58631">
        <ele>35</ele>
        <time>2016-01-08T09:38:29Z</time>
      </trkpt>
      <trkpt lat="48.49924" lon="-2.58635">
        <ele>35</ele>
        <time>2016-01-08T09:38:33Z</time>
      </trkpt>
      <trkpt lat="48.49925" lon="-2.58639">
        <ele>35</ele>
        <time>2016-01-08T09:38:37Z</time>
      </trkpt>
      <trkpt lat="48.49925" lon="-2.58645">
        <ele>35</ele>
        <time>2016-01-08T09:38:40Z</time>
      </trkpt>
      <trkpt lat="48.49923" lon="-2.5865">
        <ele>35</ele>
        <time>2016-01-08T09:38:44Z</time>
      </trkpt>
      <trkpt lat="48.49921" lon="-2.58656">
        <ele>35</ele>
        <time>2016-01-08T09:38:48Z</time>
      </trkpt>
      <trkpt lat="48.49919" lon="-2.58664">
        <ele>35</ele>
        <time>2016-01-08T09:38:51Z</time>
      </trkpt>
      <trkpt lat="48.49918" lon="-2.58666">
        <ele>35</ele>
        <time>2016-01-08T09:38:58Z</time>
      </trkpt>
      <trkpt lat="48.49918" lon="-2.58672">
        <ele>35</ele>
        <time>2016-01-08T09:39:01Z</time>
      </trkpt>
      <trkpt lat="48.49918" lon="-2.58678">
        <ele>35</ele>
        <time>2016-01-08T09:39:04Z</time>
      </trkpt>
      <trkpt lat="48.49915" lon="-2.58682">
        <ele>35</ele>
        <time>2016-01-08T09:39:07Z</time>
      </trkpt>
      <trkpt lat="48.49916" lon="-2.58684">
        <ele>36</ele>
        <time>2016-01-08T09:39:10Z</time>
      </trkpt>
      <trkpt lat="48.49915" lon="-2.58686">
        <ele>36</ele>
        <time>2016-01-08T09:39:13Z</time>
      </trkpt>
      <trkpt lat="48.49912" lon="-2.5869">
        <ele>36</ele>
        <time>2016-01-08T09:39:17Z</time>
      </trkpt>
      <trkpt lat="48.4991" lon="-2.58694">
        <ele>36</ele>
        <time>2016-01-08T09:39:20Z</time>
      </trkpt>
      <trkpt lat="48.4991" lon="-2.58698">
        <ele>36</ele>
        <time>2016-01-08T09:39:25Z</time>
      </trkpt>
      <trkpt lat="48.49909" lon="-2.587">
        <ele>36</ele>
        <time>2016-01-08T09:39:29Z</time>
      </trkpt>
      <trkpt lat="48.49906" lon="-2.58703">
        <ele>36</ele>
        <time>2016-01-08T09:39:33Z</time>
      </trkpt>
      <trkpt lat="48.49904" lon="-2.58709">
        <ele>36</ele>
        <time>2016-01-08T09:39:37Z</time>
      </trkpt>
      <trkpt lat="48.49905" lon="-2.58715">
        <ele>36</ele>
        <time>2016-01-08T09:39:41Z</time>
      </trkpt>
      <trkpt lat="48.49905" lon="-2.58719">
        <ele>36</ele>
        <time>2016-01-08T09:39:44Z</time>
      </trkpt>
      <trkpt lat="48.49906" lon="-2.58724">
        <ele>36</ele>
        <time>2016-01-08T09:39:48Z</time>
      </trkpt>
      <trkpt lat="48.49908" lon="-2.58727">
        <ele>37</ele>
        <time>2016-01-08T09:39:58Z</time>
      </trkpt>
      <trkpt lat="48.49909" lon="-2.58725">
        <ele>37</ele>
        <time>2016-01-08T09:40:02Z</time>
      </trkpt>
      <trkpt lat="48.4991" lon="-2.58725">
        <ele>37</ele>
        <time>2016-01-08T09:40:06Z</time>
      </trkpt>
      <trkpt lat="48.49912" lon="-2.58727">
        <ele>37</ele>
        <time>2016-01-08T09:40:09Z</time>
      </trkpt>
      <trkpt lat="48.49913" lon="-2.58728">
        <ele>37</ele>
        <time>2016-01-08T09:40:13Z</time>
      </trkpt>
      <trkpt lat="48.49916" lon="-2.5873">
        <ele>37</ele>
        <time>2016-01-08T09:40:17Z</time>
      </trkpt>
      <trkpt lat="48.49919" lon="-2.5873">
        <ele>37</ele>
        <time>2016-01-08T09:40:21Z</time>
      </trkpt>
      <trkpt lat="48.4992" lon="-2.58732">
        <ele>37</ele>
        <time>2016-01-08T09:40:26Z</time>
      </trkpt>
      <trkpt lat="48.49921" lon="-2.58731">
        <ele>37</ele>
        <time>2016-01-08T09:40:35Z</time>
      </trkpt>
      <trkpt lat="48.4992" lon="-2.58729">
        <ele>37</ele>
        <time>2016-01-08T09:40:41Z</time>
      </trkpt>
      <trkpt lat="48.4992" lon="-2.58731">
        <ele>37</ele>
        <time>2016-01-08T09:40:47Z</time>
      </trkpt>
      <trkpt lat="48.49921" lon="-2.58733">
        <ele>37</ele>
        <time>2016-01-08T09:40:50Z</time>
      </trkpt>
      <trkpt lat="48.49924" lon="-2.58737">
        <ele>37</ele>
        <time>2016-01-08T09:40:55Z</time>
      </trkpt>
      <trkpt lat="48.49926" lon="-2.58741">
        <ele>37</ele>
        <time>2016-01-08T09:40:58Z</time>
      </trkpt>
      <trkpt lat="48.49926" lon="-2.58745">
        <ele>37</ele>
        <time>2016-01-08T09:41:01Z</time>
      </trkpt>
      <trkpt lat="48.49927" lon="-2.58749">
        <ele>38</ele>
        <time>2016-01-08T09:41:09Z</time>
      </trkpt>
      <trkpt lat="48.49926" lon="-2.5875">
        <ele>38</ele>
        <time>2016-01-08T09:41:15Z</time>
      </trkpt>
      <trkpt lat="48.49925" lon="-2.58748">
        <ele>38</ele>
        <time>2016-01-08T09:41:18Z</time>
      </trkpt>
      <trkpt lat="48.49924" lon="-2.5875">
        <ele>38</ele>
        <time>2016-01-08T09:41:23Z</time>
      </trkpt>
      <trkpt lat="48.49924" lon="-2.58748">
        <ele>38</ele>
        <time>2016-01-08T09:41:52Z</time>
      </trkpt>
      <trkpt lat="48.49923" lon="-2.58749">
        <ele>38</ele>
        <time>2016-01-08T09:41:59Z</time>
      </trkpt>
      <trkpt lat="48.49923" lon="-2.5875">
        <ele>38</ele>
        <time>2016-01-08T09:42:08Z</time>
      </trkpt>
      <trkpt lat="48.49924" lon="-2.58751">
        <ele>38</ele>
        <time>2016-01-08T09:42:16Z</time>
      </trkpt>
      <trkpt lat="48.49925" lon="-2.5875">
        <ele>38</ele>
        <time>2016-01-08T09:42:24Z</time>
      </trkpt>
      <trkpt lat="48.49926" lon="-2.58749">
        <ele>33</ele>
        <time>2016-01-08T09:42:36Z</time>
      </trkpt>
      <trkpt lat="48.49926" lon="-2.58751">
        <ele>32</ele>
        <time>2016-01-08T09:42:40Z</time>
      </trkpt>
      <trkpt lat="48.49926" lon="-2.58756">
        <ele>32</ele>
        <time>2016-01-08T09:42:43Z</time>
      </trkpt>
      <trkpt lat="48.49927" lon="-2.5876">
        <ele>32</ele>
        <time>2016-01-08T09:42:47Z</time>
      </trkpt>
      <trkpt lat="48.4993" lon="-2.58765">
        <ele>32</ele>
        <time>2016-01-08T09:42:51Z</time>
      </trkpt>
      <trkpt lat="48.49933" lon="-2.58767">
        <ele>32</ele>
        <time>2016-01-08T09:42:54Z</time>
      </trkpt>
      <trkpt lat="48.49937" lon="-2.58772">
        <ele>32</ele>
        <time>2016-01-08T09:42:57Z</time>
      </trkpt>
      <trkpt lat="48.4994" lon="-2.58776">
        <ele>32</ele>
        <time>2016-01-08T09:43:00Z</time>
      </trkpt>
      <trkpt lat="48.49942" lon="-2.58781">
        <ele>32</ele>
        <time>2016-01-08T09:43:03Z</time>
      </trkpt>
      <trkpt lat="48.49946" lon="-2.58786">
        <ele>32</ele>
        <time>2016-01-08T09:43:06Z</time>
      </trkpt>
      <trkpt lat="48.49949" lon="-2.58792">
        <ele>32</ele>
        <time>2016-01-08T09:43:09Z</time>
      </trkpt>
      <trkpt lat="48.4995" lon="-2.58798">
        <ele>32</ele>
        <time>2016-01-08T09:43:12Z</time>
      </trkpt>
      <trkpt lat="48.49953" lon="-2.58804">
        <ele>32</ele>
        <time>2016-01-08T09:43:15Z</time>
      </trkpt>
      <trkpt lat="48.49955" lon="-2.58809">
        <ele>32</ele>
        <time>2016-01-08T09:43:19Z</time>
      </trkpt>
      <trkpt lat="48.49958" lon="-2.58815">
        <ele>32</ele>
        <time>2016-01-08T09:43:23Z</time>
      </trkpt>
      <trkpt lat="48.49961" lon="-2.58821">
        <ele>31</ele>
        <time>2016-01-08T09:43:26Z</time>
      </trkpt>
      <trkpt lat="48.49963" lon="-2.58828">
        <ele>31</ele>
        <time>2016-01-08T09:43:29Z</time>
      </trkpt>
      <trkpt lat="48.49965" lon="-2.58834">
        <ele>31</ele>
        <time>2016-01-08T09:43:32Z</time>
      </trkpt>
      <trkpt lat="48.49968" lon="-2.5884">
        <ele>31</ele>
        <time>2016-01-08T09:43:35Z</time>
      </trkpt>
      <trkpt lat="48.49969" lon="-2.58845">
        <ele>31</ele>
        <time>2016-01-08T09:43:38Z</time>
      </trkpt>
      <trkpt lat="48.49973" lon="-2.58852">
        <ele>31</ele>
        <time>2016-01-08T09:43:41Z</time>
      </trkpt>
      <trkpt lat="48.49977" lon="-2.58858">
        <ele>31</ele>
        <time>2016-01-08T09:43:44Z</time>
      </trkpt>
      <trkpt lat="48.4998" lon="-2.58864">
        <ele>31</ele>
        <time>2016-01-08T09:43:47Z</time>
      </trkpt>
      <trkpt lat="48.49982" lon="-2.58869">
        <ele>31</ele>
        <time>2016-01-08T09:43:50Z</time>
      </trkpt>
      <trkpt lat="48.49984" lon="-2.58875">
        <ele>31</ele>
        <time>2016-01-08T09:43:54Z</time>
      </trkpt>
      <trkpt lat="48.49987" lon="-2.5888">
        <ele>31</ele>
        <time>2016-01-08T09:43:57Z</time>
      </trkpt>
      <trkpt lat="48.4999" lon="-2.58885">
        <ele>31</ele>
        <time>2016-01-08T09:44:00Z</time>
      </trkpt>
      <trkpt lat="48.49992" lon="-2.58888">
        <ele>31</ele>
        <time>2016-01-08T09:44:03Z</time>
      </trkpt>
      <trkpt lat="48.49996" lon="-2.58893">
        <ele>31</ele>
        <time>2016-01-08T09:44:07Z</time>
      </trkpt>
      <trkpt lat="48.5" lon="-2.58895">
        <ele>31</ele>
        <time>2016-01-08T09:44:11Z</time>
      </trkpt>
      <trkpt lat="48.50003" lon="-2.58898">
        <ele>31</ele>
        <time>2016-01-08T09:44:15Z</time>
      </trkpt>
      <trkpt lat="48.50006" lon="-2.58904">
        <ele>31</ele>
        <time>2016-01-08T09:44:19Z</time>
      </trkpt>
      <trkpt lat="48.50008" lon="-2.58908">
        <ele>31</ele>
        <time>2016-01-08T09:44:23Z</time>
      </trkpt>
      <trkpt lat="48.50011" lon="-2.58913">
        <ele>31</ele>
        <time>2016-01-08T09:44:27Z</time>
      </trkpt>
      <trkpt lat="48.50014" lon="-2.58917">
        <ele>31</ele>
        <time>2016-01-08T09:44:31Z</time>
      </trkpt>
      <trkpt lat="48.50018" lon="-2.58919">
        <ele>31</ele>
        <time>2016-01-08T09:44:34Z</time>
      </trkpt>
      <trkpt lat="48.50021" lon="-2.58922">
        <ele>31</ele>
        <time>2016-01-08T09:44:38Z</time>
      </trkpt>
      <trkpt lat="48.50024" lon="-2.58925">
        <ele>31</ele>
        <time>2016-01-08T09:44:42Z</time>
      </trkpt>
      <trkpt lat="48.50027" lon="-2.58926">
        <ele>31</ele>
        <time>2016-01-08T09:44:45Z</time>
      </trkpt>
      <trkpt lat="48.50031" lon="-2.58928">
        <ele>31</ele>
        <time>2016-01-08T09:44:48Z</time>
      </trkpt>
      <trkpt lat="48.50033" lon="-2.58931">
        <ele>31</ele>
        <time>2016-01-08T09:44:51Z</time>
      </trkpt>
      <trkpt lat="48.50036" lon="-2.58935">
        <ele>31</ele>
        <time>2016-01-08T09:44:55Z</time>
      </trkpt>
      <trkpt lat="48.50037" lon="-2.58941">
        <ele>31</ele>
        <time>2016-01-08T09:44:59Z</time>
      </trkpt>
      <trkpt lat="48.50039" lon="-2.58945">
        <ele>31</ele>
        <time>2016-01-08T09:45:04Z</time>
      </trkpt>
      <trkpt lat="48.50042" lon="-2.58949">
        <ele>31</ele>
        <time>2016-01-08T09:45:08Z</time>
      </trkpt>
      <trkpt lat="48.50043" lon="-2.5895">
        <ele>31</ele>
        <time>2016-01-08T09:45:11Z</time>
      </trkpt>
      <trkpt lat="48.50046" lon="-2.58952">
        <ele>31</ele>
        <time>2016-01-08T09:45:16Z</time>
      </trkpt>
      <trkpt lat="48.5005" lon="-2.58952">
        <ele>31</ele>
        <time>2016-01-08T09:45:20Z</time>
      </trkpt>
      <trkpt lat="48.50052" lon="-2.58956">
        <ele>31</ele>
        <time>2016-01-08T09:45:23Z</time>
      </trkpt>
      <trkpt lat="48.50055" lon="-2.58959">
        <ele>31</ele>
        <time>2016-01-08T09:45:27Z</time>
      </trkpt>
      <trkpt lat="48.50056" lon="-2.58961">
        <ele>31</ele>
        <time>2016-01-08T09:45:30Z</time>
      </trkpt>
      <trkpt lat="48.50058" lon="-2.58962">
        <ele>31</ele>
        <time>2016-01-08T09:45:33Z</time>
      </trkpt>
      <trkpt lat="48.5006" lon="-2.58968">
        <ele>31</ele>
        <time>2016-01-08T09:45:37Z</time>
      </trkpt>
      <trkpt lat="48.5006" lon="-2.58973">
        <ele>31</ele>
        <time>2016-01-08T09:45:41Z</time>
      </trkpt>
      <trkpt lat="48.5006" lon="-2.58979">
        <ele>31</ele>
        <time>2016-01-08T09:45:45Z</time>
      </trkpt>
      <trkpt lat="48.5006" lon="-2.58982">
        <ele>31</ele>
        <time>2016-01-08T09:45:49Z</time>
      </trkpt>
      <trkpt lat="48.5006" lon="-2.58987">
        <ele>31</ele>
        <time>2016-01-08T09:45:53Z</time>
      </trkpt>
      <trkpt lat="48.50061" lon="-2.58993">
        <ele>31</ele>
        <time>2016-01-08T09:45:57Z</time>
      </trkpt>
      <trkpt lat="48.50064" lon="-2.58998">
        <ele>31</ele>
        <time>2016-01-08T09:46:01Z</time>
      </trkpt>
      <trkpt lat="48.50064" lon="-2.59003">
        <ele>31</ele>
        <time>2016-01-08T09:46:05Z</time>
      </trkpt>
      <trkpt lat="48.50065" lon="-2.59009">
        <ele>31</ele>
        <time>2016-01-08T09:46:09Z</time>
      </trkpt>
      <trkpt lat="48.50067" lon="-2.59014">
        <ele>31</ele>
        <time>2016-01-08T09:46:14Z</time>
      </trkpt>
      <trkpt lat="48.50067" lon="-2.59019">
        <ele>31</ele>
        <time>2016-01-08T09:46:17Z</time>
      </trkpt>
      <trkpt lat="48.50068" lon="-2.59024">
        <ele>31</ele>
        <time>2016-01-08T09:46:21Z</time>
      </trkpt>
      <trkpt lat="48.50071" lon="-2.59028">
        <ele>31</ele>
        <time>2016-01-08T09:46:25Z</time>
      </trkpt>
      <trkpt lat="48.50073" lon="-2.59033">
        <ele>31</ele>
        <time>2016-01-08T09:46:29Z</time>
      </trkpt>
      <trkpt lat="48.50075" lon="-2.59037">
        <ele>31</ele>
        <time>2016-01-08T09:46:32Z</time>
      </trkpt>
      <trkpt lat="48.50077" lon="-2.5904">
        <ele>31</ele>
        <time>2016-01-08T09:46:35Z</time>
      </trkpt>
      <trkpt lat="48.50079" lon="-2.59044">
        <ele>31</ele>
        <time>2016-01-08T09:46:38Z</time>
      </trkpt>
      <trkpt lat="48.50082" lon="-2.59048">
        <ele>31</ele>
        <time>2016-01-08T09:46:41Z</time>
      </trkpt>
      <trkpt lat="48.50082" lon="-2.59054">
        <ele>31</ele>
        <time>2016-01-08T09:46:45Z</time>
      </trkpt>
      <trkpt lat="48.50082" lon="-2.59058">
        <ele>31</ele>
        <time>2016-01-08T09:46:48Z</time>
      </trkpt>
      <trkpt lat="48.50083" lon="-2.59064">
        <ele>31</ele>
        <time>2016-01-08T09:46:52Z</time>
      </trkpt>
      <trkpt lat="48.50086" lon="-2.59068">
        <ele>31</ele>
        <time>2016-01-08T09:46:56Z</time>
      </trkpt>
      <trkpt lat="48.50088" lon="-2.59073">
        <ele>31</ele>
        <time>2016-01-08T09:47:00Z</time>
      </trkpt>
      <trkpt lat="48.50091" lon="-2.59077">
        <ele>31</ele>
        <time>2016-01-08T09:47:03Z</time>
      </trkpt>
      <trkpt lat="48.50094" lon="-2.59079">
        <ele>31</ele>
        <time>2016-01-08T09:47:07Z</time>
      </trkpt>
      <trkpt lat="48.50096" lon="-2.59084">
        <ele>32</ele>
        <time>2016-01-08T09:47:11Z</time>
      </trkpt>
      <trkpt lat="48.50098" lon="-2.5909">
        <ele>32</ele>
        <time>2016-01-08T09:47:14Z</time>
      </trkpt>
      <trkpt lat="48.50099" lon="-2.59096">
        <ele>32</ele>
        <time>2016-01-08T09:47:17Z</time>
      </trkpt>
      <trkpt lat="48.501" lon="-2.59103">
        <ele>32</ele>
        <time>2016-01-08T09:47:21Z</time>
      </trkpt>
      <trkpt lat="48.50102" lon="-2.59109">
        <ele>32</ele>
        <time>2016-01-08T09:47:25Z</time>
      </trkpt>
      <trkpt lat="48.50105" lon="-2.59114">
        <ele>33</ele>
        <time>2016-01-08T09:47:29Z</time>
      </trkpt>
      <trkpt lat="48.50106" lon="-2.59118">
        <ele>33</ele>
        <time>2016-01-08T09:47:32Z</time>
      </trkpt>
      <trkpt lat="48.50107" lon="-2.59123">
        <ele>33</ele>
        <time>2016-01-08T09:47:35Z</time>
      </trkpt>
      <trkpt lat="48.50111" lon="-2.59126">
        <ele>33</ele>
        <time>2016-01-08T09:47:38Z</time>
      </trkpt>
      <trkpt lat="48.50113" lon="-2.59131">
        <ele>33</ele>
        <time>2016-01-08T09:47:42Z</time>
      </trkpt>
      <trkpt lat="48.50115" lon="-2.59136">
        <ele>33</ele>
        <time>2016-01-08T09:47:45Z</time>
      </trkpt>
      <trkpt lat="48.50119" lon="-2.59142">
        <ele>33</ele>
        <time>2016-01-08T09:47:49Z</time>
      </trkpt>
      <trkpt lat="48.50122" lon="-2.59146">
        <ele>33</ele>
        <time>2016-01-08T09:47:52Z</time>
      </trkpt>
      <trkpt lat="48.50124" lon="-2.59152">
        <ele>33</ele>
        <time>2016-01-08T09:47:55Z</time>
      </trkpt>
      <trkpt lat="48.50126" lon="-2.59157">
        <ele>33</ele>
        <time>2016-01-08T09:47:59Z</time>
      </trkpt>
      <trkpt lat="48.5013" lon="-2.59164">
        <ele>32</ele>
        <time>2016-01-08T09:48:03Z</time>
      </trkpt>
      <trkpt lat="48.50134" lon="-2.59168">
        <ele>32</ele>
        <time>2016-01-08T09:48:06Z</time>
      </trkpt>
      <trkpt lat="48.50137" lon="-2.59173">
        <ele>32</ele>
        <time>2016-01-08T09:48:10Z</time>
      </trkpt>
      <trkpt lat="48.5014" lon="-2.59176">
        <ele>32</ele>
        <time>2016-01-08T09:48:13Z</time>
      </trkpt>
      <trkpt lat="48.50142" lon="-2.5918">
        <ele>32</ele>
        <time>2016-01-08T09:48:16Z</time>
      </trkpt>
      <trkpt lat="48.50144" lon="-2.59185">
        <ele>32</ele>
        <time>2016-01-08T09:48:20Z</time>
      </trkpt>
      <trkpt lat="48.50147" lon="-2.59188">
        <ele>32</ele>
        <time>2016-01-08T09:48:23Z</time>
      </trkpt>
      <trkpt lat="48.5015" lon="-2.5919">
        <ele>32</ele>
        <time>2016-01-08T09:48:27Z</time>
      </trkpt>
      <trkpt lat="48.50154" lon="-2.59191">
        <ele>32</ele>
        <time>2016-01-08T09:48:31Z</time>
      </trkpt>
      <trkpt lat="48.50158" lon="-2.59192">
        <ele>32</ele>
        <time>2016-01-08T09:48:34Z</time>
      </trkpt>
      <trkpt lat="48.50161" lon="-2.59193">
        <ele>32</ele>
        <time>2016-01-08T09:48:37Z</time>
      </trkpt>
      <trkpt lat="48.50165" lon="-2.59196">
        <ele>32</ele>
        <time>2016-01-08T09:48:41Z</time>
      </trkpt>
      <trkpt lat="48.50169" lon="-2.592">
        <ele>32</ele>
        <time>2016-01-08T09:48:45Z</time>
      </trkpt>
      <trkpt lat="48.50172" lon="-2.59203">
        <ele>32</ele>
        <time>2016-01-08T09:48:49Z</time>
      </trkpt>
      <trkpt lat="48.50175" lon="-2.59204">
        <ele>32</ele>
        <time>2016-01-08T09:48:53Z</time>
      </trkpt>
      <trkpt lat="48.50178" lon="-2.59205">
        <ele>32</ele>
        <time>2016-01-08T09:48:59Z</time>
      </trkpt>
      <trkpt lat="48.50179" lon="-2.59206">
        <ele>32</ele>
        <time>2016-01-08T09:49:03Z</time>
      </trkpt>
      <trkpt lat="48.5018" lon="-2.59207">
        <ele>32</ele>
        <time>2016-01-08T09:49:06Z</time>
      </trkpt>
      <trkpt lat="48.50182" lon="-2.59208">
        <ele>32</ele>
        <time>2016-01-08T09:49:09Z</time>
      </trkpt>
      <trkpt lat="48.50183" lon="-2.59209">
        <ele>32</ele>
        <time>2016-01-08T09:49:12Z</time>
      </trkpt>
      <trkpt lat="48.50185" lon="-2.59213">
        <ele>32</ele>
        <time>2016-01-08T09:49:15Z</time>
      </trkpt>
      <trkpt lat="48.50188" lon="-2.59216">
        <ele>32</ele>
        <time>2016-01-08T09:49:19Z</time>
      </trkpt>
      <trkpt lat="48.50191" lon="-2.59219">
        <ele>32</ele>
        <time>2016-01-08T09:49:23Z</time>
      </trkpt>
      <trkpt lat="48.50194" lon="-2.59221">
        <ele>32</ele>
        <time>2016-01-08T09:49:26Z</time>
      </trkpt>
      <trkpt lat="48.50197" lon="-2.59223">
        <ele>32</ele>
        <time>2016-01-08T09:49:29Z</time>
      </trkpt>
      <trkpt lat="48.50201" lon="-2.59225">
        <ele>32</ele>
        <time>2016-01-08T09:49:33Z</time>
      </trkpt>
      <trkpt lat="48.50204" lon="-2.59229">
        <ele>32</ele>
        <time>2016-01-08T09:49:36Z</time>
      </trkpt>
      <trkpt lat="48.50205" lon="-2.59233">
        <ele>32</ele>
        <time>2016-01-08T09:49:43Z</time>
      </trkpt>
      <trkpt lat="48.50206" lon="-2.59235">
        <ele>32</ele>
        <time>2016-01-08T09:49:51Z</time>
      </trkpt>
      <trkpt lat="48.50209" lon="-2.59238">
        <ele>32</ele>
        <time>2016-01-08T09:49:55Z</time>
      </trkpt>
      <trkpt lat="48.5021" lon="-2.59239">
        <ele>32</ele>
        <time>2016-01-08T09:49:58Z</time>
      </trkpt>
      <trkpt lat="48.50211" lon="-2.59239">
        <ele>32</ele>
        <time>2016-01-08T09:50:09Z</time>
      </trkpt>
      <trkpt lat="48.50213" lon="-2.59239">
        <ele>32</ele>
        <time>2016-01-08T09:50:18Z</time>
      </trkpt>
      <trkpt lat="48.50214" lon="-2.59241">
        <ele>32</ele>
        <time>2016-01-08T09:50:22Z</time>
      </trkpt>
      <trkpt lat="48.50217" lon="-2.59244">
        <ele>32</ele>
        <time>2016-01-08T09:50:28Z</time>
      </trkpt>
      <trkpt lat="48.5022" lon="-2.59245">
        <ele>32</ele>
        <time>2016-01-08T09:50:31Z</time>
      </trkpt>
      <trkpt lat="48.50224" lon="-2.59247">
        <ele>32</ele>
        <time>2016-01-08T09:50:34Z</time>
      </trkpt>
      <trkpt lat="48.50227" lon="-2.59251">
        <ele>32</ele>
        <time>2016-01-08T09:50:37Z</time>
      </trkpt>
      <trkpt lat="48.5023" lon="-2.59255">
        <ele>32</ele>
        <time>2016-01-08T09:50:40Z</time>
      </trkpt>
      <trkpt lat="48.50235" lon="-2.59259">
        <ele>32</ele>
        <time>2016-01-08T09:50:44Z</time>
      </trkpt>
      <trkpt lat="48.50238" lon="-2.59264">
        <ele>32</ele>
        <time>2016-01-08T09:50:47Z</time>
      </trkpt>
      <trkpt lat="48.50241" lon="-2.59267">
        <ele>32</ele>
        <time>2016-01-08T09:50:50Z</time>
      </trkpt>
      <trkpt lat="48.50245" lon="-2.59269">
        <ele>32</ele>
        <time>2016-01-08T09:50:53Z</time>
      </trkpt>
      <trkpt lat="48.50248" lon="-2.59272">
        <ele>32</ele>
        <time>2016-01-08T09:50:56Z</time>
      </trkpt>
      <trkpt lat="48.50251" lon="-2.59276">
        <ele>32</ele>
        <time>2016-01-08T09:50:59Z</time>
      </trkpt>
      <trkpt lat="48.50254" lon="-2.59279">
        <ele>32</ele>
        <time>2016-01-08T09:51:03Z</time>
      </trkpt>
      <trkpt lat="48.50258" lon="-2.59284">
        <ele>32</ele>
        <time>2016-01-08T09:51:07Z</time>
      </trkpt>
      <trkpt lat="48.50261" lon="-2.59287">
        <ele>32</ele>
        <time>2016-01-08T09:51:10Z</time>
      </trkpt>
      <trkpt lat="48.50265" lon="-2.59291">
        <ele>32</ele>
        <time>2016-01-08T09:51:14Z</time>
      </trkpt>
      <trkpt lat="48.5027" lon="-2.59295">
        <ele>32</ele>
        <time>2016-01-08T09:51:18Z</time>
      </trkpt>
      <trkpt lat="48.50274" lon="-2.59297">
        <ele>32</ele>
        <time>2016-01-08T09:51:21Z</time>
      </trkpt>
      <trkpt lat="48.50277" lon="-2.593">
        <ele>32</ele>
        <time>2016-01-08T09:51:24Z</time>
      </trkpt>
      <trkpt lat="48.50281" lon="-2.59302">
        <ele>32</ele>
        <time>2016-01-08T09:51:28Z</time>
      </trkpt>
      <trkpt lat="48.50285" lon="-2.59304">
        <ele>32</ele>
        <time>2016-01-08T09:51:31Z</time>
      </trkpt>
      <trkpt lat="48.50289" lon="-2.59307">
        <ele>31</ele>
        <time>2016-01-08T09:51:35Z</time>
      </trkpt>
      <trkpt lat="48.50293" lon="-2.59309">
        <ele>31</ele>
        <time>2016-01-08T09:51:38Z</time>
      </trkpt>
      <trkpt lat="48.50297" lon="-2.59313">
        <ele>31</ele>
        <time>2016-01-08T09:51:42Z</time>
      </trkpt>
      <trkpt lat="48.50299" lon="-2.59318">
        <ele>31</ele>
        <time>2016-01-08T09:51:45Z</time>
      </trkpt>
      <trkpt lat="48.503" lon="-2.59324">
        <ele>31</ele>
        <time>2016-01-08T09:51:48Z</time>
      </trkpt>
      <trkpt lat="48.50301" lon="-2.59325">
        <ele>31</ele>
        <time>2016-01-08T09:51:51Z</time>
      </trkpt>
      <trkpt lat="48.50302" lon="-2.59326">
        <ele>31</ele>
        <time>2016-01-08T09:51:55Z</time>
      </trkpt>
      <trkpt lat="48.50303" lon="-2.59327">
        <ele>31</ele>
        <time>2016-01-08T09:52:07Z</time>
      </trkpt>
      <trkpt lat="48.50303" lon="-2.5933">
        <ele>32</ele>
        <time>2016-01-08T09:52:20Z</time>
      </trkpt>
      <trkpt lat="48.50302" lon="-2.59334">
        <ele>33</ele>
        <time>2016-01-08T09:52:25Z</time>
      </trkpt>
      <trkpt lat="48.50301" lon="-2.5934">
        <ele>33</ele>
        <time>2016-01-08T09:52:29Z</time>
      </trkpt>
      <trkpt lat="48.50299" lon="-2.59346">
        <ele>33</ele>
        <time>2016-01-08T09:52:32Z</time>
      </trkpt>
      <trkpt lat="48.50298" lon="-2.59351">
        <ele>33</ele>
        <time>2016-01-08T09:52:36Z</time>
      </trkpt>
      <trkpt lat="48.50298" lon="-2.59356">
        <ele>33</ele>
        <time>2016-01-08T09:52:52Z</time>
      </trkpt>
      <trkpt lat="48.50296" lon="-2.59361">
        <ele>33</ele>
        <time>2016-01-08T09:52:55Z</time>
      </trkpt>
      <trkpt lat="48.50294" lon="-2.59366">
        <ele>33</ele>
        <time>2016-01-08T09:52:58Z</time>
      </trkpt>
      <trkpt lat="48.50293" lon="-2.59372">
        <ele>33</ele>
        <time>2016-01-08T09:53:01Z</time>
      </trkpt>
      <trkpt lat="48.50291" lon="-2.59378">
        <ele>33</ele>
        <time>2016-01-08T09:53:04Z</time>
      </trkpt>
      <trkpt lat="48.5029" lon="-2.59386">
        <ele>33</ele>
        <time>2016-01-08T09:53:07Z</time>
      </trkpt>
      <trkpt lat="48.50288" lon="-2.59392">
        <ele>33</ele>
        <time>2016-01-08T09:53:10Z</time>
      </trkpt>
      <trkpt lat="48.50286" lon="-2.59399">
        <ele>33</ele>
        <time>2016-01-08T09:53:13Z</time>
      </trkpt>
      <trkpt lat="48.50285" lon="-2.59405">
        <ele>33</ele>
        <time>2016-01-08T09:53:16Z</time>
      </trkpt>
      <trkpt lat="48.50283" lon="-2.59411">
        <ele>33</ele>
        <time>2016-01-08T09:53:19Z</time>
      </trkpt>
      <trkpt lat="48.50281" lon="-2.59417">
        <ele>33</ele>
        <time>2016-01-08T09:53:22Z</time>
      </trkpt>
      <trkpt lat="48.50278" lon="-2.59423">
        <ele>33</ele>
        <time>2016-01-08T09:53:25Z</time>
      </trkpt>
      <trkpt lat="48.50275" lon="-2.59428">
        <ele>34</ele>
        <time>2016-01-08T09:53:28Z</time>
      </trkpt>
      <trkpt lat="48.50273" lon="-2.59434">
        <ele>34</ele>
        <time>2016-01-08T09:53:31Z</time>
      </trkpt>
      <trkpt lat="48.5027" lon="-2.59439">
        <ele>34</ele>
        <time>2016-01-08T09:53:34Z</time>
      </trkpt>
      <trkpt lat="48.50267" lon="-2.59445">
        <ele>34</ele>
        <time>2016-01-08T09:53:37Z</time>
      </trkpt>
      <trkpt lat="48.50265" lon="-2.59451">
        <ele>35</ele>
        <time>2016-01-08T09:53:40Z</time>
      </trkpt>
      <trkpt lat="48.50263" lon="-2.59457">
        <ele>35</ele>
        <time>2016-01-08T09:53:43Z</time>
      </trkpt>
      <trkpt lat="48.50261" lon="-2.59463">
        <ele>35</ele>
        <time>2016-01-08T09:53:46Z</time>
      </trkpt>
      <trkpt lat="48.5026" lon="-2.59469">
        <ele>35</ele>
        <time>2016-01-08T09:53:49Z</time>
      </trkpt>
      <trkpt lat="48.50259" lon="-2.59476">
        <ele>35</ele>
        <time>2016-01-08T09:53:52Z</time>
      </trkpt>
      <trkpt lat="48.50259" lon="-2.59482">
        <ele>35</ele>
        <time>2016-01-08T09:53:55Z</time>
      </trkpt>
      <trkpt lat="48.50259" lon="-2.59489">
        <ele>35</ele>
        <time>2016-01-08T09:53:58Z</time>
      </trkpt>
      <trkpt lat="48.50259" lon="-2.59494">
        <ele>35</ele>
        <time>2016-01-08T09:54:01Z</time>
      </trkpt>
      <trkpt lat="48.50259" lon="-2.59499">
        <ele>35</ele>
        <time>2016-01-08T09:54:04Z</time>
      </trkpt>
      <trkpt lat="48.50259" lon="-2.59504">
        <ele>35</ele>
        <time>2016-01-08T09:54:07Z</time>
      </trkpt>
      <trkpt lat="48.50259" lon="-2.59509">
        <ele>35</ele>
        <time>2016-01-08T09:54:10Z</time>
      </trkpt>
      <trkpt lat="48.5026" lon="-2.59515">
        <ele>35</ele>
        <time>2016-01-08T09:54:13Z</time>
      </trkpt>
      <trkpt lat="48.50261" lon="-2.5952">
        <ele>34</ele>
        <time>2016-01-08T09:54:16Z</time>
      </trkpt>
      <trkpt lat="48.50263" lon="-2.59526">
        <ele>34</ele>
        <time>2016-01-08T09:54:19Z</time>
      </trkpt>
      <trkpt lat="48.50263" lon="-2.59531">
        <ele>34</ele>
        <time>2016-01-08T09:54:22Z</time>
      </trkpt>
      <trkpt lat="48.50263" lon="-2.59537">
        <ele>33</ele>
        <time>2016-01-08T09:54:25Z</time>
      </trkpt>
      <trkpt lat="48.50264" lon="-2.59542">
        <ele>33</ele>
        <time>2016-01-08T09:54:28Z</time>
      </trkpt>
      <trkpt lat="48.50266" lon="-2.59548">
        <ele>33</ele>
        <time>2016-01-08T09:54:31Z</time>
      </trkpt>
      <trkpt lat="48.50268" lon="-2.59554">
        <ele>33</ele>
        <time>2016-01-08T09:54:34Z</time>
      </trkpt>
      <trkpt lat="48.5027" lon="-2.5956">
        <ele>33</ele>
        <time>2016-01-08T09:54:37Z</time>
      </trkpt>
      <trkpt lat="48.50271" lon="-2.59565">
        <ele>33</ele>
        <time>2016-01-08T09:54:40Z</time>
      </trkpt>
      <trkpt lat="48.50273" lon="-2.59572">
        <ele>33</ele>
        <time>2016-01-08T09:54:44Z</time>
      </trkpt>
      <trkpt lat="48.50274" lon="-2.59578">
        <ele>33</ele>
        <time>2016-01-08T09:54:47Z</time>
      </trkpt>
      <trkpt lat="48.50275" lon="-2.59585">
        <ele>33</ele>
        <time>2016-01-08T09:54:50Z</time>
      </trkpt>
      <trkpt lat="48.50275" lon="-2.59591">
        <ele>33</ele>
        <time>2016-01-08T09:54:53Z</time>
      </trkpt>
      <trkpt lat="48.50277" lon="-2.59597">
        <ele>33</ele>
        <time>2016-01-08T09:54:57Z</time>
      </trkpt>
      <trkpt lat="48.50277" lon="-2.59603">
        <ele>33</ele>
        <time>2016-01-08T09:55:00Z</time>
      </trkpt>
      <trkpt lat="48.50276" lon="-2.5961">
        <ele>33</ele>
        <time>2016-01-08T09:55:03Z</time>
      </trkpt>
      <trkpt lat="48.50274" lon="-2.59615">
        <ele>33</ele>
        <time>2016-01-08T09:55:06Z</time>
      </trkpt>
      <trkpt lat="48.50273" lon="-2.59622">
        <ele>33</ele>
        <time>2016-01-08T09:55:09Z</time>
      </trkpt>
      <trkpt lat="48.50272" lon="-2.59629">
        <ele>33</ele>
        <time>2016-01-08T09:55:12Z</time>
      </trkpt>
      <trkpt lat="48.50271" lon="-2.59635">
        <ele>33</ele>
        <time>2016-01-08T09:55:15Z</time>
      </trkpt>
      <trkpt lat="48.50271" lon="-2.59641">
        <ele>33</ele>
        <time>2016-01-08T09:55:18Z</time>
      </trkpt>
      <trkpt lat="48.50272" lon="-2.59647">
        <ele>32</ele>
        <time>2016-01-08T09:55:21Z</time>
      </trkpt>
      <trkpt lat="48.50274" lon="-2.59651">
        <ele>32</ele>
        <time>2016-01-08T09:55:24Z</time>
      </trkpt>
      <trkpt lat="48.50276" lon="-2.59656">
        <ele>32</ele>
        <time>2016-01-08T09:55:27Z</time>
      </trkpt>
      <trkpt lat="48.50279" lon="-2.59662">
        <ele>32</ele>
        <time>2016-01-08T09:55:31Z</time>
      </trkpt>
      <trkpt lat="48.50281" lon="-2.59667">
        <ele>32</ele>
        <time>2016-01-08T09:55:34Z</time>
      </trkpt>
      <trkpt lat="48.50284" lon="-2.59671">
        <ele>32</ele>
        <time>2016-01-08T09:55:37Z</time>
      </trkpt>
      <trkpt lat="48.50287" lon="-2.59677">
        <ele>32</ele>
        <time>2016-01-08T09:55:41Z</time>
      </trkpt>
      <trkpt lat="48.50289" lon="-2.59682">
        <ele>32</ele>
        <time>2016-01-08T09:55:44Z</time>
      </trkpt>
      <trkpt lat="48.50292" lon="-2.59689">
        <ele>32</ele>
        <time>2016-01-08T09:55:48Z</time>
      </trkpt>
      <trkpt lat="48.50294" lon="-2.59694">
        <ele>32</ele>
        <time>2016-01-08T09:55:51Z</time>
      </trkpt>
      <trkpt lat="48.50296" lon="-2.597">
        <ele>32</ele>
        <time>2016-01-08T09:55:55Z</time>
      </trkpt>
      <trkpt lat="48.50297" lon="-2.59705">
        <ele>32</ele>
        <time>2016-01-08T09:55:59Z</time>
      </trkpt>
      <trkpt lat="48.50296" lon="-2.59706">
        <ele>32</ele>
        <time>2016-01-08T09:56:10Z</time>
      </trkpt>
      <trkpt lat="48.50292" lon="-2.59707">
        <ele>32</ele>
        <time>2016-01-08T09:56:14Z</time>
      </trkpt>
      <trkpt lat="48.50288" lon="-2.59707">
        <ele>32</ele>
        <time>2016-01-08T09:56:17Z</time>
      </trkpt>
      <trkpt lat="48.50285" lon="-2.59708">
        <ele>32</ele>
        <time>2016-01-08T09:56:20Z</time>
      </trkpt>
      <trkpt lat="48.50281" lon="-2.59708">
        <ele>32</ele>
        <time>2016-01-08T09:56:23Z</time>
      </trkpt>
      <trkpt lat="48.50278" lon="-2.59708">
        <ele>32</ele>
        <time>2016-01-08T09:56:26Z</time>
      </trkpt>
      <trkpt lat="48.50273" lon="-2.59708">
        <ele>32</ele>
        <time>2016-01-08T09:56:30Z</time>
      </trkpt>
      <trkpt lat="48.5027" lon="-2.59709">
        <ele>32</ele>
        <time>2016-01-08T09:56:33Z</time>
      </trkpt>
      <trkpt lat="48.50266" lon="-2.5971">
        <ele>32</ele>
        <time>2016-01-08T09:56:36Z</time>
      </trkpt>
      <trkpt lat="48.50262" lon="-2.59711">
        <ele>32</ele>
        <time>2016-01-08T09:56:39Z</time>
      </trkpt>
      <trkpt lat="48.50259" lon="-2.59713">
        <ele>32</ele>
        <time>2016-01-08T09:56:42Z</time>
      </trkpt>
      <trkpt lat="48.50255" lon="-2.59715">
        <ele>32</ele>
        <time>2016-01-08T09:56:45Z</time>
      </trkpt>
      <trkpt lat="48.50251" lon="-2.59718">
        <ele>32</ele>
        <time>2016-01-08T09:56:48Z</time>
      </trkpt>
      <trkpt lat="48.50247" lon="-2.59721">
        <ele>32</ele>
        <time>2016-01-08T09:56:51Z</time>
      </trkpt>
      <trkpt lat="48.50243" lon="-2.59725">
        <ele>32</ele>
        <time>2016-01-08T09:56:54Z</time>
      </trkpt>
      <trkpt lat="48.50239" lon="-2.59729">
        <ele>32</ele>
        <time>2016-01-08T09:56:57Z</time>
      </trkpt>
      <trkpt lat="48.50237" lon="-2.59734">
        <ele>32</ele>
        <time>2016-01-08T09:57:00Z</time>
      </trkpt>
      <trkpt lat="48.50234" lon="-2.5974">
        <ele>32</ele>
        <time>2016-01-08T09:57:03Z</time>
      </trkpt>
      <trkpt lat="48.50232" lon="-2.59746">
        <ele>32</ele>
        <time>2016-01-08T09:57:06Z</time>
      </trkpt>
      <trkpt lat="48.5023" lon="-2.59752">
        <ele>32</ele>
        <time>2016-01-08T09:57:09Z</time>
      </trkpt>
      <trkpt lat="48.50228" lon="-2.59757">
        <ele>32</ele>
        <time>2016-01-08T09:57:12Z</time>
      </trkpt>
      <trkpt lat="48.50225" lon="-2.59763">
        <ele>32</ele>
        <time>2016-01-08T09:57:15Z</time>
      </trkpt>
      <trkpt lat="48.50222" lon="-2.59768">
        <ele>32</ele>
        <time>2016-01-08T09:57:18Z</time>
      </trkpt>
      <trkpt lat="48.50219" lon="-2.59773">
        <ele>32</ele>
        <time>2016-01-08T09:57:21Z</time>
      </trkpt>
      <trkpt lat="48.50216" lon="-2.59778">
        <ele>32</ele>
        <time>2016-01-08T09:57:24Z</time>
      </trkpt>
      <trkpt lat="48.50213" lon="-2.59783">
        <ele>32</ele>
        <time>2016-01-08T09:57:27Z</time>
      </trkpt>
      <trkpt lat="48.50209" lon="-2.59787">
        <ele>32</ele>
        <time>2016-01-08T09:57:30Z</time>
      </trkpt>
      <trkpt lat="48.50206" lon="-2.59791">
        <ele>32</ele>
        <time>2016-01-08T09:57:33Z</time>
      </trkpt>
      <trkpt lat="48.50201" lon="-2.59796">
        <ele>32</ele>
        <time>2016-01-08T09:57:37Z</time>
      </trkpt>
      <trkpt lat="48.50197" lon="-2.598">
        <ele>32</ele>
        <time>2016-01-08T09:57:40Z</time>
      </trkpt>
      <trkpt lat="48.50194" lon="-2.59804">
        <ele>32</ele>
        <time>2016-01-08T09:57:43Z</time>
      </trkpt>
      <trkpt lat="48.5019" lon="-2.59808">
        <ele>32</ele>
        <time>2016-01-08T09:57:46Z</time>
      </trkpt>
      <trkpt lat="48.50187" lon="-2.59812">
        <ele>32</ele>
        <time>2016-01-08T09:57:49Z</time>
      </trkpt>
      <trkpt lat="48.50183" lon="-2.59817">
        <ele>32</ele>
        <time>2016-01-08T09:57:52Z</time>
      </trkpt>
      <trkpt lat="48.5018" lon="-2.59821">
        <ele>32</ele>
        <time>2016-01-08T09:57:55Z</time>
      </trkpt>
      <trkpt lat="48.50177" lon="-2.59825">
        <ele>32</ele>
        <time>2016-01-08T09:57:58Z</time>
      </trkpt>
      <trkpt lat="48.50175" lon="-2.5983">
        <ele>32</ele>
        <time>2016-01-08T09:58:01Z</time>
      </trkpt>
      <trkpt lat="48.50173" lon="-2.59836">
        <ele>32</ele>
        <time>2016-01-08T09:58:04Z</time>
      </trkpt>
      <trkpt lat="48.50171" lon="-2.59842">
        <ele>32</ele>
        <time>2016-01-08T09:58:07Z</time>
      </trkpt>
      <trkpt lat="48.5017" lon="-2.59848">
        <ele>32</ele>
        <time>2016-01-08T09:58:10Z</time>
      </trkpt>
      <trkpt lat="48.50169" lon="-2.59853">
        <ele>32</ele>
        <time>2016-01-08T09:58:13Z</time>
      </trkpt>
      <trkpt lat="48.50169" lon="-2.59859">
        <ele>32</ele>
        <time>2016-01-08T09:58:16Z</time>
      </trkpt>
      <trkpt lat="48.50169" lon="-2.59865">
        <ele>32</ele>
        <time>2016-01-08T09:58:19Z</time>
      </trkpt>
      <trkpt lat="48.5017" lon="-2.59871">
        <ele>32</ele>
        <time>2016-01-08T09:58:22Z</time>
      </trkpt>
      <trkpt lat="48.50172" lon="-2.59876">
        <ele>32</ele>
        <time>2016-01-08T09:58:25Z</time>
      </trkpt>
      <trkpt lat="48.50173" lon="-2.59881">
        <ele>32</ele>
        <time>2016-01-08T09:58:28Z</time>
      </trkpt>
      <trkpt lat="48.50176" lon="-2.59886">
        <ele>31</ele>
        <time>2016-01-08T09:58:31Z</time>
      </trkpt>
      <trkpt lat="48.5018" lon="-2.59891">
        <ele>31</ele>
        <time>2016-01-08T09:58:34Z</time>
      </trkpt>
      <trkpt lat="48.50183" lon="-2.59896">
        <ele>31</ele>
        <time>2016-01-08T09:58:37Z</time>
      </trkpt>
      <trkpt lat="48.50187" lon="-2.59902">
        <ele>31</ele>
        <time>2016-01-08T09:58:40Z</time>
      </trkpt>
      <trkpt lat="48.5019" lon="-2.59907">
        <ele>31</ele>
        <time>2016-01-08T09:58:43Z</time>
      </trkpt>
      <trkpt lat="48.50194" lon="-2.59913">
        <ele>31</ele>
        <time>2016-01-08T09:58:47Z</time>
      </trkpt>
      <trkpt lat="48.50197" lon="-2.59918">
        <ele>31</ele>
        <time>2016-01-08T09:58:50Z</time>
      </trkpt>
      <trkpt lat="48.502" lon="-2.59923">
        <ele>31</ele>
        <time>2016-01-08T09:58:53Z</time>
      </trkpt>
      <trkpt lat="48.50202" lon="-2.59928">
        <ele>31</ele>
        <time>2016-01-08T09:58:56Z</time>
      </trkpt>
      <trkpt lat="48.50205" lon="-2.59934">
        <ele>31</ele>
        <time>2016-01-08T09:58:59Z</time>
      </trkpt>
      <trkpt lat="48.50207" lon="-2.59941">
        <ele>31</ele>
        <time>2016-01-08T09:59:02Z</time>
      </trkpt>
      <trkpt lat="48.50209" lon="-2.59946">
        <ele>31</ele>
        <time>2016-01-08T09:59:05Z</time>
      </trkpt>
      <trkpt lat="48.50212" lon="-2.59952">
        <ele>31</ele>
        <time>2016-01-08T09:59:08Z</time>
      </trkpt>
      <trkpt lat="48.50214" lon="-2.59957">
        <ele>31</ele>
        <time>2016-01-08T09:59:11Z</time>
      </trkpt>
      <trkpt lat="48.50216" lon="-2.59962">
        <ele>30</ele>
        <time>2016-01-08T09:59:14Z</time>
      </trkpt>
      <trkpt lat="48.50218" lon="-2.59968">
        <ele>30</ele>
        <time>2016-01-08T09:59:17Z</time>
      </trkpt>
      <trkpt lat="48.50219" lon="-2.59974">
        <ele>30</ele>
        <time>2016-01-08T09:59:20Z</time>
      </trkpt>
      <trkpt lat="48.50222" lon="-2.59979">
        <ele>29</ele>
        <time>2016-01-08T09:59:23Z</time>
      </trkpt>
      <trkpt lat="48.50225" lon="-2.59985">
        <ele>29</ele>
        <time>2016-01-08T09:59:26Z</time>
      </trkpt>
      <trkpt lat="48.50227" lon="-2.59991">
        <ele>29</ele>
        <time>2016-01-08T09:59:29Z</time>
      </trkpt>
      <trkpt lat="48.50229" lon="-2.59998">
        <ele>29</ele>
        <time>2016-01-08T09:59:32Z</time>
      </trkpt>
      <trkpt lat="48.50229" lon="-2.60004">
        <ele>29</ele>
        <time>2016-01-08T09:59:35Z</time>
      </trkpt>
      <trkpt lat="48.50229" lon="-2.60011">
        <ele>29</ele>
        <time>2016-01-08T09:59:38Z</time>
      </trkpt>
      <trkpt lat="48.50229" lon="-2.60018">
        <ele>29</ele>
        <time>2016-01-08T09:59:41Z</time>
      </trkpt>
      <trkpt lat="48.50228" lon="-2.60024">
        <ele>29</ele>
        <time>2016-01-08T09:59:44Z</time>
      </trkpt>
      <trkpt lat="48.50227" lon="-2.60031">
        <ele>29</ele>
        <time>2016-01-08T09:59:47Z</time>
      </trkpt>
      <trkpt lat="48.50227" lon="-2.60037">
        <ele>29</ele>
        <time>2016-01-08T09:59:50Z</time>
      </trkpt>
      <trkpt lat="48.50226" lon="-2.60044">
        <ele>29</ele>
        <time>2016-01-08T09:59:53Z</time>
      </trkpt>
      <trkpt lat="48.50225" lon="-2.6005">
        <ele>29</ele>
        <time>2016-01-08T09:59:56Z</time>
      </trkpt>
      <trkpt lat="48.50227" lon="-2.60055">
        <ele>29</ele>
        <time>2016-01-08T09:59:59Z</time>
      </trkpt>
      <trkpt lat="48.50228" lon="-2.60062">
        <ele>29</ele>
        <time>2016-01-08T10:00:02Z</time>
      </trkpt>
      <trkpt lat="48.50231" lon="-2.60068">
        <ele>29</ele>
        <time>2016-01-08T10:00:05Z</time>
      </trkpt>
      <trkpt lat="48.50233" lon="-2.60073">
        <ele>29</ele>
        <time>2016-01-08T10:00:08Z</time>
      </trkpt>
      <trkpt lat="48.50236" lon="-2.6008">
        <ele>29</ele>
        <time>2016-01-08T10:00:12Z</time>
      </trkpt>
      <trkpt lat="48.50238" lon="-2.60085">
        <ele>29</ele>
        <time>2016-01-08T10:00:15Z</time>
      </trkpt>
      <trkpt lat="48.5024" lon="-2.60091">
        <ele>29</ele>
        <time>2016-01-08T10:00:18Z</time>
      </trkpt>
      <trkpt lat="48.50241" lon="-2.60096">
        <ele>29</ele>
        <time>2016-01-08T10:00:21Z</time>
      </trkpt>
      <trkpt lat="48.50243" lon="-2.60102">
        <ele>29</ele>
        <time>2016-01-08T10:00:24Z</time>
      </trkpt>
      <trkpt lat="48.50244" lon="-2.60108">
        <ele>29</ele>
        <time>2016-01-08T10:00:27Z</time>
      </trkpt>
      <trkpt lat="48.50245" lon="-2.60114">
        <ele>29</ele>
        <time>2016-01-08T10:00:30Z</time>
      </trkpt>
      <trkpt lat="48.50245" lon="-2.6012">
        <ele>29</ele>
        <time>2016-01-08T10:00:33Z</time>
      </trkpt>
      <trkpt lat="48.50246" lon="-2.60126">
        <ele>29</ele>
        <time>2016-01-08T10:00:36Z</time>
      </trkpt>
      <trkpt lat="48.50246" lon="-2.60132">
        <ele>30</ele>
        <time>2016-01-08T10:00:39Z</time>
      </trkpt>
      <trkpt lat="48.50246" lon="-2.60138">
        <ele>30</ele>
        <time>2016-01-08T10:00:42Z</time>
      </trkpt>
      <trkpt lat="48.50247" lon="-2.60143">
        <ele>30</ele>
        <time>2016-01-08T10:00:45Z</time>
      </trkpt>
      <trkpt lat="48.50246" lon="-2.60149">
        <ele>30</ele>
        <time>2016-01-08T10:00:48Z</time>
      </trkpt>
      <trkpt lat="48.50245" lon="-2.60155">
        <ele>30</ele>
        <time>2016-01-08T10:00:51Z</time>
      </trkpt>
      <trkpt lat="48.50244" lon="-2.6016">
        <ele>30</ele>
        <time>2016-01-08T10:00:54Z</time>
      </trkpt>
      <trkpt lat="48.50243" lon="-2.60166">
        <ele>30</ele>
        <time>2016-01-08T10:00:57Z</time>
      </trkpt>
      <trkpt lat="48.50242" lon="-2.60172">
        <ele>30</ele>
        <time>2016-01-08T10:01:00Z</time>
      </trkpt>
      <trkpt lat="48.50241" lon="-2.60178">
        <ele>30</ele>
        <time>2016-01-08T10:01:03Z</time>
      </trkpt>
      <trkpt lat="48.5024" lon="-2.60183">
        <ele>30</ele>
        <time>2016-01-08T10:01:06Z</time>
      </trkpt>
      <trkpt lat="48.50238" lon="-2.60189">
        <ele>30</ele>
        <time>2016-01-08T10:01:09Z</time>
      </trkpt>
      <trkpt lat="48.50237" lon="-2.60195">
        <ele>30</ele>
        <time>2016-01-08T10:01:12Z</time>
      </trkpt>
      <trkpt lat="48.50236" lon="-2.60202">
        <ele>30</ele>
        <time>2016-01-08T10:01:15Z</time>
      </trkpt>
      <trkpt lat="48.50235" lon="-2.60208">
        <ele>30</ele>
        <time>2016-01-08T10:01:18Z</time>
      </trkpt>
      <trkpt lat="48.50234" lon="-2.60214">
        <ele>30</ele>
        <time>2016-01-08T10:01:21Z</time>
      </trkpt>
      <trkpt lat="48.50232" lon="-2.60219">
        <ele>30</ele>
        <time>2016-01-08T10:01:24Z</time>
      </trkpt>
      <trkpt lat="48.5023" lon="-2.60225">
        <ele>30</ele>
        <time>2016-01-08T10:01:27Z</time>
      </trkpt>
      <trkpt lat="48.5023" lon="-2.60232">
        <ele>30</ele>
        <time>2016-01-08T10:01:30Z</time>
      </trkpt>
      <trkpt lat="48.50232" lon="-2.60238">
        <ele>30</ele>
        <time>2016-01-08T10:01:33Z</time>
      </trkpt>
      <trkpt lat="48.50232" lon="-2.60243">
        <ele>30</ele>
        <time>2016-01-08T10:01:36Z</time>
      </trkpt>
      <trkpt lat="48.50235" lon="-2.60247">
        <ele>30</ele>
        <time>2016-01-08T10:01:39Z</time>
      </trkpt>
      <trkpt lat="48.50238" lon="-2.60252">
        <ele>30</ele>
        <time>2016-01-08T10:01:42Z</time>
      </trkpt>
      <trkpt lat="48.5024" lon="-2.60258">
        <ele>30</ele>
        <time>2016-01-08T10:01:45Z</time>
      </trkpt>
      <trkpt lat="48.50243" lon="-2.60263">
        <ele>30</ele>
        <time>2016-01-08T10:01:48Z</time>
      </trkpt>
      <trkpt lat="48.50245" lon="-2.60269">
        <ele>30</ele>
        <time>2016-01-08T10:01:51Z</time>
      </trkpt>
      <trkpt lat="48.50247" lon="-2.60274">
        <ele>30</ele>
        <time>2016-01-08T10:01:54Z</time>
      </trkpt>
      <trkpt lat="48.5025" lon="-2.6028">
        <ele>30</ele>
        <time>2016-01-08T10:01:57Z</time>
      </trkpt>
      <trkpt lat="48.50253" lon="-2.60285">
        <ele>30</ele>
        <time>2016-01-08T10:02:00Z</time>
      </trkpt>
      <trkpt lat="48.50255" lon="-2.60292">
        <ele>30</ele>
        <time>2016-01-08T10:02:03Z</time>
      </trkpt>
      <trkpt lat="48.50257" lon="-2.60297">
        <ele>30</ele>
        <time>2016-01-08T10:02:06Z</time>
      </trkpt>
      <trkpt lat="48.50259" lon="-2.60303">
        <ele>30</ele>
        <time>2016-01-08T10:02:09Z</time>
      </trkpt>
      <trkpt lat="48.50261" lon="-2.60308">
        <ele>30</ele>
        <time>2016-01-08T10:02:12Z</time>
      </trkpt>
      <trkpt lat="48.50264" lon="-2.60314">
        <ele>30</ele>
        <time>2016-01-08T10:02:15Z</time>
      </trkpt>
      <trkpt lat="48.50267" lon="-2.60319">
        <ele>30</ele>
        <time>2016-01-08T10:02:18Z</time>
      </trkpt>
      <trkpt lat="48.50269" lon="-2.60325">
        <ele>30</ele>
        <time>2016-01-08T10:02:21Z</time>
      </trkpt>
      <trkpt lat="48.50272" lon="-2.60329">
        <ele>30</ele>
        <time>2016-01-08T10:02:24Z</time>
      </trkpt>
      <trkpt lat="48.50276" lon="-2.60335">
        <ele>30</ele>
        <time>2016-01-08T10:02:28Z</time>
      </trkpt>
      <trkpt lat="48.5028" lon="-2.6034">
        <ele>30</ele>
        <time>2016-01-08T10:02:32Z</time>
      </trkpt>
      <trkpt lat="48.50283" lon="-2.60344">
        <ele>30</ele>
        <time>2016-01-08T10:02:35Z</time>
      </trkpt>
      <trkpt lat="48.50287" lon="-2.60345">
        <ele>30</ele>
        <time>2016-01-08T10:02:38Z</time>
      </trkpt>
      <trkpt lat="48.50291" lon="-2.60346">
        <ele>30</ele>
        <time>2016-01-08T10:02:41Z</time>
      </trkpt>
      <trkpt lat="48.50296" lon="-2.60347">
        <ele>30</ele>
        <time>2016-01-08T10:02:44Z</time>
      </trkpt>
      <trkpt lat="48.503" lon="-2.60349">
        <ele>30</ele>
        <time>2016-01-08T10:02:48Z</time>
      </trkpt>
      <trkpt lat="48.50304" lon="-2.60352">
        <ele>30</ele>
        <time>2016-01-08T10:02:52Z</time>
      </trkpt>
      <trkpt lat="48.50307" lon="-2.60355">
        <ele>30</ele>
        <time>2016-01-08T10:02:56Z</time>
      </trkpt>
      <trkpt lat="48.50309" lon="-2.60359">
        <ele>30</ele>
        <time>2016-01-08T10:03:00Z</time>
      </trkpt>
      <trkpt lat="48.5031" lon="-2.60359">
        <ele>30</ele>
        <time>2016-01-08T10:03:08Z</time>
      </trkpt>
      <trkpt lat="48.50311" lon="-2.6036">
        <ele>30</ele>
        <time>2016-01-08T10:03:19Z</time>
      </trkpt>
      <trkpt lat="48.50312" lon="-2.60361">
        <ele>32</ele>
        <time>2016-01-08T10:03:30Z</time>
      </trkpt>
      <trkpt lat="48.50314" lon="-2.60362">
        <ele>34</ele>
        <time>2016-01-08T10:03:39Z</time>
      </trkpt>
      <trkpt lat="48.50313" lon="-2.6036">
        <ele>34</ele>
        <time>2016-01-08T10:03:47Z</time>
      </trkpt>
      <trkpt lat="48.50314" lon="-2.60361">
        <ele>34</ele>
        <time>2016-01-08T10:04:04Z</time>
      </trkpt>
      <trkpt lat="48.50315" lon="-2.60363">
        <ele>34</ele>
        <time>2016-01-08T10:04:07Z</time>
      </trkpt>
      <trkpt lat="48.50314" lon="-2.60361">
        <ele>38</ele>
        <time>2016-01-08T10:04:33Z</time>
      </trkpt>
      <trkpt lat="48.50315" lon="-2.60361">
        <ele>38</ele>
        <time>2016-01-08T10:04:45Z</time>
      </trkpt>
      <trkpt lat="48.50314" lon="-2.60362">
        <ele>41</ele>
        <time>2016-01-08T10:04:52Z</time>
      </trkpt>
      <trkpt lat="48.50312" lon="-2.60363">
        <ele>44</ele>
        <time>2016-01-08T10:04:56Z</time>
      </trkpt>
      <trkpt lat="48.50311" lon="-2.60365">
        <ele>44</ele>
        <time>2016-01-08T10:04:59Z</time>
      </trkpt>
      <trkpt lat="48.50309" lon="-2.60368">
        <ele>44</ele>
        <time>2016-01-08T10:05:03Z</time>
      </trkpt>
      <trkpt lat="48.50308" lon="-2.60372">
        <ele>44</ele>
        <time>2016-01-08T10:05:07Z</time>
      </trkpt>
      <trkpt lat="48.50307" lon="-2.60374">
        <ele>44</ele>
        <time>2016-01-08T10:05:10Z</time>
      </trkpt>
      <trkpt lat="48.50305" lon="-2.60376">
        <ele>44</ele>
        <time>2016-01-08T10:05:13Z</time>
      </trkpt>
      <trkpt lat="48.50302" lon="-2.6038">
        <ele>43</ele>
        <time>2016-01-08T10:05:17Z</time>
      </trkpt>
      <trkpt lat="48.50299" lon="-2.60385">
        <ele>42</ele>
        <time>2016-01-08T10:05:21Z</time>
      </trkpt>
      <trkpt lat="48.50296" lon="-2.60389">
        <ele>41</ele>
        <time>2016-01-08T10:05:24Z</time>
      </trkpt>
      <trkpt lat="48.50293" lon="-2.60394">
        <ele>40</ele>
        <time>2016-01-08T10:05:28Z</time>
      </trkpt>
      <trkpt lat="48.50293" lon="-2.604">
        <ele>40</ele>
        <time>2016-01-08T10:05:31Z</time>
      </trkpt>
      <trkpt lat="48.50292" lon="-2.60405">
        <ele>40</ele>
        <time>2016-01-08T10:05:34Z</time>
      </trkpt>
      <trkpt lat="48.50291" lon="-2.60411">
        <ele>40</ele>
        <time>2016-01-08T10:05:38Z</time>
      </trkpt>
      <trkpt lat="48.50291" lon="-2.60418">
        <ele>39</ele>
        <time>2016-01-08T10:05:42Z</time>
      </trkpt>
      <trkpt lat="48.5029" lon="-2.60424">
        <ele>39</ele>
        <time>2016-01-08T10:05:46Z</time>
      </trkpt>
      <trkpt lat="48.5029" lon="-2.60429">
        <ele>39</ele>
        <time>2016-01-08T10:05:49Z</time>
      </trkpt>
      <trkpt lat="48.50289" lon="-2.60433">
        <ele>38</ele>
        <time>2016-01-08T10:05:53Z</time>
      </trkpt>
      <trkpt lat="48.5029" lon="-2.60439">
        <ele>38</ele>
        <time>2016-01-08T10:05:57Z</time>
      </trkpt>
      <trkpt lat="48.50291" lon="-2.60445">
        <ele>38</ele>
        <time>2016-01-08T10:06:00Z</time>
      </trkpt>
      <trkpt lat="48.50293" lon="-2.60453">
        <ele>38</ele>
        <time>2016-01-08T10:06:03Z</time>
      </trkpt>
      <trkpt lat="48.50293" lon="-2.60459">
        <ele>37</ele>
        <time>2016-01-08T10:06:06Z</time>
      </trkpt>
      <trkpt lat="48.50294" lon="-2.60466">
        <ele>36</ele>
        <time>2016-01-08T10:06:09Z</time>
      </trkpt>
      <trkpt lat="48.50295" lon="-2.60472">
        <ele>35</ele>
        <time>2016-01-08T10:06:12Z</time>
      </trkpt>
      <trkpt lat="48.50295" lon="-2.60477">
        <ele>35</ele>
        <time>2016-01-08T10:06:15Z</time>
      </trkpt>
      <trkpt lat="48.50296" lon="-2.60483">
        <ele>34</ele>
        <time>2016-01-08T10:06:18Z</time>
      </trkpt>
      <trkpt lat="48.50296" lon="-2.60488">
        <ele>34</ele>
        <time>2016-01-08T10:06:21Z</time>
      </trkpt>
      <trkpt lat="48.50296" lon="-2.60493">
        <ele>34</ele>
        <time>2016-01-08T10:06:24Z</time>
      </trkpt>
      <trkpt lat="48.50296" lon="-2.605">
        <ele>34</ele>
        <time>2016-01-08T10:06:27Z</time>
      </trkpt>
      <trkpt lat="48.50296" lon="-2.60504">
        <ele>34</ele>
        <time>2016-01-08T10:06:30Z</time>
      </trkpt>
      <trkpt lat="48.50298" lon="-2.6051">
        <ele>34</ele>
        <time>2016-01-08T10:06:33Z</time>
      </trkpt>
      <trkpt lat="48.50299" lon="-2.60516">
        <ele>34</ele>
        <time>2016-01-08T10:06:36Z</time>
      </trkpt>
      <trkpt lat="48.50299" lon="-2.60522">
        <ele>35</ele>
        <time>2016-01-08T10:06:39Z</time>
      </trkpt>
      <trkpt lat="48.503" lon="-2.60527">
        <ele>35</ele>
        <time>2016-01-08T10:06:42Z</time>
      </trkpt>
      <trkpt lat="48.50302" lon="-2.60531">
        <ele>35</ele>
        <time>2016-01-08T10:06:45Z</time>
      </trkpt>
      <trkpt lat="48.50305" lon="-2.60535">
        <ele>37</ele>
        <time>2016-01-08T10:06:49Z</time>
      </trkpt>
      <trkpt lat="48.50306" lon="-2.60536">
        <ele>39</ele>
        <time>2016-01-08T10:06:59Z</time>
      </trkpt>
      <trkpt lat="48.5031" lon="-2.60537">
        <ele>39</ele>
        <time>2016-01-08T10:07:03Z</time>
      </trkpt>
      <trkpt lat="48.50312" lon="-2.60535">
        <ele>40</ele>
        <time>2016-01-08T10:07:07Z</time>
      </trkpt>
      <trkpt lat="48.50315" lon="-2.60535">
        <ele>41</ele>
        <time>2016-01-08T10:07:10Z</time>
      </trkpt>
      <trkpt lat="48.50318" lon="-2.60535">
        <ele>42</ele>
        <time>2016-01-08T10:07:13Z</time>
      </trkpt>
      <trkpt lat="48.50321" lon="-2.60535">
        <ele>42</ele>
        <time>2016-01-08T10:07:16Z</time>
      </trkpt>
      <trkpt lat="48.50325" lon="-2.60536">
        <ele>42</ele>
        <time>2016-01-08T10:07:19Z</time>
      </trkpt>
      <trkpt lat="48.50328" lon="-2.60537">
        <ele>42</ele>
        <time>2016-01-08T10:07:22Z</time>
      </trkpt>
      <trkpt lat="48.50331" lon="-2.60536">
        <ele>42</ele>
        <time>2016-01-08T10:07:25Z</time>
      </trkpt>
      <trkpt lat="48.50335" lon="-2.60536">
        <ele>42</ele>
        <time>2016-01-08T10:07:29Z</time>
      </trkpt>
      <trkpt lat="48.50338" lon="-2.60535">
        <ele>42</ele>
        <time>2016-01-08T10:07:32Z</time>
      </trkpt>
      <trkpt lat="48.50342" lon="-2.60535">
        <ele>42</ele>
        <time>2016-01-08T10:07:36Z</time>
      </trkpt>
      <trkpt lat="48.50345" lon="-2.60534">
        <ele>41</ele>
        <time>2016-01-08T10:07:39Z</time>
      </trkpt>
      <trkpt lat="48.50349" lon="-2.60535">
        <ele>41</ele>
        <time>2016-01-08T10:07:42Z</time>
      </trkpt>
      <trkpt lat="48.50354" lon="-2.60536">
        <ele>39</ele>
        <time>2016-01-08T10:07:46Z</time>
      </trkpt>
      <trkpt lat="48.50358" lon="-2.60534">
        <ele>38</ele>
        <time>2016-01-08T10:07:49Z</time>
      </trkpt>
      <trkpt lat="48.50362" lon="-2.60535">
        <ele>38</ele>
        <time>2016-01-08T10:07:52Z</time>
      </trkpt>
      <trkpt lat="48.50368" lon="-2.60536">
        <ele>38</ele>
        <time>2016-01-08T10:07:55Z</time>
      </trkpt>
      <trkpt lat="48.50371" lon="-2.60537">
        <ele>38</ele>
        <time>2016-01-08T10:07:58Z</time>
      </trkpt>
      <trkpt lat="48.50376" lon="-2.6054">
        <ele>37</ele>
        <time>2016-01-08T10:08:02Z</time>
      </trkpt>
      <trkpt lat="48.50381" lon="-2.60541">
        <ele>37</ele>
        <time>2016-01-08T10:08:06Z</time>
      </trkpt>
      <trkpt lat="48.50385" lon="-2.60542">
        <ele>36</ele>
        <time>2016-01-08T10:08:09Z</time>
      </trkpt>
      <trkpt lat="48.50388" lon="-2.60544">
        <ele>35</ele>
        <time>2016-01-08T10:08:12Z</time>
      </trkpt>
      <trkpt lat="48.50391" lon="-2.60546">
        <ele>35</ele>
        <time>2016-01-08T10:08:15Z</time>
      </trkpt>
      <trkpt lat="48.50394" lon="-2.60548">
        <ele>35</ele>
        <time>2016-01-08T10:08:18Z</time>
      </trkpt>
      <trkpt lat="48.50398" lon="-2.60552">
        <ele>34</ele>
        <time>2016-01-08T10:08:21Z</time>
      </trkpt>
      <trkpt lat="48.50402" lon="-2.60555">
        <ele>33</ele>
        <time>2016-01-08T10:08:24Z</time>
      </trkpt>
      <trkpt lat="48.50404" lon="-2.60558">
        <ele>33</ele>
        <time>2016-01-08T10:08:27Z</time>
      </trkpt>
      <trkpt lat="48.5041" lon="-2.60564">
        <ele>32</ele>
        <time>2016-01-08T10:08:32Z</time>
      </trkpt>
      <trkpt lat="48.50411" lon="-2.60569">
        <ele>30</ele>
        <time>2016-01-08T10:08:36Z</time>
      </trkpt>
      <trkpt lat="48.50413" lon="-2.60575">
        <ele>30</ele>
        <time>2016-01-08T10:08:39Z</time>
      </trkpt>
      <trkpt lat="48.50414" lon="-2.60581">
        <ele>29</ele>
        <time>2016-01-08T10:08:42Z</time>
      </trkpt>
      <trkpt lat="48.50415" lon="-2.60586">
        <ele>28</ele>
        <time>2016-01-08T10:08:45Z</time>
      </trkpt>
      <trkpt lat="48.50417" lon="-2.60593">
        <ele>28</ele>
        <time>2016-01-08T10:08:48Z</time>
      </trkpt>
      <trkpt lat="48.50417" lon="-2.60598">
        <ele>27</ele>
        <time>2016-01-08T10:08:51Z</time>
      </trkpt>
      <trkpt lat="48.50418" lon="-2.60604">
        <ele>27</ele>
        <time>2016-01-08T10:08:55Z</time>
      </trkpt>
      <trkpt lat="48.5042" lon="-2.60611">
        <ele>27</ele>
        <time>2016-01-08T10:08:59Z</time>
      </trkpt>
      <trkpt lat="48.50421" lon="-2.60617">
        <ele>27</ele>
        <time>2016-01-08T10:09:03Z</time>
      </trkpt>
      <trkpt lat="48.50423" lon="-2.60622">
        <ele>27</ele>
        <time>2016-01-08T10:09:07Z</time>
      </trkpt>
      <trkpt lat="48.50426" lon="-2.60627">
        <ele>27</ele>
        <time>2016-01-08T10:09:11Z</time>
      </trkpt>
      <trkpt lat="48.50426" lon="-2.60632">
        <ele>28</ele>
        <time>2016-01-08T10:09:15Z</time>
      </trkpt>
      <trkpt lat="48.50427" lon="-2.60636">
        <ele>30</ele>
        <time>2016-01-08T10:09:19Z</time>
      </trkpt>
      <trkpt lat="48.50428" lon="-2.60641">
        <ele>32</ele>
        <time>2016-01-08T10:09:23Z</time>
      </trkpt>
      <trkpt lat="48.50429" lon="-2.60646">
        <ele>33</ele>
        <time>2016-01-08T10:09:28Z</time>
      </trkpt>
      <trkpt lat="48.50431" lon="-2.60651">
        <ele>33</ele>
        <time>2016-01-08T10:09:31Z</time>
      </trkpt>
      <trkpt lat="48.50431" lon="-2.60656">
        <ele>33</ele>
        <time>2016-01-08T10:09:34Z</time>
      </trkpt>
      <trkpt lat="48.50433" lon="-2.6066">
        <ele>34</ele>
        <time>2016-01-08T10:09:37Z</time>
      </trkpt>
      <trkpt lat="48.50433" lon="-2.60665">
        <ele>35</ele>
        <time>2016-01-08T10:09:40Z</time>
      </trkpt>
      <trkpt lat="48.50434" lon="-2.6067">
        <ele>35</ele>
        <time>2016-01-08T10:09:43Z</time>
      </trkpt>
      <trkpt lat="48.50437" lon="-2.60678">
        <ele>35</ele>
        <time>2016-01-08T10:09:47Z</time>
      </trkpt>
      <trkpt lat="48.50438" lon="-2.60683">
        <ele>35</ele>
        <time>2016-01-08T10:09:50Z</time>
      </trkpt>
      <trkpt lat="48.50438" lon="-2.60689">
        <ele>35</ele>
        <time>2016-01-08T10:09:53Z</time>
      </trkpt>
      <trkpt lat="48.50439" lon="-2.60693">
        <ele>35</ele>
        <time>2016-01-08T10:09:56Z</time>
      </trkpt>
      <trkpt lat="48.5044" lon="-2.60698">
        <ele>35</ele>
        <time>2016-01-08T10:09:59Z</time>
      </trkpt>
      <trkpt lat="48.50442" lon="-2.60704">
        <ele>35</ele>
        <time>2016-01-08T10:10:03Z</time>
      </trkpt>
      <trkpt lat="48.50443" lon="-2.60709">
        <ele>35</ele>
        <time>2016-01-08T10:10:07Z</time>
      </trkpt>
      <trkpt lat="48.50444" lon="-2.60712">
        <ele>35</ele>
        <time>2016-01-08T10:10:11Z</time>
      </trkpt>
      <trkpt lat="48.50446" lon="-2.60714">
        <ele>38</ele>
        <time>2016-01-08T10:10:17Z</time>
      </trkpt>
      <trkpt lat="48.50448" lon="-2.60717">
        <ele>38</ele>
        <time>2016-01-08T10:10:20Z</time>
      </trkpt>
      <trkpt lat="48.50451" lon="-2.60723">
        <ele>38</ele>
        <time>2016-01-08T10:10:24Z</time>
      </trkpt>
      <trkpt lat="48.50453" lon="-2.60728">
        <ele>38</ele>
        <time>2016-01-08T10:10:28Z</time>
      </trkpt>
      <trkpt lat="48.50455" lon="-2.60734">
        <ele>38</ele>
        <time>2016-01-08T10:10:32Z</time>
      </trkpt>
      <trkpt lat="48.50456" lon="-2.6074">
        <ele>38</ele>
        <time>2016-01-08T10:10:36Z</time>
      </trkpt>
      <trkpt lat="48.50458" lon="-2.60745">
        <ele>37</ele>
        <time>2016-01-08T10:10:39Z</time>
      </trkpt>
      <trkpt lat="48.5046" lon="-2.6075">
        <ele>37</ele>
        <time>2016-01-08T10:10:43Z</time>
      </trkpt>
      <trkpt lat="48.50463" lon="-2.60756">
        <ele>36</ele>
        <time>2016-01-08T10:10:47Z</time>
      </trkpt>
      <trkpt lat="48.50466" lon="-2.60762">
        <ele>36</ele>
        <time>2016-01-08T10:10:51Z</time>
      </trkpt>
      <trkpt lat="48.50468" lon="-2.60767">
        <ele>36</ele>
        <time>2016-01-08T10:10:54Z</time>
      </trkpt>
      <trkpt lat="48.50471" lon="-2.60772">
        <ele>36</ele>
        <time>2016-01-08T10:10:57Z</time>
      </trkpt>
      <trkpt lat="48.50475" lon="-2.60778">
        <ele>36</ele>
        <time>2016-01-08T10:11:01Z</time>
      </trkpt>
      <trkpt lat="48.50477" lon="-2.60783">
        <ele>36</ele>
        <time>2016-01-08T10:11:04Z</time>
      </trkpt>
      <trkpt lat="48.50479" lon="-2.60788">
        <ele>36</ele>
        <time>2016-01-08T10:11:07Z</time>
      </trkpt>
      <trkpt lat="48.50481" lon="-2.60792">
        <ele>36</ele>
        <time>2016-01-08T10:11:10Z</time>
      </trkpt>
      <trkpt lat="48.50483" lon="-2.60798">
        <ele>36</ele>
        <time>2016-01-08T10:11:13Z</time>
      </trkpt>
      <trkpt lat="48.50487" lon="-2.60803">
        <ele>35</ele>
        <time>2016-01-08T10:11:16Z</time>
      </trkpt>
      <trkpt lat="48.50489" lon="-2.60809">
        <ele>35</ele>
        <time>2016-01-08T10:11:20Z</time>
      </trkpt>
      <trkpt lat="48.50493" lon="-2.60814">
        <ele>35</ele>
        <time>2016-01-08T10:11:24Z</time>
      </trkpt>
      <trkpt lat="48.50494" lon="-2.6082">
        <ele>35</ele>
        <time>2016-01-08T10:11:27Z</time>
      </trkpt>
      <trkpt lat="48.50497" lon="-2.60825">
        <ele>36</ele>
        <time>2016-01-08T10:11:30Z</time>
      </trkpt>
      <trkpt lat="48.505" lon="-2.60831">
        <ele>36</ele>
        <time>2016-01-08T10:11:33Z</time>
      </trkpt>
      <trkpt lat="48.50501" lon="-2.60838">
        <ele>36</ele>
        <time>2016-01-08T10:11:36Z</time>
      </trkpt>
      <trkpt lat="48.50502" lon="-2.60844">
        <ele>36</ele>
        <time>2016-01-08T10:11:39Z</time>
      </trkpt>
      <trkpt lat="48.50504" lon="-2.60849">
        <ele>36</ele>
        <time>2016-01-08T10:11:43Z</time>
      </trkpt>
      <trkpt lat="48.50505" lon="-2.60854">
        <ele>36</ele>
        <time>2016-01-08T10:11:46Z</time>
      </trkpt>
      <trkpt lat="48.50505" lon="-2.60856">
        <ele>36</ele>
        <time>2016-01-08T10:11:49Z</time>
      </trkpt>
      <trkpt lat="48.50506" lon="-2.60857">
        <ele>36</ele>
        <time>2016-01-08T10:11:53Z</time>
      </trkpt>
      <trkpt lat="48.50507" lon="-2.60855">
        <ele>36</ele>
        <time>2016-01-08T10:11:57Z</time>
      </trkpt>
      <trkpt lat="48.50509" lon="-2.60855">
        <ele>36</ele>
        <time>2016-01-08T10:12:00Z</time>
      </trkpt>
      <trkpt lat="48.50513" lon="-2.60856">
        <ele>36</ele>
        <time>2016-01-08T10:12:04Z</time>
      </trkpt>
      <trkpt lat="48.50516" lon="-2.60858">
        <ele>36</ele>
        <time>2016-01-08T10:12:09Z</time>
      </trkpt>
      <trkpt lat="48.50518" lon="-2.6086">
        <ele>36</ele>
        <time>2016-01-08T10:12:14Z</time>
      </trkpt>
      <trkpt lat="48.5052" lon="-2.60861">
        <ele>36</ele>
        <time>2016-01-08T10:12:17Z</time>
      </trkpt>
      <trkpt lat="48.50522" lon="-2.60863">
        <ele>36</ele>
        <time>2016-01-08T10:12:22Z</time>
      </trkpt>
      <trkpt lat="48.50523" lon="-2.60869">
        <ele>36</ele>
        <time>2016-01-08T10:12:25Z</time>
      </trkpt>
      <trkpt lat="48.50521" lon="-2.60875">
        <ele>36</ele>
        <time>2016-01-08T10:12:29Z</time>
      </trkpt>
      <trkpt lat="48.5052" lon="-2.6088">
        <ele>35</ele>
        <time>2016-01-08T10:12:32Z</time>
      </trkpt>
      <trkpt lat="48.50518" lon="-2.60886">
        <ele>33</ele>
        <time>2016-01-08T10:12:36Z</time>
      </trkpt>
      <trkpt lat="48.50517" lon="-2.60891">
        <ele>31</ele>
        <time>2016-01-08T10:12:40Z</time>
      </trkpt>
      <trkpt lat="48.50515" lon="-2.60897">
        <ele>31</ele>
        <time>2016-01-08T10:12:44Z</time>
      </trkpt>
      <trkpt lat="48.50515" lon="-2.60898">
        <ele>31</ele>
        <time>2016-01-08T10:12:48Z</time>
      </trkpt>
      <trkpt lat="48.50515" lon="-2.60901">
        <ele>31</ele>
        <time>2016-01-08T10:12:52Z</time>
      </trkpt>
      <trkpt lat="48.50513" lon="-2.60907">
        <ele>31</ele>
        <time>2016-01-08T10:12:55Z</time>
      </trkpt>
      <trkpt lat="48.50512" lon="-2.60912">
        <ele>31</ele>
        <time>2016-01-08T10:12:58Z</time>
      </trkpt>
      <trkpt lat="48.5051" lon="-2.60918">
        <ele>30</ele>
        <time>2016-01-08T10:13:02Z</time>
      </trkpt>
      <trkpt lat="48.50508" lon="-2.60923">
        <ele>30</ele>
        <time>2016-01-08T10:13:05Z</time>
      </trkpt>
      <trkpt lat="48.50507" lon="-2.60928">
        <ele>27</ele>
        <time>2016-01-08T10:13:09Z</time>
      </trkpt>
      <trkpt lat="48.50506" lon="-2.60935">
        <ele>27</ele>
        <time>2016-01-08T10:13:12Z</time>
      </trkpt>
      <trkpt lat="48.50505" lon="-2.60943">
        <ele>27</ele>
        <time>2016-01-08T10:13:16Z</time>
      </trkpt>
      <trkpt lat="48.50505" lon="-2.60951">
        <ele>26</ele>
        <time>2016-01-08T10:13:20Z</time>
      </trkpt>
      <trkpt lat="48.50506" lon="-2.60955">
        <ele>26</ele>
        <time>2016-01-08T10:13:23Z</time>
      </trkpt>
      <trkpt lat="48.50504" lon="-2.60961">
        <ele>26</ele>
        <time>2016-01-08T10:13:27Z</time>
      </trkpt>
      <trkpt lat="48.50502" lon="-2.60967">
        <ele>26</ele>
        <time>2016-01-08T10:13:31Z</time>
      </trkpt>
      <trkpt lat="48.50501" lon="-2.60972">
        <ele>26</ele>
        <time>2016-01-08T10:13:34Z</time>
      </trkpt>
      <trkpt lat="48.50499" lon="-2.60977">
        <ele>26</ele>
        <time>2016-01-08T10:13:38Z</time>
      </trkpt>
      <trkpt lat="48.50498" lon="-2.60981">
        <ele>26</ele>
        <time>2016-01-08T10:13:42Z</time>
      </trkpt>
      <trkpt lat="48.50496" lon="-2.60985">
        <ele>26</ele>
        <time>2016-01-08T10:13:46Z</time>
      </trkpt>
      <trkpt lat="48.50495" lon="-2.60989">
        <ele>26</ele>
        <time>2016-01-08T10:13:49Z</time>
      </trkpt>
      <trkpt lat="48.50494" lon="-2.60993">
        <ele>26</ele>
        <time>2016-01-08T10:13:52Z</time>
      </trkpt>
      <trkpt lat="48.50495" lon="-2.60997">
        <ele>26</ele>
        <time>2016-01-08T10:13:55Z</time>
      </trkpt>
      <trkpt lat="48.50495" lon="-2.61002">
        <ele>26</ele>
        <time>2016-01-08T10:13:58Z</time>
      </trkpt>
      <trkpt lat="48.50495" lon="-2.61007">
        <ele>26</ele>
        <time>2016-01-08T10:14:01Z</time>
      </trkpt>
      <trkpt lat="48.50494" lon="-2.61013">
        <ele>26</ele>
        <time>2016-01-08T10:14:05Z</time>
      </trkpt>
      <trkpt lat="48.50493" lon="-2.61019">
        <ele>26</ele>
        <time>2016-01-08T10:14:09Z</time>
      </trkpt>
      <trkpt lat="48.50492" lon="-2.61023">
        <ele>26</ele>
        <time>2016-01-08T10:14:14Z</time>
      </trkpt>
      <trkpt lat="48.50491" lon="-2.61028">
        <ele>26</ele>
        <time>2016-01-08T10:14:18Z</time>
      </trkpt>
      <trkpt lat="48.50491" lon="-2.61032">
        <ele>26</ele>
        <time>2016-01-08T10:14:22Z</time>
      </trkpt>
      <trkpt lat="48.50488" lon="-2.61036">
        <ele>28</ele>
        <time>2016-01-08T10:14:27Z</time>
      </trkpt>
      <trkpt lat="48.50487" lon="-2.61038">
        <ele>30</ele>
        <time>2016-01-08T10:14:30Z</time>
      </trkpt>
      <trkpt lat="48.50486" lon="-2.61043">
        <ele>31</ele>
        <time>2016-01-08T10:14:34Z</time>
      </trkpt>
      <trkpt lat="48.50485" lon="-2.61048">
        <ele>31</ele>
        <time>2016-01-08T10:14:37Z</time>
      </trkpt>
      <trkpt lat="48.50483" lon="-2.61054">
        <ele>31</ele>
        <time>2016-01-08T10:14:41Z</time>
      </trkpt>
      <trkpt lat="48.50483" lon="-2.61059">
        <ele>31</ele>
        <time>2016-01-08T10:14:44Z</time>
      </trkpt>
      <trkpt lat="48.50482" lon="-2.61063">
        <ele>31</ele>
        <time>2016-01-08T10:14:48Z</time>
      </trkpt>
      <trkpt lat="48.50481" lon="-2.61068">
        <ele>31</ele>
        <time>2016-01-08T10:14:51Z</time>
      </trkpt>
      <trkpt lat="48.5048" lon="-2.61075">
        <ele>30</ele>
        <time>2016-01-08T10:14:55Z</time>
      </trkpt>
      <trkpt lat="48.5048" lon="-2.61079">
        <ele>29</ele>
        <time>2016-01-08T10:14:58Z</time>
      </trkpt>
      <trkpt lat="48.5048" lon="-2.61087">
        <ele>28</ele>
        <time>2016-01-08T10:15:02Z</time>
      </trkpt>
      <trkpt lat="48.50479" lon="-2.61092">
        <ele>28</ele>
        <time>2016-01-08T10:15:06Z</time>
      </trkpt>
      <trkpt lat="48.5048" lon="-2.61097">
        <ele>28</ele>
        <time>2016-01-08T10:15:09Z</time>
      </trkpt>
      <trkpt lat="48.50479" lon="-2.61103">
        <ele>28</ele>
        <time>2016-01-08T10:15:12Z</time>
      </trkpt>
      <trkpt lat="48.50478" lon="-2.61109">
        <ele>28</ele>
        <time>2016-01-08T10:15:16Z</time>
      </trkpt>
      <trkpt lat="48.50478" lon="-2.61115">
        <ele>28</ele>
        <time>2016-01-08T10:15:19Z</time>
      </trkpt>
      <trkpt lat="48.50478" lon="-2.61118">
        <ele>28</ele>
        <time>2016-01-08T10:15:22Z</time>
      </trkpt>
      <trkpt lat="48.50479" lon="-2.6112">
        <ele>28</ele>
        <time>2016-01-08T10:15:25Z</time>
      </trkpt>
      <trkpt lat="48.50479" lon="-2.61124">
        <ele>28</ele>
        <time>2016-01-08T10:15:28Z</time>
      </trkpt>
      <trkpt lat="48.50479" lon="-2.6113">
        <ele>28</ele>
        <time>2016-01-08T10:15:31Z</time>
      </trkpt>
      <trkpt lat="48.50479" lon="-2.61135">
        <ele>28</ele>
        <time>2016-01-08T10:15:34Z</time>
      </trkpt>
      <trkpt lat="48.50479" lon="-2.61139">
        <ele>28</ele>
        <time>2016-01-08T10:15:38Z</time>
      </trkpt>
      <trkpt lat="48.5048" lon="-2.61143">
        <ele>28</ele>
        <time>2016-01-08T10:15:53Z</time>
      </trkpt>
      <trkpt lat="48.50479" lon="-2.61143">
        <ele>28</ele>
        <time>2016-01-08T10:15:56Z</time>
      </trkpt>
      <trkpt lat="48.50477" lon="-2.61144">
        <ele>28</ele>
        <time>2016-01-08T10:15:59Z</time>
      </trkpt>
      <trkpt lat="48.50476" lon="-2.61149">
        <ele>30</ele>
        <time>2016-01-08T10:16:04Z</time>
      </trkpt>
      <trkpt lat="48.50475" lon="-2.61151">
        <ele>32</ele>
        <time>2016-01-08T10:16:11Z</time>
      </trkpt>
      <trkpt lat="48.50475" lon="-2.61153">
        <ele>34</ele>
        <time>2016-01-08T10:16:18Z</time>
      </trkpt>
      <trkpt lat="48.50474" lon="-2.61155">
        <ele>34</ele>
        <time>2016-01-08T10:16:21Z</time>
      </trkpt>
      <trkpt lat="48.50474" lon="-2.61159">
        <ele>34</ele>
        <time>2016-01-08T10:16:25Z</time>
      </trkpt>
      <trkpt lat="48.50473" lon="-2.61163">
        <ele>34</ele>
        <time>2016-01-08T10:16:29Z</time>
      </trkpt>
      <trkpt lat="48.50473" lon="-2.61169">
        <ele>34</ele>
        <time>2016-01-08T10:16:33Z</time>
      </trkpt>
      <trkpt lat="48.50472" lon="-2.61174">
        <ele>34</ele>
        <time>2016-01-08T10:16:36Z</time>
      </trkpt>
      <trkpt lat="48.50473" lon="-2.61178">
        <ele>34</ele>
        <time>2016-01-08T10:16:39Z</time>
      </trkpt>
      <trkpt lat="48.50472" lon="-2.61185">
        <ele>34</ele>
        <time>2016-01-08T10:16:42Z</time>
      </trkpt>
      <trkpt lat="48.50471" lon="-2.6119">
        <ele>34</ele>
        <time>2016-01-08T10:16:45Z</time>
      </trkpt>
      <trkpt lat="48.50471" lon="-2.61197">
        <ele>34</ele>
        <time>2016-01-08T10:16:49Z</time>
      </trkpt>
      <trkpt lat="48.50471" lon="-2.61203">
        <ele>34</ele>
        <time>2016-01-08T10:16:52Z</time>
      </trkpt>
      <trkpt lat="48.5047" lon="-2.61207">
        <ele>33</ele>
        <time>2016-01-08T10:16:56Z</time>
      </trkpt>
      <trkpt lat="48.50471" lon="-2.61215">
        <ele>32</ele>
        <time>2016-01-08T10:17:00Z</time>
      </trkpt>
      <trkpt lat="48.50471" lon="-2.61221">
        <ele>30</ele>
        <time>2016-01-08T10:17:03Z</time>
      </trkpt>
      <trkpt lat="48.50471" lon="-2.6123">
        <ele>26</ele>
        <time>2016-01-08T10:17:07Z</time>
      </trkpt>
      <trkpt lat="48.50474" lon="-2.61238">
        <ele>25</ele>
        <time>2016-01-08T10:17:11Z</time>
      </trkpt>
      <trkpt lat="48.50475" lon="-2.61247">
        <ele>23</ele>
        <time>2016-01-08T10:17:15Z</time>
      </trkpt>
      <trkpt lat="48.50474" lon="-2.61256">
        <ele>23</ele>
        <time>2016-01-08T10:17:19Z</time>
      </trkpt>
      <trkpt lat="48.50474" lon="-2.61262">
        <ele>22</ele>
        <time>2016-01-08T10:17:22Z</time>
      </trkpt>
      <trkpt lat="48.50476" lon="-2.61268">
        <ele>22</ele>
        <time>2016-01-08T10:17:25Z</time>
      </trkpt>
      <trkpt lat="48.50478" lon="-2.61275">
        <ele>22</ele>
        <time>2016-01-08T10:17:28Z</time>
      </trkpt>
      <trkpt lat="48.50481" lon="-2.6128">
        <ele>22</ele>
        <time>2016-01-08T10:17:31Z</time>
      </trkpt>
      <trkpt lat="48.50485" lon="-2.61288">
        <ele>21</ele>
        <time>2016-01-08T10:17:35Z</time>
      </trkpt>
      <trkpt lat="48.50489" lon="-2.61295">
        <ele>21</ele>
        <time>2016-01-08T10:17:39Z</time>
      </trkpt>
      <trkpt lat="48.50491" lon="-2.61301">
        <ele>21</ele>
        <time>2016-01-08T10:17:42Z</time>
      </trkpt>
      <trkpt lat="48.50492" lon="-2.61308">
        <ele>21</ele>
        <time>2016-01-08T10:17:45Z</time>
      </trkpt>
      <trkpt lat="48.50495" lon="-2.61315">
        <ele>21</ele>
        <time>2016-01-08T10:17:48Z</time>
      </trkpt>
      <trkpt lat="48.50496" lon="-2.61322">
        <ele>21</ele>
        <time>2016-01-08T10:17:51Z</time>
      </trkpt>
      <trkpt lat="48.50495" lon="-2.61332">
        <ele>21</ele>
        <time>2016-01-08T10:17:55Z</time>
      </trkpt>
      <trkpt lat="48.50494" lon="-2.61338">
        <ele>21</ele>
        <time>2016-01-08T10:17:58Z</time>
      </trkpt>
      <trkpt lat="48.50493" lon="-2.61342">
        <ele>21</ele>
        <time>2016-01-08T10:18:01Z</time>
      </trkpt>
      <trkpt lat="48.50491" lon="-2.61349">
        <ele>21</ele>
        <time>2016-01-08T10:18:04Z</time>
      </trkpt>
      <trkpt lat="48.50485" lon="-2.61355">
        <ele>21</ele>
        <time>2016-01-08T10:18:08Z</time>
      </trkpt>
      <trkpt lat="48.50484" lon="-2.61363">
        <ele>21</ele>
        <time>2016-01-08T10:18:11Z</time>
      </trkpt>
      <trkpt lat="48.50484" lon="-2.61372">
        <ele>21</ele>
        <time>2016-01-08T10:18:15Z</time>
      </trkpt>
      <trkpt lat="48.50485" lon="-2.6138">
        <ele>22</ele>
        <time>2016-01-08T10:18:18Z</time>
      </trkpt>
      <trkpt lat="48.50488" lon="-2.61384">
        <ele>24</ele>
        <time>2016-01-08T10:18:21Z</time>
      </trkpt>
      <trkpt lat="48.50494" lon="-2.61392">
        <ele>25</ele>
        <time>2016-01-08T10:18:26Z</time>
      </trkpt>
      <trkpt lat="48.50497" lon="-2.61396">
        <ele>26</ele>
        <time>2016-01-08T10:18:29Z</time>
      </trkpt>
      <trkpt lat="48.505" lon="-2.614">
        <ele>26</ele>
        <time>2016-01-08T10:18:32Z</time>
      </trkpt>
      <trkpt lat="48.50505" lon="-2.61406">
        <ele>26</ele>
        <time>2016-01-08T10:18:36Z</time>
      </trkpt>
      <trkpt lat="48.50509" lon="-2.61411">
        <ele>26</ele>
        <time>2016-01-08T10:18:40Z</time>
      </trkpt>
      <trkpt lat="48.50513" lon="-2.61417">
        <ele>26</ele>
        <time>2016-01-08T10:18:45Z</time>
      </trkpt>
      <trkpt lat="48.50519" lon="-2.61417">
        <ele>26</ele>
        <time>2016-01-08T10:18:49Z</time>
      </trkpt>
      <trkpt lat="48.50523" lon="-2.61417">
        <ele>26</ele>
        <time>2016-01-08T10:18:53Z</time>
      </trkpt>
      <trkpt lat="48.50526" lon="-2.61416">
        <ele>26</ele>
        <time>2016-01-08T10:18:56Z</time>
      </trkpt>
      <trkpt lat="48.50532" lon="-2.61414">
        <ele>26</ele>
        <time>2016-01-08T10:19:00Z</time>
      </trkpt>
      <trkpt lat="48.50537" lon="-2.61408">
        <ele>26</ele>
        <time>2016-01-08T10:19:05Z</time>
      </trkpt>
      <trkpt lat="48.50541" lon="-2.61403">
        <ele>26</ele>
        <time>2016-01-08T10:19:09Z</time>
      </trkpt>
      <trkpt lat="48.50544" lon="-2.61397">
        <ele>26</ele>
        <time>2016-01-08T10:19:13Z</time>
      </trkpt>
      <trkpt lat="48.50547" lon="-2.61394">
        <ele>26</ele>
        <time>2016-01-08T10:19:16Z</time>
      </trkpt>
      <trkpt lat="48.50552" lon="-2.6139">
        <ele>26</ele>
        <time>2016-01-08T10:19:20Z</time>
      </trkpt>
      <trkpt lat="48.50554" lon="-2.61388">
        <ele>26</ele>
        <time>2016-01-08T10:19:24Z</time>
      </trkpt>
      <trkpt lat="48.50554" lon="-2.61386">
        <ele>27</ele>
        <time>2016-01-08T10:19:27Z</time>
      </trkpt>
      <trkpt lat="48.50554" lon="-2.61382">
        <ele>29</ele>
        <time>2016-01-08T10:19:43Z</time>
      </trkpt>
      <trkpt lat="48.50555" lon="-2.61381">
        <ele>30</ele>
        <time>2016-01-08T10:19:49Z</time>
      </trkpt>
      <trkpt lat="48.50559" lon="-2.61379">
        <ele>31</ele>
        <time>2016-01-08T10:19:52Z</time>
      </trkpt>
      <trkpt lat="48.50565" lon="-2.61373">
        <ele>31</ele>
        <time>2016-01-08T10:19:57Z</time>
      </trkpt>
      <trkpt lat="48.50568" lon="-2.61368">
        <ele>31</ele>
        <time>2016-01-08T10:20:01Z</time>
      </trkpt>
      <trkpt lat="48.50571" lon="-2.61362">
        <ele>32</ele>
        <time>2016-01-08T10:20:05Z</time>
      </trkpt>
      <trkpt lat="48.50573" lon="-2.61358">
        <ele>32</ele>
        <time>2016-01-08T10:20:09Z</time>
      </trkpt>
      <trkpt lat="48.50575" lon="-2.61355">
        <ele>32</ele>
        <time>2016-01-08T10:20:18Z</time>
      </trkpt>
      <trkpt lat="48.50578" lon="-2.61351">
        <ele>32</ele>
        <time>2016-01-08T10:20:22Z</time>
      </trkpt>
      <trkpt lat="48.50581" lon="-2.61347">
        <ele>32</ele>
        <time>2016-01-08T10:20:26Z</time>
      </trkpt>
      <trkpt lat="48.50585" lon="-2.61342">
        <ele>32</ele>
        <time>2016-01-08T10:20:30Z</time>
      </trkpt>
      <trkpt lat="48.50589" lon="-2.6134">
        <ele>32</ele>
        <time>2016-01-08T10:20:34Z</time>
      </trkpt>
      <trkpt lat="48.50592" lon="-2.61343">
        <ele>33</ele>
        <time>2016-01-08T10:20:44Z</time>
      </trkpt>
      <trkpt lat="48.50595" lon="-2.61346">
        <ele>35</ele>
        <time>2016-01-08T10:20:48Z</time>
      </trkpt>
      <trkpt lat="48.50597" lon="-2.61347">
        <ele>35</ele>
        <time>2016-01-08T10:20:51Z</time>
      </trkpt>
      <trkpt lat="48.50599" lon="-2.6135">
        <ele>36</ele>
        <time>2016-01-08T10:20:58Z</time>
      </trkpt>
      <trkpt lat="48.50601" lon="-2.61346">
        <ele>37</ele>
        <time>2016-01-08T10:21:02Z</time>
      </trkpt>
      <trkpt lat="48.50602" lon="-2.61345">
        <ele>37</ele>
        <time>2016-01-08T10:21:14Z</time>
      </trkpt>
      <trkpt lat="48.50604" lon="-2.61343">
        <ele>37</ele>
        <time>2016-01-08T10:21:17Z</time>
      </trkpt>
      <trkpt lat="48.50605" lon="-2.61341">
        <ele>37</ele>
        <time>2016-01-08T10:21:20Z</time>
      </trkpt>
      <trkpt lat="48.50607" lon="-2.61336">
        <ele>37</ele>
        <time>2016-01-08T10:21:24Z</time>
      </trkpt>
      <trkpt lat="48.5061" lon="-2.61331">
        <ele>37</ele>
        <time>2016-01-08T10:21:28Z</time>
      </trkpt>
      <trkpt lat="48.50612" lon="-2.61326">
        <ele>37</ele>
        <time>2016-01-08T10:21:32Z</time>
      </trkpt>
      <trkpt lat="48.50614" lon="-2.6132">
        <ele>37</ele>
        <time>2016-01-08T10:21:35Z</time>
      </trkpt>
      <trkpt lat="48.50617" lon="-2.61316">
        <ele>37</ele>
        <time>2016-01-08T10:21:38Z</time>
      </trkpt>
      <trkpt lat="48.50619" lon="-2.6131">
        <ele>37</ele>
        <time>2016-01-08T10:21:42Z</time>
      </trkpt>
      <trkpt lat="48.50621" lon="-2.61304">
        <ele>37</ele>
        <time>2016-01-08T10:21:46Z</time>
      </trkpt>
      <trkpt lat="48.50623" lon="-2.61299">
        <ele>37</ele>
        <time>2016-01-08T10:21:49Z</time>
      </trkpt>
      <trkpt lat="48.50625" lon="-2.61292">
        <ele>37</ele>
        <time>2016-01-08T10:21:53Z</time>
      </trkpt>
      <trkpt lat="48.50627" lon="-2.61286">
        <ele>37</ele>
        <time>2016-01-08T10:21:56Z</time>
      </trkpt>
      <trkpt lat="48.5063" lon="-2.61277">
        <ele>37</ele>
        <time>2016-01-08T10:22:00Z</time>
      </trkpt>
      <trkpt lat="48.50632" lon="-2.61271">
        <ele>37</ele>
        <time>2016-01-08T10:22:03Z</time>
      </trkpt>
      <trkpt lat="48.50636" lon="-2.61264">
        <ele>37</ele>
        <time>2016-01-08T10:22:07Z</time>
      </trkpt>
      <trkpt lat="48.50638" lon="-2.61259">
        <ele>37</ele>
        <time>2016-01-08T10:22:10Z</time>
      </trkpt>
      <trkpt lat="48.50641" lon="-2.61253">
        <ele>37</ele>
        <time>2016-01-08T10:22:14Z</time>
      </trkpt>
      <trkpt lat="48.50644" lon="-2.61248">
        <ele>37</ele>
        <time>2016-01-08T10:22:18Z</time>
      </trkpt>
      <trkpt lat="48.50648" lon="-2.61242">
        <ele>37</ele>
        <time>2016-01-08T10:22:22Z</time>
      </trkpt>
      <trkpt lat="48.5065" lon="-2.61237">
        <ele>37</ele>
        <time>2016-01-08T10:22:25Z</time>
      </trkpt>
      <trkpt lat="48.50651" lon="-2.61231">
        <ele>36</ele>
        <time>2016-01-08T10:22:28Z</time>
      </trkpt>
      <trkpt lat="48.50653" lon="-2.61225">
        <ele>35</ele>
        <time>2016-01-08T10:22:31Z</time>
      </trkpt>
      <trkpt lat="48.50655" lon="-2.61219">
        <ele>35</ele>
        <time>2016-01-08T10:22:34Z</time>
      </trkpt>
      <trkpt lat="48.50657" lon="-2.61211">
        <ele>35</ele>
        <time>2016-01-08T10:22:37Z</time>
      </trkpt>
      <trkpt lat="48.50659" lon="-2.61204">
        <ele>35</ele>
        <time>2016-01-08T10:22:40Z</time>
      </trkpt>
      <trkpt lat="48.5066" lon="-2.61198">
        <ele>35</ele>
        <time>2016-01-08T10:22:43Z</time>
      </trkpt>
      <trkpt lat="48.50661" lon="-2.61193">
        <ele>35</ele>
        <time>2016-01-08T10:22:46Z</time>
      </trkpt>
      <trkpt lat="48.5066" lon="-2.61187">
        <ele>35</ele>
        <time>2016-01-08T10:22:49Z</time>
      </trkpt>
      <trkpt lat="48.50657" lon="-2.61181">
        <ele>35</ele>
        <time>2016-01-08T10:22:52Z</time>
      </trkpt>
      <trkpt lat="48.50652" lon="-2.61174">
        <ele>35</ele>
        <time>2016-01-08T10:22:56Z</time>
      </trkpt>
      <trkpt lat="48.50648" lon="-2.61169">
        <ele>35</ele>
        <time>2016-01-08T10:23:00Z</time>
      </trkpt>
      <trkpt lat="48.50645" lon="-2.61163">
        <ele>35</ele>
        <time>2016-01-08T10:23:03Z</time>
      </trkpt>
      <trkpt lat="48.50642" lon="-2.61157">
        <ele>35</ele>
        <time>2016-01-08T10:23:07Z</time>
      </trkpt>
      <trkpt lat="48.50639" lon="-2.61152">
        <ele>35</ele>
        <time>2016-01-08T10:23:10Z</time>
      </trkpt>
      <trkpt lat="48.50637" lon="-2.61146">
        <ele>36</ele>
        <time>2016-01-08T10:23:13Z</time>
      </trkpt>
      <trkpt lat="48.50633" lon="-2.6114">
        <ele>36</ele>
        <time>2016-01-08T10:23:17Z</time>
      </trkpt>
      <trkpt lat="48.50629" lon="-2.61133">
        <ele>36</ele>
        <time>2016-01-08T10:23:21Z</time>
      </trkpt>
      <trkpt lat="48.50626" lon="-2.61128">
        <ele>36</ele>
        <time>2016-01-08T10:23:24Z</time>
      </trkpt>
      <trkpt lat="48.50623" lon="-2.61122">
        <ele>36</ele>
        <time>2016-01-08T10:23:28Z</time>
      </trkpt>
      <trkpt lat="48.5062" lon="-2.61116">
        <ele>37</ele>
        <time>2016-01-08T10:23:31Z</time>
      </trkpt>
      <trkpt lat="48.50618" lon="-2.6111">
        <ele>37</ele>
        <time>2016-01-08T10:23:34Z</time>
      </trkpt>
      <trkpt lat="48.50616" lon="-2.61104">
        <ele>37</ele>
        <time>2016-01-08T10:23:37Z</time>
      </trkpt>
      <trkpt lat="48.50614" lon="-2.61097">
        <ele>37</ele>
        <time>2016-01-08T10:23:40Z</time>
      </trkpt>
      <trkpt lat="48.50613" lon="-2.61091">
        <ele>37</ele>
        <time>2016-01-08T10:23:44Z</time>
      </trkpt>
      <trkpt lat="48.50611" lon="-2.61084">
        <ele>37</ele>
        <time>2016-01-08T10:23:47Z</time>
      </trkpt>
      <trkpt lat="48.5061" lon="-2.61078">
        <ele>37</ele>
        <time>2016-01-08T10:23:50Z</time>
      </trkpt>
      <trkpt lat="48.5061" lon="-2.61071">
        <ele>37</ele>
        <time>2016-01-08T10:23:53Z</time>
      </trkpt>
      <trkpt lat="48.5061" lon="-2.61065">
        <ele>37</ele>
        <time>2016-01-08T10:23:56Z</time>
      </trkpt>
      <trkpt lat="48.5061" lon="-2.61058">
        <ele>37</ele>
        <time>2016-01-08T10:23:59Z</time>
      </trkpt>
      <trkpt lat="48.5061" lon="-2.61051">
        <ele>37</ele>
        <time>2016-01-08T10:24:02Z</time>
      </trkpt>
      <trkpt lat="48.5061" lon="-2.61045">
        <ele>37</ele>
        <time>2016-01-08T10:24:05Z</time>
      </trkpt>
      <trkpt lat="48.5061" lon="-2.61038">
        <ele>37</ele>
        <time>2016-01-08T10:24:08Z</time>
      </trkpt>
      <trkpt lat="48.50611" lon="-2.61033">
        <ele>37</ele>
        <time>2016-01-08T10:24:11Z</time>
      </trkpt>
      <trkpt lat="48.50612" lon="-2.61027">
        <ele>37</ele>
        <time>2016-01-08T10:24:14Z</time>
      </trkpt>
      <trkpt lat="48.50613" lon="-2.6102">
        <ele>37</ele>
        <time>2016-01-08T10:24:17Z</time>
      </trkpt>
      <trkpt lat="48.50614" lon="-2.61015">
        <ele>38</ele>
        <time>2016-01-08T10:24:20Z</time>
      </trkpt>
      <trkpt lat="48.50615" lon="-2.61009">
        <ele>38</ele>
        <time>2016-01-08T10:24:23Z</time>
      </trkpt>
      <trkpt lat="48.50615" lon="-2.61003">
        <ele>38</ele>
        <time>2016-01-08T10:24:26Z</time>
      </trkpt>
      <trkpt lat="48.50616" lon="-2.60998">
        <ele>38</ele>
        <time>2016-01-08T10:24:29Z</time>
      </trkpt>
      <trkpt lat="48.50616" lon="-2.60992">
        <ele>38</ele>
        <time>2016-01-08T10:24:32Z</time>
      </trkpt>
      <trkpt lat="48.50617" lon="-2.60987">
        <ele>38</ele>
        <time>2016-01-08T10:24:35Z</time>
      </trkpt>
      <trkpt lat="48.50616" lon="-2.60985">
        <ele>38</ele>
        <time>2016-01-08T10:24:38Z</time>
      </trkpt>
      <trkpt lat="48.50616" lon="-2.60984">
        <ele>38</ele>
        <time>2016-01-08T10:24:42Z</time>
      </trkpt>
      <trkpt lat="48.50616" lon="-2.60982">
        <ele>38</ele>
        <time>2016-01-08T10:24:55Z</time>
      </trkpt>
      <trkpt lat="48.50617" lon="-2.60981">
        <ele>38</ele>
        <time>2016-01-08T10:25:08Z</time>
      </trkpt>
    </trkseg>
  </trk>
</gpx>